[[{"header":{"parameterUnit":"m.s-1","parameterCategory":1,"la1":30.6,"la2":29.2853,"lo1":-89.7004,"lo2":-87.6739,"dy":0.0162,"dx":0.0183,"nx":112,"ny":82,"refTime":"2023-10-27T06:00:00:Z","depth":0,"parameterNumber":2,"parameterNumberName":"U-component_of_WINDS"},"data":[0.0,0.0,0.0,0.0,0.0,0.0,0.0,0.0,0.0,0.0,0.0,0.0,0.0,0.0,0.0,0.0,0.0,0.0,0.0,0.0,0.0,0.0,0.0,0.0,0.0,0.0,0.0,0.0,0.0,0.0,0.0,0.0,0.0,0.0,0.0,0.0,0.0,0.0,0.0,0.0,0.0,0.0,0.0,0.0,0.0,0.0,0.0,0.0,0.0,0.0,0.0,0.0,0.0,0.0,0.0,0.0,0.0,0.0,0.0,0.0,0.0,0.0,0.0,0.0,0.0,0.0,0.0,0.0,0.0,0.0,0.0,0.0,0.0,0.0,0.0,0.0,0.0,0.0,0.0,0.0,0.0,0.0,0.0,0.0,0.0,0.0,0.0,0.0,0.0,0.0,-3.735,-3.9672,-4.2188,-4.3954,-4.4637,-4.4643,-4.2781,-3.8446,0.0,0.0,0.0,0.0,0.0,0.0,0.0,0.0,0.0,0.0,0.0,0.0,0.0,0.0,0.0,0.0,0.0,0.0,0.0,0.0,0.0,0.0,0.0,0.0,0.0,0.0,0.0,0.0,0.0,0.0,0.0,0.0,0.0,0.0,0.0,0.0,0.0,0.0,0.0,0.0,0.0,0.0,0.0,0.0,0.0,0.0,0.0,0.0,0.0,0.0,0.0,0.0,0.0,0.0,0.0,0.0,0.0,0.0,0.0,0.0,0.0,0.0,0.0,0.0,0.0,0.0,0.0,0.0,0.0,0.0,0.0,0.0,0.0,0.0,0.0,0.0,0.0,0.0,0.0,0.0,0.0,0.0,0.0,0.0,0.0,0.0,0.0,0.0,0.0,0.0,0.0,0.0,0.0,0.0,0.0,0.0,0.0,0.0,0.0,0.0,0.0,0.0,0.0,0.0,-3.6397,-4.1262,-4.3425,-4.4536,-4.4602,-4.4705,-4.3091,-3.9176,0.0,0.0,0.0,0.0,0.0,0.0,0.0,0.0,0.0,0.0,0.0,0.0,0.0,0.0,0.0,0.0,0.0,0.0,0.0,0.0,0.0,0.0,0.0,0.0,0.0,0.0,0.0,0.0,0.0,0.0,0.0,0.0,0.0,0.0,0.0,0.0,0.0,0.0,0.0,0.0,0.0,0.0,0.0,0.0,0.0,0.0,0.0,0.0,0.0,0.0,0.0,0.0,0.0,0.0,0.0,0.0,0.0,0.0,0.0,0.0,0.0,0.0,0.0,0.0,0.0,0.0,0.0,0.0,0.0,0.0,0.0,0.0,0.0,0.0,0.0,0.0,0.0,0.0,0.0,0.0,0.0,0.0,0.0,0.0,0.0,0.0,0.0,0.0,0.0,0.0,0.0,0.0,0.0,0.0,0.0,0.0,0.0,0.0,0.0,0.0,0.0,0.0,0.0,-3.5428,-3.7691,-4.0974,-4.2549,-4.3533,-4.4018,-4.4482,-4.3135,-3.9345,-3.8116,0.0,0.0,0.0,0.0,0.0,0.0,0.0,0.0,0.0,0.0,0.0,0.0,0.0,0.0,0.0,0.0,0.0,0.0,0.0,0.0,0.0,0.0,0.0,0.0,0.0,0.0,0.0,0.0,0.0,0.0,0.0,0.0,0.0,0.0,0.0,0.0,0.0,0.0,0.0,0.0,0.0,0.0,0.0,0.0,0.0,0.0,0.0,0.0,0.0,0.0,0.0,0.0,0.0,0.0,0.0,0.0,0.0,0.0,0.0,0.0,0.0,0.0,0.0,0.0,0.0,0.0,0.0,0.0,0.0,0.0,0.0,0.0,0.0,0.0,0.0,0.0,0.0,0.0,0.0,0.0,0.0,0.0,0.0,0.0,0.0,0.0,0.0,0.0,0.0,0.0,0.0,0.0,0.0,0.0,0.0,0.0,0.0,0.0,0.0,0.0,0.0,0.0,-3.7486,-3.9382,-4.0486,-4.15,-4.248,-4.3476,-4.3847,-4.2597,-3.9252,-3.7456,0.0,0.0,0.0,0.0,0.0,0.0,0.0,0.0,0.0,0.0,0.0,0.0,0.0,0.0,0.0,0.0,0.0,0.0,0.0,0.0,0.0,0.0,0.0,0.0,0.0,0.0,0.0,0.0,0.0,0.0,0.0,0.0,0.0,0.0,0.0,0.0,0.0,0.0,0.0,0.0,0.0,0.0,0.0,0.0,0.0,0.0,0.0,0.0,0.0,0.0,0.0,0.0,0.0,0.0,0.0,0.0,0.0,0.0,0.0,0.0,0.0,0.0,0.0,0.0,0.0,0.0,0.0,0.0,0.0,0.0,0.0,0.0,0.0,0.0,0.0,0.0,0.0,0.0,0.0,0.0,0.0,0.0,0.0,0.0,0.0,0.0,0.0,0.0,0.0,0.0,0.0,0.0,0.0,0.0,0.0,0.0,0.0,0.0,0.0,0.0,0.0,0.0,-3.7766,-4.056,-4.0602,-4.1276,-4.2191,-4.3324,-4.2557,-4.1114,-3.9028,-3.6147,0.0,0.0,0.0,0.0,0.0,0.0,0.0,0.0,0.0,0.0,0.0,0.0,0.0,0.0,0.0,0.0,0.0,0.0,0.0,0.0,0.0,0.0,0.0,0.0,0.0,0.0,0.0,0.0,0.0,0.0,0.0,0.0,0.0,0.0,0.0,0.0,0.0,0.0,0.0,0.0,0.0,0.0,0.0,0.0,0.0,0.0,0.0,0.0,0.0,0.0,0.0,0.0,0.0,0.0,0.0,0.0,0.0,0.0,0.0,0.0,0.0,0.0,0.0,0.0,0.0,0.0,0.0,0.0,0.0,0.0,0.0,0.0,0.0,0.0,0.0,0.0,0.0,0.0,0.0,0.0,0.0,0.0,0.0,0.0,0.0,0.0,0.0,0.0,0.0,0.0,0.0,0.0,0.0,0.0,0.0,0.0,0.0,0.0,0.0,0.0,0.0,0.0,-3.627,-3.8852,-3.9929,-4.142,-4.2505,-4.2993,-4.3497,-4.256,-3.964,0.0,0.0,0.0,0.0,0.0,0.0,0.0,0.0,0.0,0.0,0.0,0.0,0.0,0.0,0.0,0.0,0.0,0.0,0.0,0.0,0.0,0.0,0.0,0.0,0.0,0.0,0.0,0.0,0.0,0.0,0.0,0.0,0.0,0.0,0.0,0.0,0.0,0.0,0.0,0.0,0.0,0.0,0.0,0.0,0.0,0.0,0.0,0.0,0.0,0.0,0.0,0.0,0.0,0.0,0.0,0.0,0.0,0.0,0.0,0.0,0.0,0.0,0.0,0.0,0.0,0.0,0.0,0.0,0.0,0.0,0.0,0.0,0.0,0.0,0.0,0.0,0.0,0.0,0.0,0.0,0.0,0.0,0.0,0.0,0.0,0.0,0.0,0.0,0.0,0.0,0.0,0.0,0.0,0.0,0.0,0.0,0.0,0.0,0.0,0.0,0.0,0.0,-3.2505,-3.5475,-3.8044,0.0,-4.0916,-4.2068,-4.2985,-4.2905,-4.1751,-3.9301,0.0,0.0,0.0,0.0,0.0,0.0,0.0,0.0,0.0,0.0,0.0,0.0,0.0,0.0,0.0,0.0,0.0,0.0,0.0,0.0,0.0,0.0,0.0,0.0,0.0,0.0,0.0,0.0,0.0,0.0,0.0,0.0,0.0,0.0,0.0,0.0,0.0,0.0,0.0,0.0,0.0,0.0,0.0,0.0,0.0,0.0,0.0,0.0,0.0,0.0,0.0,0.0,0.0,0.0,0.0,0.0,0.0,0.0,0.0,0.0,0.0,0.0,0.0,0.0,0.0,0.0,0.0,0.0,0.0,0.0,0.0,0.0,0.0,0.0,0.0,0.0,0.0,0.0,0.0,0.0,0.0,0.0,0.0,0.0,0.0,0.0,0.0,0.0,0.0,0.0,0.0,0.0,0.0,0.0,0.0,0.0,0.0,0.0,0.0,0.0,0.0,0.0,-3.2143,-3.5705,-3.8611,-3.9754,-3.9657,-4.0611,-4.3342,-4.0233,-3.8028,0.0,0.0,0.0,0.0,0.0,0.0,0.0,0.0,0.0,0.0,0.0,0.0,0.0,0.0,0.0,0.0,0.0,0.0,0.0,0.0,0.0,0.0,0.0,0.0,0.0,0.0,0.0,0.0,0.0,0.0,0.0,0.0,0.0,0.0,0.0,0.0,0.0,0.0,0.0,0.0,0.0,0.0,0.0,0.0,0.0,0.0,0.0,0.0,0.0,0.0,0.0,0.0,0.0,0.0,0.0,0.0,0.0,0.0,0.0,0.0,0.0,0.0,0.0,0.0,0.0,0.0,0.0,0.0,0.0,0.0,0.0,0.0,0.0,0.0,0.0,0.0,0.0,0.0,0.0,0.0,0.0,0.0,0.0,0.0,0.0,0.0,0.0,0.0,0.0,0.0,0.0,0.0,0.0,0.0,0.0,0.0,0.0,0.0,0.0,0.0,0.0,0.0,0.0,-3.2312,-3.4971,-3.7065,-3.7898,-3.9107,-4.0178,-4.1001,-4.1112,-4.0104,-3.7718,0.0,0.0,0.0,0.0,0.0,0.0,0.0,0.0,0.0,0.0,0.0,0.0,0.0,0.0,0.0,0.0,0.0,0.0,0.0,0.0,0.0,0.0,0.0,0.0,0.0,0.0,0.0,0.0,0.0,0.0,0.0,0.0,0.0,0.0,0.0,0.0,0.0,0.0,0.0,0.0,0.0,0.0,0.0,0.0,0.0,0.0,0.0,0.0,0.0,0.0,0.0,0.0,0.0,0.0,0.0,0.0,0.0,0.0,0.0,0.0,0.0,0.0,0.0,0.0,0.0,0.0,0.0,0.0,0.0,0.0,0.0,0.0,0.0,0.0,0.0,0.0,0.0,0.0,0.0,0.0,0.0,0.0,0.0,0.0,0.0,0.0,0.0,0.0,0.0,0.0,0.0,0.0,0.0,0.0,0.0,0.0,0.0,0.0,0.0,0.0,0.0,0.0,-3.2428,-3.447,-3.6262,-3.7657,-3.869,-3.9525,-4.0189,-4.0733,-3.9775,-3.68,0.0,0.0,0.0,0.0,0.0,0.0,0.0,0.0,0.0,0.0,0.0,0.0,0.0,0.0,0.0,0.0,0.0,0.0,0.0,0.0,0.0,0.0,0.0,0.0,0.0,0.0,0.0,0.0,0.0,0.0,0.0,0.0,0.0,0.0,0.0,0.0,0.0,0.0,0.0,0.0,0.0,0.0,0.0,0.0,0.0,0.0,0.0,0.0,0.0,0.0,0.0,0.0,0.0,0.0,0.0,0.0,0.0,0.0,0.0,0.0,0.0,0.0,0.0,0.0,0.0,0.0,0.0,0.0,0.0,0.0,0.0,0.0,0.0,0.0,0.0,0.0,0.0,0.0,0.0,0.0,0.0,0.0,0.0,0.0,0.0,0.0,0.0,0.0,0.0,0.0,0.0,0.0,0.0,0.0,0.0,0.0,0.0,0.0,0.0,0.0,0.0,0.0,-3.2471,-3.4112,-3.5881,-3.8035,-3.8066,-3.8482,-3.9933,-3.9332,-3.7822,-3.5351,0.0,0.0,0.0,0.0,0.0,0.0,0.0,0.0,0.0,0.0,0.0,0.0,0.0,0.0,0.0,0.0,0.0,0.0,0.0,0.0,0.0,0.0,0.0,0.0,0.0,0.0,0.0,0.0,0.0,0.0,0.0,0.0,0.0,0.0,0.0,0.0,0.0,0.0,0.0,0.0,0.0,0.0,0.0,0.0,0.0,0.0,0.0,0.0,0.0,0.0,0.0,0.0,0.0,0.0,0.0,0.0,0.0,0.0,0.0,0.0,-3.8855,-3.746,0.0,0.0,0.0,0.0,0.0,0.0,0.0,0.0,0.0,0.0,0.0,0.0,0.0,0.0,0.0,0.0,0.0,0.0,0.0,0.0,0.0,0.0,0.0,0.0,0.0,0.0,0.0,0.0,0.0,0.0,0.0,0.0,0.0,0.0,0.0,0.0,0.0,0.0,0.0,0.0,-3.2618,-3.3588,-3.4345,-3.5007,-3.5497,-3.5811,-3.5959,-3.7202,-3.697,-3.4587,-3.3254,0.0,0.0,0.0,0.0,0.0,0.0,0.0,0.0,0.0,0.0,0.0,0.0,0.0,0.0,0.0,0.0,0.0,0.0,0.0,0.0,0.0,0.0,0.0,0.0,0.0,0.0,0.0,0.0,0.0,0.0,0.0,0.0,0.0,0.0,0.0,0.0,0.0,0.0,0.0,0.0,0.0,0.0,0.0,0.0,0.0,0.0,0.0,0.0,0.0,0.0,0.0,0.0,0.0,0.0,0.0,0.0,0.0,0.0,0.0,-3.8851,-3.8472,0.0,0.0,0.0,0.0,0.0,0.0,0.0,0.0,0.0,0.0,0.0,0.0,0.0,0.0,0.0,0.0,0.0,0.0,0.0,0.0,0.0,0.0,0.0,0.0,0.0,0.0,0.0,0.0,0.0,0.0,0.0,0.0,0.0,0.0,0.0,0.0,0.0,0.0,0.0,0.0,-3.2408,-3.3042,-3.3541,-3.4092,-3.4706,-3.5021,-3.494,-3.6458,-3.6589,-3.4617,-3.3433,0.0,0.0,0.0,0.0,0.0,0.0,0.0,0.0,0.0,0.0,0.0,0.0,0.0,0.0,0.0,0.0,0.0,0.0,0.0,0.0,0.0,0.0,0.0,0.0,0.0,0.0,0.0,0.0,0.0,0.0,0.0,0.0,0.0,0.0,0.0,0.0,0.0,0.0,0.0,0.0,0.0,0.0,0.0,0.0,0.0,0.0,0.0,0.0,0.0,0.0,0.0,0.0,0.0,-3.5982,-3.6213,-3.6735,-3.6703,-3.6747,-3.6962,-3.7958,-3.9122,-4.0126,-3.8211,0.0,0.0,0.0,0.0,0.0,0.0,0.0,0.0,0.0,0.0,0.0,0.0,0.0,0.0,0.0,0.0,0.0,0.0,0.0,0.0,0.0,0.0,0.0,0.0,-3.0834,-3.0739,-2.9026,0.0,0.0,0.0,0.0,0.0,0.0,0.0,0.0,0.0,0.0,0.0,-3.1588,-3.1913,-3.2299,-3.3181,-3.3586,-3.3898,-3.4149,-3.5467,-3.5717,-3.4498,-3.3529,-3.1983,0.0,0.0,0.0,0.0,0.0,0.0,0.0,0.0,0.0,0.0,0.0,0.0,0.0,0.0,0.0,0.0,0.0,0.0,0.0,0.0,0.0,0.0,0.0,0.0,0.0,0.0,0.0,0.0,0.0,0.0,0.0,0.0,-3.5036,-3.5366,0.0,0.0,0.0,0.0,0.0,0.0,0.0,0.0,0.0,0.0,0.0,0.0,0.0,-3.1422,-3.1945,-3.2687,-3.32,-3.3634,-3.538,-3.5816,-3.5064,-3.5689,-3.5881,-3.5741,-3.6121,0.0,-3.8239,-3.854,0.0,0.0,0.0,0.0,0.0,0.0,0.0,0.0,0.0,0.0,0.0,0.0,0.0,0.0,0.0,0.0,0.0,0.0,0.0,0.0,0.0,0.0,-2.7433,-2.6973,-2.6843,-2.7006,0.0,-2.8762,-2.9736,-2.9998,-2.8697,0.0,0.0,0.0,0.0,0.0,0.0,0.0,-2.9494,-2.9031,-2.8885,-2.9529,-2.9245,-2.931,-3.0031,-3.1797,-3.2859,-3.2884,-3.3153,-3.2826,-3.1679,-2.9804,0.0,0.0,0.0,0.0,0.0,0.0,0.0,0.0,0.0,0.0,0.0,0.0,0.0,0.0,0.0,0.0,0.0,0.0,0.0,0.0,0.0,0.0,0.0,0.0,0.0,0.0,0.0,0.0,0.0,-3.2141,-3.3388,-3.1321,-3.2357,-3.192,0.0,0.0,0.0,0.0,0.0,0.0,0.0,0.0,0.0,-3.0853,-3.1055,-3.1158,-3.1207,-3.183,-3.2569,-3.3399,-3.4632,-3.4984,-3.4552,-3.5275,-3.5441,-3.5116,-3.4677,-3.528,-3.6452,-3.5765,-3.4342,-3.2485,0.0,0.0,0.0,0.0,-2.8962,-2.9267,-2.9704,-2.9519,-2.9078,-2.8602,0.0,0.0,0.0,0.0,0.0,0.0,0.0,-2.5979,0.0,0.0,-2.5903,-2.563,-2.5817,-2.6031,-2.6069,-2.6657,-2.7474,0.0,-2.8527,-2.8149,-2.7348,0.0,0.0,0.0,0.0,-2.7295,-2.7927,-2.7928,-2.7859,-2.7877,-2.8216,-2.8555,-2.888,-3.0034,-3.0853,-3.1085,-3.1012,-3.0566,-2.9613,-2.8427,-2.6925,0.0,0.0,0.0,0.0,0.0,0.0,0.0,0.0,0.0,0.0,0.0,0.0,0.0,0.0,0.0,0.0,0.0,0.0,0.0,0.0,0.0,0.0,0.0,0.0,0.0,0.0,0.0,0.0,-3.0869,-3.1436,-2.8578,-3.0527,-3.0454,0.0,0.0,0.0,0.0,0.0,0.0,-2.9387,-3.0268,-3.0484,-2.9826,-3.0512,-3.0625,-3.019,-3.0426,-3.1072,-3.2141,-3.2572,-3.2811,-3.2975,-3.3371,-3.3299,-3.2883,-3.2232,-3.2401,-3.2995,-3.297,-3.2432,-3.1453,-2.9907,-2.8663,-2.7842,-2.7932,-2.7471,-2.7022,-2.8176,-2.8236,-2.7723,-2.7112,-2.6603,-2.5976,-2.4451,0.0,0.0,0.0,0.0,-2.421,-2.4552,-2.4372,-2.4002,-2.372,-2.4251,-2.4627,-2.3817,-2.4051,-2.4926,0.0,-2.7611,-2.7591,-2.637,0.0,0.0,0.0,0.0,-2.5791,-2.6055,-2.6574,-2.6777,-2.6557,-2.728,-2.7807,-2.7894,-2.8806,-2.9469,-2.9669,-2.9583,-2.9107,-2.8212,-2.7656,-2.651,-2.483,0.0,0.0,0.0,0.0,0.0,0.0,0.0,0.0,0.0,0.0,0.0,0.0,0.0,0.0,0.0,0.0,0.0,0.0,0.0,0.0,0.0,0.0,0.0,0.0,0.0,0.0,0.0,0.0,0.0,-3.074,-3.1176,0.0,0.0,0.0,0.0,-2.5959,-2.6483,-2.7017,-2.7347,-2.8378,-2.876,-2.8435,-2.8683,-2.8576,-2.794,-2.7837,-2.7925,-2.8089,-2.8446,-2.8724,-2.8975,-2.8724,-2.8266,-2.76,-2.7942,-2.7407,-2.6674,-3.1334,-3.3173,-3.2878,-3.1864,-3.0279,-2.8524,-2.739,-2.6161,-2.5,-2.4896,-2.4617,-2.4404,-2.4715,-2.371,-2.2168,-2.1626,-2.0952,0.0,0.0,-2.0784,-2.0505,-2.0662,-2.0895,-2.0878,-1.9911,-2.0713,-2.1444,-2.0482,-2.1421,-2.3302,0.0,-2.5603,-2.4914,-2.5867,0.0,-2.3345,-2.284,-2.326,-2.3582,-2.3422,-2.4143,-2.4725,-2.4905,-2.5145,-2.5503,-2.5985,-2.7713,-2.8815,-2.9041,-3.0046,-3.0294,-2.9555,-2.8868,-2.7949,-2.6684,-2.5393,0.0,0.0,0.0,0.0,0.0,0.0,0.0,0.0,0.0,0.0,0.0,0.0,0.0,0.0,0.0,0.0,0.0,0.0,0.0,0.0,0.0,0.0,0.0,0.0,0.0,0.0,0.0,0.0,-2.6817,-2.8124,0.0,-2.3505,-2.3794,-2.4211,-2.4153,-2.4783,-2.5332,-2.5496,-2.6281,-2.6445,-2.5802,-2.5937,-2.5754,-2.5281,-2.5093,-2.503,-2.5083,-2.5683,-2.6049,-2.6104,-2.6095,-2.5873,-2.566,-2.543,-2.5069,-2.4773,-2.6326,-2.722,-2.7561,-2.6964,-2.5849,-2.4559,-2.3973,-2.3424,-2.3031,-2.2927,-2.276,-2.2409,-2.2137,-2.1249,-2.0327,-2.0319,-1.9827,-1.9375,-1.9765,-1.9368,-1.8878,-1.9288,-1.8933,-1.8426,-1.804,-1.8113,-1.8195,-1.7885,-1.848,-1.9565,-2.1309,-2.293,-2.3941,-2.3654,-2.3172,-2.2512,-2.167,-2.1578,-2.1521,-2.1475,-2.1966,-2.2298,-2.228,-2.2432,-2.2728,-2.3202,-2.3508,-2.3962,-2.4655,-2.4722,-2.4827,-2.5093,-2.4791,-2.4309,-2.3675,-2.2584,-2.1579,0.0,0.0,0.0,0.0,0.0,0.0,0.0,0.0,0.0,0.0,0.0,0.0,0.0,0.0,0.0,0.0,0.0,0.0,0.0,0.0,0.0,0.0,0.0,0.0,0.0,-2.6642,-2.6832,-2.4132,-2.5692,-2.5456,-2.1437,-2.2105,-2.284,-2.2901,-2.3403,-2.3769,-2.3903,-2.4538,-2.4473,-2.3643,-2.3861,-2.3676,-2.2976,-2.2912,-2.2849,-2.2779,-2.3259,-2.3627,-2.3866,-2.3686,-2.342,-2.3087,-2.2874,-2.2407,-2.1946,-2.2039,-2.227,-2.2602,-2.3629,-2.3348,-2.237,-2.222,-2.1697,-2.1101,-2.0881,-2.0725,-2.0439,-1.9847,-1.9131,-1.8534,-1.847,-1.8001,-1.7573,-1.8223,-1.7804,-1.7293,-1.8052,-1.7669,-1.7044,-1.66,-1.6632,-1.668,-1.6386,-1.6709,-1.7228,-1.7811,-2.0354,-2.2171,-2.1543,-2.131,-2.0941,-2.0383,-2.0112,-2.0082,-2.0438,-2.1084,-2.1459,-2.1286,-2.1592,-2.1814,-2.1849,-2.194,-2.2048,-2.2296,-2.2227,-2.2306,-2.26,-2.24,-2.2289,-2.2366,-2.1069,-2.032,-2.023,0.0,0.0,0.0,0.0,0.0,0.0,0.0,0.0,0.0,0.0,0.0,0.0,0.0,0.0,0.0,0.0,0.0,0.0,0.0,0.0,0.0,0.0,0.0,-2.2261,-2.2709,-2.3073,-2.3231,-2.417,-2.4022,-2.2096,-2.2817,-2.305,-2.2252,-2.2254,-2.2282,-2.2353,-2.2926,-2.2885,-2.2013,-2.2582,-2.2334,-2.1032,-2.1328,-2.1328,-2.1012,-2.1031,-2.1437,-2.2036,-2.1481,-2.0664,-1.975,-2.0053,-1.9286,-1.7931,-1.8907,-1.8851,-1.8621,-2.2371,-2.3182,-2.2259,-2.2238,-2.0991,-1.9225,-1.8644,-1.8437,-1.8337,-1.7822,-1.7252,-1.6668,-1.6069,-1.5342,-1.4937,-1.6041,-1.5836,-1.5611,-1.6718,-1.6927,-1.6615,-1.5622,-1.6285,-1.6904,-1.592,-1.6157,-1.6437,-1.6162,-1.7903,-1.9459,-1.9637,-1.895,-1.8453,-1.8747,-1.877,0.0,-2.0197,-2.1397,-2.2072,-2.1897,-2.2586,-2.2758,-2.2014,-2.3113,-2.3367,-2.2268,-2.3048,-2.3219,-2.2486,-2.206,-2.2237,-2.306,-2.1155,-1.9826,-1.9184,0.0,0.0,0.0,0.0,0.0,0.0,0.0,0.0,0.0,0.0,0.0,0.0,0.0,0.0,0.0,0.0,0.0,0.0,0.0,0.0,0.0,-1.9702,-2.0607,-2.2898,-2.3317,-2.3158,-2.2678,-2.2143,-2.1299,-2.0167,-2.0041,-1.982,-1.9172,-1.9537,-1.9436,-1.853,-1.9078,-1.9417,-1.9409,-1.9339,-1.928,-1.9143,-1.8829,-1.8612,-1.8477,-1.8536,-1.8718,-1.8956,-1.8612,-1.8215,-1.7642,-1.715,-1.6722,-1.6313,-1.661,-1.6599,-1.6646,-1.9011,-1.9585,-1.9114,-1.8711,-1.8064,-1.7366,-1.7005,-1.675,-1.6532,-1.6243,-1.5838,-1.555,-1.5352,-1.5024,-1.4773,-1.5066,-1.4624,-1.4171,-1.4883,-1.4779,-1.4442,-1.4334,-1.4567,-1.4663,-1.3992,-1.4268,-1.4516,-1.4133,-1.4817,-1.575,-1.6469,-1.6075,-1.5749,-1.5983,-1.619,0.0,-1.6739,-1.7677,-1.8545,-1.9122,-1.9254,-1.9672,-2.0698,-2.0382,-2.0139,-2.0141,-1.9836,-1.9662,-1.9638,-1.8976,-1.8396,-1.7959,-1.8423,-1.7911,0.0,0.0,0.0,0.0,0.0,0.0,0.0,0.0,0.0,0.0,0.0,0.0,0.0,0.0,0.0,0.0,0.0,0.0,0.0,0.0,0.0,0.0,-1.8021,-1.8404,-2.1314,-2.152,-2.1343,-2.1189,-2.0529,-1.982,-1.9183,-1.8841,-1.8494,-1.8111,-1.8283,-1.8116,-1.7429,-1.7555,-1.7911,-1.8446,-1.8315,-1.8321,-1.8711,-1.8377,-1.8045,-1.7717,-1.7679,-1.7695,-1.7746,-1.7539,-1.6993,-1.6122,-1.5671,-1.5083,-1.4437,-1.4437,-1.4555,0.0,0.0,0.0,0.0,0.0,-1.601,-1.5077,-1.5332,-1.5237,-1.4983,-1.4729,-1.4742,-1.492,-1.4805,-1.4666,-1.4539,-1.4539,-1.4182,-1.3919,-1.4202,-1.416,-1.3968,-1.3763,-1.3902,-1.3824,-1.3039,-1.3011,-1.3,-1.2411,-1.238,0.0,-1.3175,-1.3849,-1.4386,-1.4631,-1.4825,-1.5148,-1.5582,-1.6151,-1.67,-1.7308,-1.7441,-1.7838,-1.8759,-1.8318,0.0,0.0,0.0,-1.7471,-1.7447,-1.7331,0.0,0.0,0.0,-1.6865,-1.5234,0.0,0.0,0.0,-1.7029,-1.7439,0.0,0.0,0.0,0.0,0.0,0.0,0.0,0.0,0.0,0.0,0.0,0.0,0.0,0.0,0.0,0.0,-1.632,-1.5762,-1.8285,-1.8293,-1.8444,-1.9326,-1.9301,-1.9113,-1.8719,-1.8475,-1.8243,-1.8089,-1.7934,-1.7747,-1.7719,-1.7395,0.0,0.0,0.0,-1.8676,-1.8944,-1.888,-1.8553,-1.7899,-1.7525,-1.7409,-1.7453,-1.7184,-1.6284,-1.4911,-1.4821,-1.3984,-1.2684,-1.2689,-1.2933,-1.3481,-1.573,-1.6416,-1.6096,-1.5909,-1.4503,-1.288,-1.371,0.0,0.0,-1.3275,-1.3707,-1.4274,-1.4026,-1.4052,-1.41,-1.41,-1.4196,-1.425,-1.4346,-1.4442,-1.4346,-1.3661,-1.3806,-1.3736,-1.252,-1.2099,-1.1687,-1.0965,-1.0473,-1.0143,-1.0115,-1.2044,-1.3664,-1.3902,-1.4154,-1.4636,-1.5598,-1.5782,-1.5974,-1.6264,0.0,0.0,-1.6834,-1.6893,-1.6881,-1.6724,-1.6469,-1.6157,-1.5722,-1.6526,-1.6735,-1.6127,-1.6509,-1.6133,-1.4948,-1.5122,-1.4451,-1.3163,-1.5739,-1.6465,0.0,0.0,0.0,0.0,0.0,0.0,0.0,0.0,0.0,0.0,0.0,0.0,0.0,0.0,0.0,-1.4018,-1.3649,-1.3892,-1.5519,-1.5658,-1.6546,-1.9269,-1.8829,-1.8247,-1.8182,-1.7812,-1.7385,-1.6901,-1.6952,-1.6815,-1.6371,-1.6301,-1.66,-1.7265,-1.784,-1.8168,-1.8226,-1.77,-1.7313,-1.719,-1.5625,0.0,-1.5339,-1.4701,-1.4147,-1.355,-1.3136,-1.2768,-1.2478,-1.2713,-1.3104,-1.3646,-1.3947,-1.3945,-1.3642,-1.3494,-1.3036,-1.25,-1.2554,-1.2393,-1.2179,-1.201,-1.19,-1.1864,-1.1819,-1.2387,0.0,-1.3022,-1.3474,-1.407,-1.4496,-1.4004,-1.3414,-1.3511,-1.3071,-1.2373,-1.1149,-1.0868,-1.0514,-0.9431,-0.9178,-0.9078,-0.8945,-1.041,-1.1629,-1.1832,-1.2863,-1.3688,-1.3886,-1.453,-1.5112,-1.5565,-1.5659,-1.6045,-1.6889,-1.6635,-1.6373,-1.6156,-1.539,-1.4581,-1.3935,-1.5072,-1.4905,-1.3179,-1.423,-1.4163,-1.2881,-1.3107,-1.3176,-1.3105,-1.4079,-1.4047,0.0,0.0,0.0,0.0,0.0,0.0,0.0,0.0,0.0,0.0,0.0,-1.3908,-1.3045,0.0,-1.2286,-1.2948,-1.2338,-1.2368,-1.3905,-1.4254,-1.5368,-1.7963,-1.8098,-1.7647,-1.6802,-1.6713,-1.6282,-1.5257,-1.5082,-1.4894,-1.4399,-1.4259,-1.4446,-1.5149,-1.5435,-1.5702,-1.6087,-1.6038,-1.5927,-1.5684,-1.497,-1.4693,-1.4878,-1.4234,-1.343,-1.2655,-1.2252,-1.1624,-1.1008,-1.1094,-1.1286,-1.1531,-1.1437,-1.169,-1.217,-1.2579,-1.1791,-1.0638,-1.1136,-1.1176,-1.0961,-1.0762,-1.1042,-1.137,-1.1219,-1.1901,-1.2678,-1.2678,-1.3372,-1.4118,-1.4118,-1.3721,-1.3151,-1.2544,-1.2182,-1.1617,-1.0268,-1.0111,-0.9929,-0.9008,-0.8868,-0.8795,-0.8624,-0.9559,-1.0424,-1.0766,-1.2015,-1.2881,-1.2881,-1.3385,-1.3861,-1.4226,-1.4239,-1.4525,-1.5189,-1.5035,-1.4754,-1.4383,-1.402,-1.3548,-1.3058,-1.3705,-1.358,-1.2518,-1.3305,-1.3311,-1.2506,-1.2293,-1.2203,-1.222,-1.2141,-1.2406,0.0,0.0,0.0,0.0,0.0,0.0,0.0,-1.4999,-1.42,-1.3833,-1.2872,-1.2103,-1.2318,-1.1243,-1.0795,-1.2066,-1.1171,-1.0895,-1.273,-1.3267,-1.4175,-1.6221,-1.6964,-1.6732,-1.5243,-1.5434,-1.5108,-1.3875,-1.3411,-1.3079,-1.2812,-1.2487,-1.2606,-1.3177,-1.3164,-1.341,-1.3915,-1.4096,-1.4071,-1.3905,-1.3905,-1.3977,-1.4236,-1.3644,-1.2826,-1.1812,-1.1475,-1.067,-0.9598,-0.9445,-0.9381,-0.9381,-0.9381,-0.9972,-1.0935,-1.1671,-1.0592,-0.8915,-0.9918,-1.0123,-0.9926,-0.9637,-1.0174,-1.093,-1.0685,-1.1268,-1.2145,-1.2339,-1.3119,-1.3811,-1.3539,-1.3147,-1.2506,-1.1307,-1.0905,-1.0452,-0.9217,-0.9121,-0.9086,-0.8548,-0.8556,-0.8644,-0.8472,-0.917,-0.9864,-1.0294,-1.1456,-1.232,-1.2448,-1.2619,-1.2789,-1.3019,-1.2999,-1.3127,-1.3338,-1.3357,-1.3169,-1.2735,-1.2916,-1.2853,-1.2454,-1.2667,-1.2588,-1.2137,-1.2578,-1.2604,-1.2111,-1.162,-1.1194,-1.0937,-1.0377,-1.1079,-1.6064,-1.5209,-1.4283,-1.3785,-1.2796,-1.2158,0.0,-1.2732,-1.2155,-1.1274,-1.1156,-1.0623,-0.8976,-0.8659,-0.8767,-0.9045,-0.8926,-0.9576,-1.1607,-1.1941,-1.2604,-1.4322,-1.466,-1.4581,-1.4137,-1.4137,-1.394,-1.3411,-1.3079,-1.2812,-1.28,-1.2479,-1.2479,-1.2861,-1.3156,-1.3139,-1.2943,-1.1725,-1.146,-1.2246,-1.0542,-1.0408,-1.153,-1.0985,-1.0664,-1.0479,-1.0046,-0.9744,-0.9598,-0.9445,-0.9381,-0.9381,-0.9381,-0.9332,-0.9206,-0.9536,-0.941,-0.9098,-0.9231,-0.9261,-0.9154,-0.8703,-0.8641,-0.8726,-0.8432,-0.9118,-1.0145,-1.1121,-1.1809,-1.2446,-1.3292,-1.1965,-1.0337,-1.0168,-0.887,-0.7516,-0.7167,-0.7085,-0.7005,-0.6723,-0.7353,-0.7921,-0.7881,-0.9196,-1.0294,-1.0549,-1.1241,-1.1972,-1.2577,-1.2705,-1.2717,-1.2747,-1.2753,-1.2765,-1.2789,-1.2795,-1.2771,-1.2705,-1.2735,-1.2349,-1.1499,-1.2505,-1.2161,-1.0231,-1.1284,-1.1282,-1.0043,-1.0077,-0.997,-0.9681,-0.9424,-0.9655,-1.4564,-1.3272,-1.2117,-1.164,-1.1102,-1.0933,-1.1563,-1.1559,-1.1125,-1.0225,-0.9795,-0.9315,-0.8312,-0.8352,-0.8532,-0.8581,-0.8587,-0.8984,-1.0035,-1.0167,-1.0508,-1.1336,-1.1595,-1.1991,-1.2812,-1.289,-1.2557,-1.1571,-1.0972,-1.0634,-1.0631,-1.0306,-1.0003,-0.9655,-0.9763,-0.9613,-0.9215,-0.889,-0.9324,-1.0391,-0.9783,-1.0097,-1.1199,-1.0762,-1.0439,-1.0169,-0.9832,-0.9658,-0.9626,-0.9559,-0.9539,-0.9638,-0.9731,-0.9518,-0.9247,-0.9123,-0.878,-0.8428,-0.8405,-0.8302,-0.8166,-0.7802,-0.7783,-0.7882,-0.7637,-0.8524,-0.9657,-0.9948,-1.0877,-1.176,-1.1717,-1.0734,-0.9678,-0.9231,-0.8261,-0.7351,-0.7154,-0.7012,-0.6895,-0.6659,-0.6953,-0.7204,-0.7117,-0.8074,-0.8832,-0.8843,-1.0353,-1.1671,-1.2229,-1.2272,-1.2406,-1.2662,-1.2705,-1.2705,-1.2705,-1.2566,-1.2542,-1.2693,-1.2047,-1.1503,-1.1202,-1.1134,-1.09,-1.0367,-1.0412,-1.0371,-1.0269,-0.9313,-0.8809,-0.866,-0.7685,-0.7243,-1.3447,-1.2102,-1.0988,-1.013,-0.9819,-0.9796,-1.0058,-0.9957,-0.9715,-0.914,-0.8787,-0.852,-0.8256,-0.8523,-0.872,-0.872,-0.8626,-0.8684,-0.918,-0.9191,-0.9309,-0.9673,-0.9817,-1.0293,-1.1342,-1.1515,-1.1108,-0.9987,-0.9386,-0.905,-0.8984,-0.8488,-0.8038,-0.7566,-0.7071,-0.6726,-0.6465,-0.6673,-0.748,-0.883,-0.9105,-0.9819,-1.091,-1.0607,-1.0159,-0.9532,-0.9676,-0.9634,-0.949,-0.9546,-0.9648,-0.9783,-0.9958,-0.9802,-0.9463,-0.9114,-0.8687,-0.8201,-0.816,-0.8073,-0.7879,-0.7534,-0.7584,-0.7779,-0.7487,-0.818,-0.9069,-0.9167,-0.9899,-1.0534,-1.0243,-0.9604,-0.8882,-0.8178,-0.751,-0.6944,-0.6617,-0.6346,-0.6109,-0.5944,-0.6024,-0.6142,-0.615,-0.6921,-0.7581,-0.7605,-0.9219,-1.0631,-1.1154,-1.1359,-1.1666,-1.2229,-1.2314,-1.24,-1.2662,-1.253,-1.2499,-1.2693,-1.1612,-1.0915,-1.0758,-1.0058,-0.9663,-0.9649,-0.9316,-0.9301,-0.9546,-0.8357,-0.7716,-0.7579,-0.6359,-0.5593,-1.2152,-1.1412,-1.0506,-0.9273,-0.8669,-0.8214,-0.7624,-0.7573,-0.7584,-0.7591,-0.8123,-0.8587,-0.8587,-0.8851,-0.9117,-0.9117,-0.8689,-0.8727,-0.9576,-0.9432,-0.9519,-1.0223,-1.0293,-1.0159,-0.9825,-0.9761,-0.9591,-0.9183,-0.9117,-0.8984,-0.8653,-0.7888,-0.7566,-0.7888,-0.6489,-0.5925,-0.624,-0.5517,-0.5974,-0.7536,-0.7801,-0.8601,-0.9822,-0.9819,-0.9191,-0.8212,-0.903,-0.935,-0.9207,-0.949,-0.9596,-0.9652,-0.9995,-0.9909,-0.9548,-0.9346,-0.9179,-0.9056,-0.8838,-0.8779,-0.8676,-0.8137,-0.8137,-0.8333,-0.8038,-0.7842,-0.7892,-0.892,-0.8676,-0.8333,-0.9361,-0.8669,-0.7528,-0.6974,-0.6194,-0.5407,-0.4825,-0.4215,-0.3767,-0.369,-0.4071,-0.4512,-0.4956,-0.6074,-0.7112,-0.7633,-0.8037,-0.8517,-0.9218,-0.9701,-1.0318,-1.1235,-1.1327,-1.1714,-1.2619,-1.2699,-1.2693,-1.2705,-1.1691,-1.0768,-0.9947,-0.9655,-0.8715,-0.7047,-0.7885,-0.7761,-0.6638,-0.6818,-0.674,-0.6355,-0.5909,-0.5301,-1.0658,-1.0289,-0.9955,-0.8564,-0.8018,-0.787,-0.8132,-0.803,-0.7905,-0.7764,-0.8532,-0.9159,-0.8814,-0.8863,-0.9084,-0.9365,-0.8448,-0.7997,-0.8839,-0.8455,-0.8312,-0.8951,-0.9142,-0.9157,-0.9201,-0.9321,-0.9296,-0.899,-0.8657,-0.8288,-0.7767,-0.7667,-0.7226,-0.6394,-0.592,-0.5625,-0.5691,-0.566,-0.6445,-0.8111,-0.9047,-0.9341,-0.9124,-0.8975,-0.8386,-0.7393,-0.7669,-0.7683,-0.7612,-0.847,-0.895,-0.921,-0.9823,-1.0027,-0.9962,-0.9582,-0.9208,-0.8853,-0.84,-0.8035,-0.7683,-0.7537,-0.7537,-0.7587,-0.7487,-0.764,-0.7892,-0.8088,-0.8187,-0.8283,-0.8482,-0.7534,-0.6487,-0.6289,-0.5312,-0.4325,-0.4104,-0.3853,-0.3617,-0.3592,-0.3719,-0.4021,-0.464,-0.555,-0.6419,-0.7025,-0.7919,-0.8708,-0.9259,-0.9657,-1.0101,-1.0593,-1.0636,-1.0674,-1.0832,-1.0697,-1.0634,-1.0826,-0.9734,-0.9018,-0.8867,-0.8213,-0.7569,-0.7026,-0.7126,-0.7011,-0.6698,-0.6546,-0.6288,-0.5834,-0.501,-0.4267,-1.0021,-0.9776,-0.9604,-0.8312,-0.7966,-0.7962,-0.8082,-0.7997,-0.7832,-0.7654,-0.8527,-0.9196,-0.8921,-0.8971,-0.9122,-0.9709,-0.8543,-0.784,-0.8629,-0.8157,-0.7969,-0.8541,-0.8702,-0.8841,0.0,0.0,-0.9191,-0.9116,-0.8666,-0.828,-0.785,-0.7742,-0.7243,-0.6365,-0.5892,-0.5722,-0.5728,-0.6213,-0.723,-0.8829,-0.968,-0.9543,-0.8623,-0.8423,-0.7734,-0.6767,-0.6837,-0.6876,-0.7107,-0.7989,-0.8663,-0.9213,-0.983,-1.0035,-0.9918,-0.959,-0.9022,-0.8482,-0.8137,-0.7789,-0.7487,-0.7391,-0.7388,-0.7487,-0.7487,-0.764,-0.7842,-0.7646,-0.7789,-0.7935,-0.7736,-0.6939,-0.6079,-0.5889,-0.4946,-0.4083,-0.3867,-0.3597,-0.3392,-0.3392,-0.3255,-0.3328,-0.3936,-0.4919,-0.5779,-0.628,-0.7369,-0.8229,-0.8494,-0.8967,-0.9429,-0.9967,-0.9901,-0.985,-1.0019,-0.9804,-0.9695,-0.987,-0.8798,-0.8219,-0.8365,-0.7426,-0.6836,-0.6788,-0.6765,-0.6652,-0.6429,-0.6407,-0.6113,-0.5559,-0.4657,-0.3853,-1.0117,-0.9748,-0.9425,-0.8363,-0.8402,-0.849,-0.7544,-0.7362,-0.7392,-0.7271,-0.8008,-0.8748,0.0,0.0,-0.931,-0.9983,-0.8793,-0.8019,-0.87,-0.8509,-0.8418,0.0,0.0,0.0,0.0,0.0,0.0,-0.9426,-0.9107,-0.8789,-0.8603,-0.7975,-0.7541,-0.7486,-0.6449,-0.6031,-0.6342,-0.7065,-0.8159,-0.9591,-0.9595,-0.916,-0.8317,-0.8087,-0.7382,-0.6355,-0.6363,-0.6812,-0.7546,-0.8019,-0.8747,-0.9518,-0.9912,-0.989,-0.9533,-0.9313,-0.8699,-0.7998,-0.7992,-0.7992,-0.7942,-0.7646,-0.7743,-0.7992,-0.7942,-0.7793,-0.7596,-0.7596,-0.7444,-0.7238,-0.7238,-0.6836,-0.6258,-0.5655,-0.5092,-0.4532,-0.3881,-0.3434,-0.3097,-0.3002,-0.2672,-0.2531,-0.2958,-0.4166,-0.5228,-0.557,-0.6486,-0.709,-0.6951,-0.761,-0.8473,-0.9358,-0.9101,-0.9209,-1.0077,-0.9932,-0.9749,-0.9749,-0.8803,-0.8275,-0.8404,-0.7328,-0.657,-0.6193,-0.6731,-0.662,-0.5789,-0.6277,-0.6172,-0.5569,-0.4745,-0.4053,-0.9968,-0.9505,-0.9143,-0.8579,-0.8082,-0.7761,-0.8036,-0.7697,-0.749,-0.8314,-0.8894,-0.9494,-1.0166,-0.9595,-0.9212,-0.9737,-0.8531,0.0,-0.7793,-0.7746,0.0,-0.7875,0.0,-0.8838,-0.9002,-0.9345,0.0,-1.0024,-0.9123,-0.8062,-0.7036,-0.7256,-0.6995,-0.6009,-0.5677,-0.5667,-0.6037,-0.7115,-0.8316,-0.9591,-0.949,-0.8836,-0.7666,-0.732,-0.6628,-0.5633,-0.5252,-0.5398,-0.6051,-0.72,-0.7927,-0.8378,-0.9359,-0.9567,-0.9302,-0.8609,-0.8275,-0.8133,-0.7575,-0.754,-0.7643,-0.7391,-0.749,-0.7643,-0.7487,-0.7494,-0.7596,-0.7596,-0.7693,-0.7789,-0.7789,-0.7235,-0.6523,-0.575,-0.4995,-0.421,-0.3461,-0.3178,-0.3097,-0.3097,-0.3277,-0.3552,-0.3649,-0.4347,-0.5157,-0.6082,-0.6758,-0.7285,-0.753,-0.8001,-0.8417,-0.8746,-0.8648,-0.8475,-0.8216,-0.8157,-0.8021,-0.7837,-0.7537,-0.7406,-0.7445,-0.7221,-0.6842,-0.6282,-0.6773,-0.6538,-0.5594,-0.61,-0.5997,-0.5263,-0.4257,-0.366,-0.8555,-0.8511,-0.8573,-0.8349,-0.7729,-0.7407,-0.8251,-0.7956,-0.783,-0.8926,-0.9514,-0.9972,-1.0478,-0.9568,-0.9013,-0.9794,0.0,0.0,-0.7827,-0.781,-0.7685,0.0,-0.7992,0.0,-0.8775,-0.8924,-0.9201,-0.9497,-0.8893,-0.8172,-0.7324,-0.7505,-0.7141,-0.6099,-0.6219,-0.6709,-0.7627,-0.805,-0.8906,-1.0138,-0.9697,-0.9087,-0.827,-0.7255,-0.6488,-0.5935,-0.5015,-0.5117,-0.6054,-0.7008,-0.7841,-0.8587,-0.924,-0.9265,-0.8884,-0.8244,-0.7849,-0.7592,-0.7166,-0.7141,-0.7244,-0.7188,-0.7291,-0.7391,-0.7238,-0.7291,-0.7444,-0.7444,-0.754,-0.769,-0.7793,-0.7235,-0.6468,-0.5726,-0.4935,-0.4069,-0.3286,-0.3113,-0.3193,-0.3606,-0.3646,-0.3821,-0.4512,-0.4852,-0.5286,-0.6237,-0.7135,-0.7806,-0.8017,-0.8501,-0.8808,-0.8782,-0.8666,-0.8337,-0.7746,-0.7656,-0.7485,-0.7143,-0.7095,-0.7095,-0.7095,-0.7149,-0.6887,-0.6368,-0.6744,-0.6544,-0.5679,-0.5987,-0.5874,-0.5265,-0.4073,-0.3543,-0.7113,-0.7486,-0.804,-0.7922,-0.7493,-0.7311,-0.8299,-0.8162,-0.8184,-0.9396,-0.9892,-1.0204,-1.0478,-0.9446,-0.8867,-0.9639,0.0,-0.7012,-0.7544,-0.756,-0.744,-0.7215,-0.7569,-0.7921,-0.8261,-0.8229,-0.8303,-0.8471,-0.858,-0.848,-0.8224,-0.7967,-0.7538,-0.6858,-0.7174,-0.8085,-0.964,-0.9211,-0.9548,-1.0728,-0.9929,-0.9503,-0.9265,-0.7657,-0.6937,-0.6773,-0.5514,-0.5673,-0.689,-0.735,-0.822,-0.9295,-0.9393,-0.9092,-0.8531,-0.8203,-0.7625,-0.6965,-0.6898,-0.6842,-0.6842,-0.7039,-0.7138,-0.7138,-0.7086,-0.7138,-0.7138,-0.7138,-0.7188,-0.7238,-0.7494,-0.7039,-0.636,-0.5716,-0.4963,-0.4232,-0.3494,-0.3348,-0.356,-0.4316,-0.393,-0.3934,-0.5286,-0.5388,-0.5539,-0.6387,-0.7484,-0.8283,-0.8482,-0.9047,-0.9371,-0.9153,-0.8937,-0.8559,-0.8004,-0.7926,-0.7708,-0.7238,-0.7187,-0.7143,-0.7143,-0.7098,-0.6874,-0.6476,-0.6713,-0.6513,-0.5889,-0.5966,-0.5778,-0.5243,-0.404,-0.3539,-0.8451,-0.8369,-0.8002,-0.7731,-0.7266,-0.7202,-0.817,-0.8017,0.0,-0.9872,-1.0112,-1.0199,-1.092,-1.0075,-0.8831,-0.7528,-0.6634,-0.5564,-0.3933,-0.4207,-0.4787,0.0,-0.5938,-0.6627,-0.7688,-0.8116,0.0,-0.8407,-0.8262,-0.7857,-0.714,-0.7245,-0.7083,-0.658,-0.6722,-0.7557,-0.9036,-0.8432,-0.8813,-1.0205,-0.9712,-0.9289,-0.8978,-0.8429,-0.8042,-0.7712,-0.7065,0.0,-0.7841,-0.8476,-0.8762,-0.8882,-0.9349,-0.9242,-0.8738,-0.814,-0.7955,-0.7944,-0.7325,-0.6992,-0.6792,-0.6589,-0.6689,-0.6842,-0.6587,-0.6689,-0.6892,-0.6892,-0.7039,-0.7188,-0.7238,-0.7188,-0.6883,-0.6116,-0.5463,-0.4966,-0.4562,-0.4512,-0.4566,-0.468,-0.4786,-0.4939,-0.524,-0.5438,-0.5887,-0.6886,-0.7238,-0.7786,-0.8935,-0.9353,-0.951,-0.9375,-0.9307,-0.9024,-0.845,-0.8401,-0.8207,-0.7775,-0.7547,-0.7415,-0.7415,-0.7058,-0.6792,-0.6748,-0.6587,-0.6299,-0.5889,-0.6019,-0.5561,-0.4576,-0.4061,-0.363,-0.8854,-0.883,-0.8631,-0.8584,-0.8052,-0.7773,-0.9046,0.0,0.0,-1.0544,-1.0658,-1.059,-1.0757,-0.9673,-0.8517,-0.7678,-0.6462,-0.5285,-0.4315,-0.414,-0.414,-0.447,-0.5062,-0.5864,-0.6749,-0.7311,-0.7814,-0.8378,-0.793,-0.7485,-0.72,-0.6951,-0.6835,-0.6837,-0.719,-0.7954,-0.9251,-0.9099,-0.9503,-1.0566,-1.0116,-0.9702,-0.9372,-0.8841,-0.8429,-0.8102,-0.7601,-0.765,-0.817,-0.8705,-0.9081,-0.9459,-0.9805,-0.9661,-0.9231,-0.873,-0.8288,-0.7875,-0.7506,-0.7235,-0.6992,-0.6839,-0.6739,-0.6589,-0.6437,-0.6287,-0.6239,-0.6489,-0.6487,-0.6487,-0.6889,-0.6992,-0.6842,-0.6142,-0.5489,-0.4937,-0.4834,-0.4784,-0.492,-0.532,-0.5153,-0.5272,-0.621,-0.62,-0.6387,-0.7437,-0.7736,-0.8084,-0.8882,-0.9229,-0.9412,-0.9424,-0.9441,-0.9256,-0.8667,-0.8722,-0.8479,-0.7904,-0.7714,-0.754,-0.7282,-0.6969,-0.6795,-0.6795,-0.6435,-0.596,-0.5416,-0.5474,-0.5046,-0.4126,-0.3731,-0.3486,-0.9201,-0.9197,-0.9237,-0.9284,-0.8645,-0.8402,-0.9818,-1.0066,0.0,-1.0965,-1.1073,-1.0897,-1.0393,-0.9167,-0.8139,-0.7835,-0.6279,-0.4985,-0.4645,-0.4046,-0.3551,-0.332,-0.418,0.0,-0.5708,-0.6554,0.0,-0.8091,-0.7581,-0.7282,-0.737,-0.6816,-0.6725,-0.7161,-0.7685,-0.8436,-0.9449,-0.9817,-1.0318,-1.0855,-1.0489,-1.0107,-0.9761,-0.9156,-0.8757,-0.8486,-0.8074,-0.8102,-0.8445,-0.8746,-0.9289,-0.9849,-1.0067,-0.9891,-0.9514,-0.9247,-0.865,-0.7932,-0.7733,-0.7534,-0.7338,-0.7291,-0.6939,-0.6487,-0.6437,-0.5987,-0.5586,-0.6037,-0.5737,-0.5436,-0.6339,-0.6492,-0.6342,-0.5992,-0.5539,-0.5135,-0.4985,-0.5085,-0.5307,-0.5894,-0.5565,-0.5653,-0.7064,-0.6952,-0.6939,-0.7793,-0.8137,-0.8432,-0.8676,-0.8931,-0.9178,-0.9332,-0.9494,-0.9397,-0.8883,-0.8985,-0.8796,-0.8123,-0.7935,-0.7677,-0.7282,-0.6897,-0.6704,-0.6659,-0.6219,-0.5636,-0.4919,-0.4964,-0.4552,-0.3646,-0.3398,-0.3309,-1.0258,-0.9839,-0.9129,-0.886,-0.8387,-0.8317,-0.9617,0.0,-0.9848,-1.0686,-1.0815,-1.0632,-0.9982,-0.9061,-0.7839,-0.6275,-0.5396,-0.407,-0.1569,-0.1406,-0.1604,-0.1709,0.0,0.0,-0.488,-0.6328,-0.724,-0.7292,-0.7322,-0.7192,-0.6898,-0.6745,-0.686,-0.7203,-0.7811,-0.8439,-0.8984,-0.9651,-1.0144,-1.0335,-1.0319,-1.0057,-0.9634,-0.9539,-0.9377,-0.9097,-0.9054,-0.898,0.0,-0.9057,-0.9086,-0.9026,-0.9507,-0.9504,-0.9298,-0.9028,-0.8969,-0.8935,-0.8237,-0.7939,-0.7889,-0.7643,-0.7194,-0.6742,-0.6487,-0.5839,-0.524,-0.529,-0.4736,-0.4383,-0.5436,-0.5539,-0.5391,-0.5586,-0.5937,-0.6137,-0.5636,-0.5884,-0.6255,-0.6241,-0.6462,-0.6653,-0.6772,-0.7156,-0.7547,-0.7646,-0.7842,-0.8137,-0.8382,-0.868,-0.8924,-0.9213,-0.9472,-0.9547,-0.9348,-0.9344,-0.9275,-0.8991,-0.8417,-0.7958,-0.7755,-0.6898,-0.6346,-0.6171,-0.5866,-0.5416,-0.4739,-0.4919,-0.4297,-0.2917,-0.3375,-0.3197,-1.1316,-1.0823,-1.0211,-0.9995,-0.9952,-1.0145,-1.0682,0.0,-1.0784,-1.1009,-1.0551,-0.9966,-0.97,-0.8533,-0.7419,-0.6605,-0.5486,-0.4301,-0.318,-0.2007,-0.1411,-0.1677,-0.2686,-0.3605,0.0,0.0,-0.7218,-0.7256,-0.7273,-0.7105,-0.6687,-0.6636,-0.6699,-0.6877,-0.7631,-0.8165,-0.8492,-0.9419,-0.9931,-0.9981,-0.9981,-0.9794,-0.9468,-0.956,-0.9433,-0.9204,-0.9062,-0.9042,0.0,-0.9187,-0.9233,-0.937,-0.9734,-0.9602,-0.9261,-0.931,-0.8939,-0.8439,-0.8088,-0.7892,-0.7693,-0.7441,-0.7191,-0.7039,-0.6936,-0.6437,-0.5839,-0.5539,-0.4985,-0.4634,-0.5384,-0.5987,-0.6437,-0.6537,-0.6682,-0.675,-0.6573,-0.662,-0.662,-0.6551,-0.6532,-0.6546,-0.6592,-0.7049,-0.7465,-0.753,-0.7356,-0.7525,-0.8293,-0.7524,-0.7223,-0.8131,-0.908,-0.96,-0.9527,-0.9518,-0.9393,-0.9076,-0.8473,-0.8016,-0.7684,-0.6839,-0.6351,-0.6259,-0.6034,-0.5354,-0.4148,-0.4572,-0.3977,-0.2436,-0.2351,-0.2484,-1.2035,-1.1285,-1.0631,-1.0515,-1.065,-1.0907,0.0,0.0,-1.1298,-1.1142,-1.0355,-0.9569,-0.9092,-0.8001,-0.705,-0.6711,-0.564,-0.4735,-0.4406,-0.3165,-0.2194,-0.1941,0.0,-0.3895,-0.355,-0.5445,-0.6823,-0.7196,-0.7118,-0.6903,-0.6511,-0.634,-0.6337,-0.6501,-0.7453,-0.8052,-0.8227,-0.9409,-0.9932,-0.9816,-0.9764,-0.9603,-0.9379,-0.9328,-0.93,-0.9182,-0.8913,-0.893,0.0,-0.903,-0.9147,-0.937,-0.955,-0.9321,-0.8945,-0.9051,-0.8656,-0.7988,-0.7892,-0.7743,-0.759,-0.7391,-0.7391,-0.7437,-0.7437,-0.6786,-0.5934,-0.5386,-0.5035,-0.4885,-0.5384,-0.6234,-0.6986,-0.7185,-0.7118,-0.7079,-0.7167,-0.7012,-0.6822,-0.6732,-0.6598,-0.6454,-0.6464,-0.6866,-0.7059,-0.6865,-0.6548,-0.6625,-0.7241,-0.6244,-0.5889,-0.7024,-0.8037,-0.8773,-0.9122,-0.9274,-0.9227,-0.8956,-0.8319,-0.7811,-0.7465,-0.6759,-0.617,-0.5598,-0.5797,-0.5005,-0.3213,-0.3971,-0.3519,-0.1873,-0.161,-0.1828,-1.2201,-1.0953,-0.9822,-0.9822,-0.9828,-0.9995,-1.0661,-1.0888,-1.0984,-1.0842,-1.0364,-0.9577,-0.818,-0.7492,-0.6887,-0.6204,-0.5707,-0.5071,-0.4124,-0.4251,-0.3882,0.0,-0.4111,-0.4749,-0.3008,-0.4444,-0.5928,-0.6904,-0.6769,-0.6503,-0.6231,-0.5702,-0.5591,-0.6008,-0.7375,-0.8176,-0.8326,-0.9678,-1.0201,-0.9812,-0.9649,-0.9493,-0.9313,-0.8889,-0.8875,-0.9086,-0.8821,-0.8713,0.0,-0.8554,-0.8577,-0.8699,-0.8554,-0.8449,-0.8258,-0.8006,-0.7965,-0.7942,-0.7696,-0.759,-0.758,-0.7593,-0.7793,-0.7988,-0.7988,-0.6684,-0.5081,-0.4587,-0.4585,-0.4883,-0.5131,-0.5782,-0.6537,-0.7089,-0.7185,-0.7185,-0.7188,-0.7085,-0.6955,-0.6821,-0.6709,-0.6557,-0.6431,-0.6623,-0.6439,-0.5379,-0.5427,-0.5425,-0.4924,-0.4993,-0.5317,-0.5967,-0.6227,-0.6792,-0.7912,-0.8524,-0.8825,-0.8821,-0.7941,-0.7327,-0.713,-0.6664,-0.5551,-0.3749,-0.4752,-0.4136,-0.1808,-0.314,-0.2901,-0.114,-0.1398,-0.1462,-1.2587,-1.1868,-1.1347,-1.1446,-1.1686,-1.1817,-1.1489,-1.1429,-1.122,-1.0668,-0.9969,-0.9183,-0.833,-0.7493,-0.6744,-0.618,-0.5652,-0.5263,-0.5236,0.0,0.0,-0.288,-0.3659,-0.4302,-0.4546,-0.5736,-0.6628,-0.6821,-0.6432,-0.6052,-0.5655,-0.5337,-0.5453,-0.6108,-0.7136,-0.7822,-0.8074,-0.9139,-0.9591,-0.9431,-0.9221,-0.9168,-0.9268,-0.8956,-0.8881,-0.8927,-0.856,-0.8465,-0.855,-0.8503,-0.8509,-0.856,-0.8405,-0.8118,-0.775,-0.7648,-0.7462,-0.7191,-0.7095,-0.7042,-0.7042,-0.7045,-0.7241,-0.7437,-0.7437,-0.7534,-0.7475,-0.6578,-0.6379,-0.6459,-0.6426,-0.7211,-0.8054,-0.8154,-0.8035,-0.7916,-0.8011,-0.7404,-0.6825,-0.6729,-0.6122,-0.536,-0.4417,-0.4505,-0.4399,-0.3554,-0.3173,-0.3313,-0.4124,-0.3204,-0.2953,-0.4227,-0.4604,-0.5638,-0.7819,-0.7829,-0.8031,-0.8775,-0.7839,-0.6924,-0.6122,-0.56,-0.4544,-0.2862,-0.3159,-0.2502,-0.0824,-0.1473,-0.0933,0.0631,-0.0761,-0.1072,-1.2903,-1.2132,-1.1598,-1.1805,-1.2163,0.0,-1.1756,-1.1592,-1.1389,-1.0708,-0.992,-0.9065,-0.8204,-0.7478,-0.6793,-0.6017,-0.5493,-0.5121,-0.4955,-0.4085,0.0,-0.3144,-0.3144,-0.3692,-0.5019,-0.5875,-0.6381,-0.6587,-0.6224,-0.5808,-0.5335,-0.5075,-0.5175,-0.5792,-0.6853,-0.7271,-0.7038,-0.8186,-0.8529,-0.8111,-0.7795,-0.7767,-0.8027,-0.7978,-0.8007,-0.8104,-0.8069,-0.8145,0.0,-0.8208,-0.8277,-0.8426,-0.8256,-0.793,-0.7516,-0.7417,-0.7214,-0.6942,-0.6942,-0.7092,-0.7241,-0.7042,-0.7191,-0.7537,-0.7733,-0.7982,-0.8077,-0.7378,-0.7179,-0.7211,-0.7328,-0.7411,-0.7449,-0.7612,-0.7254,-0.6932,-0.6907,-0.6758,-0.6466,-0.5858,-0.5192,-0.4259,-0.3058,-0.2883,-0.2628,-0.2,-0.1621,-0.1734,-0.267,-0.1753,-0.1502,-0.2719,-0.3253,-0.4342,-0.647,-0.6983,-0.7437,-0.8031,-0.7534,-0.6634,-0.5327,-0.5083,-0.3925,-0.1709,-0.2161,-0.1549,0.0198,0.015,0.0598,0.147,0.0677,0.019,0.0,-1.1987,-1.1033,-1.1305,-1.167,-1.191,-1.155,-1.1563,0.0,-1.085,-1.0117,-0.9183,-0.7842,-0.7491,-0.7004,-0.5737,-0.5351,-0.4806,-0.3654,-0.391,0.0,0.0,-0.2756,-0.311,-0.4593,-0.5038,-0.5527,-0.6107,-0.5999,-0.5691,-0.524,-0.4887,-0.4885,-0.514,-0.6387,-0.6589,-0.5522,-0.7001,-0.7216,-0.608,-0.5662,-0.5616,-0.5872,-0.6131,-0.6484,0.0,-0.73,-0.7706,-0.7978,-0.7718,-0.7919,-0.8396,-0.8103,-0.7892,-0.7646,-0.7338,-0.7238,-0.7238,-0.7238,-0.7587,-0.7939,-0.7437,-0.7637,-0.8187,-0.868,-0.8131,-0.7388,-0.7388,-0.7388,-0.7484,-0.7975,-0.6769,-0.5515,-0.5907,-0.5366,-0.4722,-0.447,-0.5281,-0.571,-0.4516,-0.3984,-0.3342,-0.2221,-0.1686,-0.119,-0.0622,-0.0562,-0.0657,-0.0759,-0.0697,-0.0941,-0.166,-0.2234,-0.3116,-0.4373,-0.6034,-0.6939,-0.6795,-0.6889,-0.6284,-0.4682,-0.4784,-0.3425,-0.0353,-0.1511,-0.1007,0.131,0.1513,0.1648,0.162,0.2554,0.1944,-1.4649,0.0,-1.2833,-1.2683,-1.2902,-1.2822,0.0,-1.1609,-1.1536,-1.0167,-0.9727,-0.9218,-0.7978,-0.7633,-0.7136,-0.5868,-0.5552,-0.5025,-0.3711,-0.2285,0.0,-0.232,-0.2619,-0.3394,-0.4867,-0.5569,-0.5843,-0.5484,-0.5201,-0.5138,-0.519,-0.4535,-0.4384,-0.4885,-0.5381,-0.5741,-0.5869,-0.6263,-0.6327,-0.6007,-0.5321,-0.5107,-0.5354,-0.5236,-0.5675,-0.6478,-0.6529,-0.7015,-0.784,-0.7776,-0.8055,-0.8452,-0.8103,-0.8159,-0.84,-0.7979,-0.7789,-0.7789,-0.7789,-0.7889,-0.7988,-0.8084,-0.8485,-0.8935,-0.9084,-0.908,-0.9031,-0.9031,-0.9031,-0.9049,-0.9065,-0.8385,-0.7397,-0.6344,-0.5405,-0.4714,-0.4462,-0.3704,-0.3419,-0.4716,-0.3811,-0.2415,-0.1236,-0.0679,0.0,0.1005,0.1146,0.0721,-0.0361,-0.0304,-0.0854,-0.2619,-0.2259,-0.2708,-0.4834,-0.5236,-0.5687,-0.6439,-0.5379,-0.4225,-0.302,-0.2216,-0.1109,0.0505,0.0403,0.0957,0.2118,0.2169,0.2415,0.2807,0.2204,0.1289,-1.464,-1.4187,-1.3827,-1.3777,-1.3535,-1.3087,-1.2084,-1.1682,-1.1145,-1.0019,0.0,-0.926,-0.8093,-0.7434,-0.685,-0.6163,-0.5138,-0.4134,-0.3407,-0.2587,-0.2251,-0.2941,-0.3908,-0.4856,-0.5556,-0.6667,-0.7079,-0.6345,-0.6287,-0.5987,-0.5438,-0.4985,-0.4583,-0.4236,-0.4384,-0.4533,-0.4732,-0.4974,-0.4772,-0.4175,-0.3472,-0.3221,-0.337,-0.362,-0.4271,-0.5327,-0.5737,-0.6592,-0.7733,-0.7706,-0.808,-0.8605,-0.8452,-0.8535,-0.87,-0.8464,-0.8382,-0.8333,-0.7935,-0.7736,-0.7686,-0.8088,-0.8435,-0.8638,-0.8638,-0.9034,-0.943,-0.9579,-0.9579,-0.9604,-0.9506,-0.8505,-0.7149,-0.5834,-0.5126,-0.4377,-0.2893,-0.2787,-0.3027,-0.3364,-0.2606,-0.157,-0.0372,-0.0107,0.0269,0.1186,0.1107,0.057,-0.0519,-0.0919,-0.1361,-0.2017,-0.277,-0.3574,-0.4383,-0.4885,-0.5386,-0.5837,-0.5381,-0.4275,-0.2466,-0.2317,-0.1513,0.0051,0.0808,0.1413,0.1868,0.1968,0.232,0.2826,0.2219,0.1152,-1.3906,-1.3868,-1.3986,-1.4202,-1.3536,-1.2797,-1.2454,0.0,0.0,0.0,0.0,0.0,-0.8046,-0.7232,-0.6638,-0.6379,-0.4598,-0.32,-0.3105,-0.3466,-0.385,-0.424,-0.5574,-0.6486,-0.6526,-0.7765,-0.8248,-0.754,-0.7736,-0.7235,-0.5734,-0.5584,-0.4985,-0.3784,-0.3534,-0.3332,-0.313,-0.3527,-0.3122,-0.1866,-0.1414,-0.1162,-0.1162,-0.182,-0.2826,-0.4026,-0.4954,0.0,-0.7682,-0.7633,-0.8146,-0.8898,-0.8862,-0.8889,-0.8958,-0.8935,-0.8874,-0.8676,-0.7879,-0.7484,-0.7437,-0.7889,-0.8038,-0.8137,-0.8088,-0.8538,-0.9133,-0.9282,-0.948,-0.9579,-0.9579,-0.8018,-0.6161,-0.5062,-0.4668,-0.389,-0.134,-0.2361,-0.3456,-0.2189,-0.1589,-0.1003,-0.0165,-0.0055,0.011,0.0656,0.0319,-0.0208,-0.0883,-0.1633,-0.1915,-0.1262,-0.3272,-0.4373,-0.3714,-0.4724,-0.5379,-0.5218,-0.5774,-0.5027,-0.2615,-0.3323,-0.2822,-0.0909,0.0353,0.101,0.1162,0.1463,0.1865,0.2422,0.2422,0.1259,-1.3232,-1.3008,-1.2838,-1.2762,-1.2218,-1.1551,-1.0884,0.0,0.0,0.0,0.0,0.0,0.0,-0.7589,-0.7461,-0.6245,-0.4951,-0.3856,-0.3299,-0.303,-0.3547,-0.5337,-0.6081,-0.6928,-0.8026,-0.8085,-0.7737,-0.6989,-0.7182,-0.6936,-0.5979,-0.5529,-0.4981,-0.428,-0.3176,-0.2674,-0.2876,-0.2724,-0.222,-0.1313,-0.1263,-0.1061,-0.0859,-0.0975,-0.2149,-0.3981,0.0,-0.5597,-0.8003,-0.7833,-0.8397,-0.9371,-0.9217,-0.9368,-0.9726,-0.9532,-0.9175,-0.8676,-0.7879,-0.7882,-0.8184,-0.8038,-0.8283,-0.8627,-0.8382,-0.8432,-0.8482,-0.8287,-0.8882,-0.9579,-0.9579,-0.8173,-0.642,-0.5107,-0.4112,-0.3283,-0.2729,-0.2516,-0.2932,-0.4658,-0.298,-0.1399,-0.1729,-0.0781,0.0,0.011,0.0054,-0.0264,-0.104,-0.1073,-0.1513,-0.272,-0.2422,-0.2657,-0.3844,-0.434,-0.4748,-0.5161,-0.4883,-0.4218,-0.3111,-0.2813,-0.2163,-0.116,-0.0505,0.0202,0.0859,0.1362,0.1865,0.2422,0.2422,0.1259,-1.2343,-1.1955,-1.1629,-1.142,-1.1203,-1.082,-0.9937,0.0,0.0,0.0,0.0,0.0,0.0,0.0,-0.616,-0.4321,-0.4731,-0.4796,-0.365,-0.4862,-0.6138,-0.6899,-0.8057,-0.8957,-0.9354,-0.9253,-0.8896,-0.8347,-0.7879,-0.7229,-0.6276,-0.5177,-0.4176,-0.3325,-0.242,-0.1866,-0.1716,-0.2321,-0.212,-0.1212,-0.0909,-0.0606,-0.0404,-0.0968,-0.2145,-0.3729,0.0,-0.5922,-0.8206,-0.8009,-0.8573,-0.9606,-0.9295,-0.9229,-0.928,-0.8858,-0.8382,-0.7882,-0.768,-0.7584,-0.754,-0.7743,-0.7939,-0.8137,-0.7988,-0.8088,-0.8137,-0.7836,-0.8233,-0.8783,-0.8931,-0.7879,-0.6526,-0.5465,-0.5006,-0.4409,-0.2824,-0.2872,-0.3408,-0.3969,-0.3007,-0.2016,-0.2017,-0.1682,-0.1227,-0.0603,-0.076,-0.1074,-0.1425,-0.1881,-0.2226,-0.2358,-0.2967,-0.3718,-0.4545,-0.4979,-0.5466,-0.6007,-0.5295,-0.4718,-0.452,-0.3267,-0.2365,-0.1865,-0.1312,-0.0761,-0.0103,0.0152,0.0558,0.1125,0.1115,0.005,-1.1496,-1.1024,-1.0581,-1.0205,-1.0218,-1.0119,0.0,0.0,0.0,0.0,0.0,0.0,0.0,-0.6026,-0.5209,-0.3628,-0.4751,-0.5412,-0.4248,-0.6498,-0.8223,-0.8167,-0.9636,-1.0509,-1.014,-1.0072,-0.9863,-0.945,-0.8425,-0.7322,-0.6171,-0.4722,-0.3373,-0.2269,-0.1715,-0.1262,-0.0909,-0.1968,-0.2119,-0.1313,-0.1262,-0.111,-0.0858,-0.1672,-0.2702,-0.3851,-0.4727,-0.6267,-0.809,-0.7886,-0.8447,-0.9342,-0.909,-0.8838,-0.8578,-0.7998,-0.754,-0.7188,-0.7235,-0.7089,-0.6942,-0.7297,-0.7543,-0.7696,-0.7596,-0.7693,-0.7739,-0.7484,-0.7537,-0.7839,-0.8283,-0.7481,-0.6387,-0.5959,-0.5882,-0.5359,-0.3356,-0.3943,-0.4598,-0.3904,-0.3302,-0.28,-0.2466,-0.2355,-0.2007,-0.1206,-0.1531,-0.1793,-0.1708,-0.2661,-0.2912,-0.1831,-0.3698,-0.5149,-0.5512,-0.5953,-0.653,-0.7229,-0.6659,-0.6255,-0.6265,-0.4616,-0.3546,-0.3245,-0.2523,-0.1979,-0.1648,-0.1219,-0.0762,-0.0309,-0.0357,-0.1164,-1.077,-1.0361,-0.9878,-0.9033,-0.9101,-0.9137,-0.8143,-0.721,0.0,-0.5697,0.0,0.0,0.0,-0.5895,-0.6091,-0.6284,-0.5772,-0.5265,-0.5141,-0.6355,-0.7629,-0.8524,-0.9689,-1.0273,-0.9871,-0.965,-0.9373,-0.8889,-0.7872,-0.667,-0.5368,-0.4219,-0.3019,-0.1714,-0.1161,-0.096,-0.1162,-0.1513,-0.1664,-0.1613,-0.3025,-0.3578,-0.3328,-0.3437,-0.405,-0.5052,-0.492,-0.5892,-0.7564,-0.7353,-0.7724,-0.8371,-0.8296,-0.8235,-0.8167,-0.7481,-0.7238,-0.7089,-0.6392,-0.6589,-0.7138,-0.6942,-0.7344,-0.7942,-0.7696,-0.7444,-0.7188,-0.6942,-0.6895,-0.7141,-0.8134,-0.7033,-0.5811,-0.6374,-0.5789,-0.5174,-0.5407,-0.6098,-0.6733,-0.685,-0.5087,-0.3694,-0.4199,-0.2465,-0.1171,-0.1644,-0.175,-0.1793,-0.1708,-0.2767,-0.3032,-0.1808,-0.382,-0.567,-0.6671,-0.6981,-0.7583,-0.8657,-0.9134,-0.9075,-0.8344,-0.7016,-0.6131,-0.567,-0.4457,-0.3819,-0.3773,-0.2264,-0.1409,-0.1109,-0.1486,-0.1688,-1.0792,-0.9724,-0.8675,-0.8693,-0.8243,0.0,0.0,-0.589,-0.5539,-0.5059,-0.4236,0.0,0.0,-0.503,-0.4865,-0.5728,-0.4989,-0.4378,-0.4387,-0.5915,-0.7119,-0.7259,-0.8881,-0.983,-0.9396,-0.932,-0.9109,-0.8836,-0.7673,-0.6523,-0.5522,-0.3823,-0.2369,-0.1363,-0.0656,-0.0354,-0.0455,-0.1865,-0.262,-0.262,-0.3225,-0.3426,-0.3376,-0.406,-0.4591,-0.5118,-0.5599,-0.6484,-0.7599,-0.7327,-0.7617,-0.8245,-0.7749,-0.7617,-0.7626,-0.6933,-0.6686,-0.6637,-0.6337,-0.6539,-0.6942,-0.7039,-0.7238,-0.754,-0.7593,-0.7391,-0.7188,-0.7089,-0.7151,-0.7298,-0.7559,-0.6997,-0.6409,-0.6813,-0.6419,-0.6066,-0.6199,-0.6704,-0.6987,-0.67,-0.5926,-0.4977,-0.4085,-0.3191,-0.2395,-0.1863,-0.1821,-0.1767,-0.179,-0.2185,-0.2246,-0.1788,-0.3188,-0.4371,-0.4747,-0.5737,-0.6745,-0.7723,-0.8697,-0.8909,-0.8276,-0.743,-0.667,-0.6041,-0.5324,-0.4916,-0.4812,-0.4136,-0.3674,-0.349,-0.3334,-0.3474,-1.0652,-0.959,-0.8505,-0.8093,-0.7573,0.0,-0.4978,-0.4996,-0.5114,-0.429,-0.3896,-0.3969,-0.5002,0.0,-0.4325,-0.5088,-0.43,-0.3704,-0.4061,-0.5604,-0.6686,-0.676,-0.8411,-0.9412,-0.8987,-0.8979,-0.8901,-0.8684,-0.7431,-0.6229,-0.5272,-0.3323,-0.1817,-0.0859,-0.0303,0.0,0.0,-0.186,-0.2963,-0.3195,-0.3595,-0.3944,-0.4193,-0.497,-0.5354,-0.5436,-0.6102,-0.6732,-0.7288,-0.706,-0.7264,-0.7728,-0.7139,-0.7018,-0.7066,-0.6581,-0.6387,-0.6387,-0.6387,-0.6589,-0.6842,-0.7089,-0.7238,-0.7391,-0.7643,-0.754,-0.7341,-0.7341,-0.7409,-0.7512,-0.7366,-0.7038,-0.6773,-0.7132,-0.6876,-0.6552,-0.6696,-0.707,-0.7321,-0.6932,-0.6707,-0.6149,-0.492,-0.4416,-0.3732,-0.2537,-0.2391,-0.2233,-0.1821,-0.2115,-0.251,-0.292,-0.33,-0.3682,-0.4065,-0.505,-0.5922,-0.6536,-0.7651,-0.8361,-0.8361,-0.789,-0.7437,-0.6953,-0.6444,-0.625,-0.6322,-0.5485,-0.512,-0.5132,-0.4722,-0.4543,-1.0274,-1.004,-0.9484,-0.7098,-0.7159,0.0,-0.4159,-0.4647,-0.5172,-0.3298,-0.3742,-0.45,-0.4566,-0.475,-0.4847,-0.4818,-0.3877,-0.3522,-0.438,-0.5354,-0.6375,-0.734,-0.8405,-0.8976,-0.867,-0.8725,-0.8676,-0.8379,-0.7132,-0.5829,-0.447,-0.2869,-0.1412,-0.005,0.0,0.0,0.0,-0.1349,-0.2396,-0.323,-0.4505,-0.5535,-0.6322,-0.6385,-0.6374,-0.6325,-0.6388,-0.6387,-0.6387,-0.6387,-0.6457,-0.6605,-0.6433,-0.646,-0.6603,-0.643,-0.6387,-0.6387,-0.6384,-0.6587,-0.6842,-0.7089,-0.7391,-0.7643,-0.7892,-0.7793,-0.7596,-0.7596,-0.7596,-0.7596,-0.7596,-0.7143,-0.6827,-0.7289,-0.692,-0.651,-0.6837,-0.7451,-0.7989,-0.7989,-0.7487,-0.7096,-0.7096,-0.6144,-0.5027,-0.3804,-0.358,-0.3191,-0.1963,-0.2856,-0.4026,-0.525,-0.4305,-0.4083,-0.525,-0.5361,-0.5363,-0.5417,-0.6482,-0.7601,-0.8826,-0.8737,-0.8713,-0.8713,-0.7987,-0.7914,-0.8486,-0.6207,-0.5309,-0.5627,-0.5407,-0.4649,-1.063,-0.883,-0.7037,-0.716,-0.6002,0.0,0.0,-0.4421,0.0,0.0,-0.3807,-0.4662,-0.4572,-0.4246,-0.4294,-0.4988,-0.4004,-0.3261,-0.36,-0.4212,-0.4711,-0.4727,-0.5725,-0.6332,-0.6231,-0.6951,-0.7239,-0.6951,-0.7128,-0.6291,-0.4093,-0.3448,-0.2255,-0.0347,-0.0451,-0.0448,-0.0289,-0.1589,-0.2382,-0.2593,-0.4281,-0.5569,-0.6385,-0.6339,-0.6342,-0.6388,-0.6373,-0.6387,-0.6387,-0.6387,-0.6457,-0.6605,-0.6433,-0.646,-0.6554,-0.6231,-0.6139,-0.6079,-0.5854,-0.6265,-0.6948,-0.7095,-0.7388,-0.7703,-0.7508,-0.7138,-0.6789,-0.6986,-0.7003,-0.7107,-0.7719,-0.7696,-0.7645,-0.7958,-0.804,-0.7791,-0.7072,-0.7122,-0.7376,-0.7376,-0.721,-0.7096,-0.7096,-0.6816,-0.5922,-0.3916,-0.358,-0.3191,-0.1963,-0.213,-0.2465,-0.2856,-0.2548,-0.2497,-0.2859,-0.2887,-0.3644,-0.54,-0.5856,-0.6503,-0.7601,-0.8225,-0.8646,-0.8814,-0.8005,-0.7765,-0.8144,-0.6959,-0.6364,-0.6389,-0.5966,-0.5532,-0.9562,-0.8111,-0.67,-0.6173,-0.5178,-0.425,-0.3879,0.0,0.0,0.0,-0.3812,-0.4268,-0.4195,-0.3865,-0.3797,-0.4234,-0.3516,-0.2888,-0.2787,-0.3332,-0.367,-0.3481,-0.4377,-0.5062,-0.5174,-0.5864,-0.6263,-0.6141,-0.654,-0.5863,-0.3769,-0.3425,-0.2403,-0.0583,-0.0687,-0.073,-0.066,-0.1458,-0.2234,-0.2916,-0.3996,-0.519,-0.6514,-0.6347,-0.6306,-0.6372,-0.6368,-0.6387,-0.6387,-0.6387,-0.643,-0.6489,-0.6416,-0.6382,-0.6337,-0.6067,-0.5942,-0.5824,-0.5718,-0.6163,-0.6879,-0.7068,-0.7424,-0.7779,-0.7625,-0.7344,-0.7086,-0.7232,-0.7343,-0.7491,-0.8012,-0.8153,-0.812,-0.8177,-0.8046,-0.769,-0.6995,-0.6614,-0.6376,-0.6417,-0.6816,-0.7096,-0.7096,-0.7487,-0.7038,-0.4695,-0.3525,-0.2632,-0.1907,-0.1795,-0.1795,-0.1795,-0.2206,-0.2556,-0.2604,-0.3026,-0.3957,-0.5498,-0.6068,-0.6534,-0.7102,-0.8205,-0.8713,-0.8549,-0.7826,-0.7546,-0.7657,-0.6751,-0.6368,-0.6543,-0.5985,-0.5713,-0.7744,-0.763,-0.7411,-0.4491,-0.4487,-0.4732,-0.3102,-0.3137,-0.3521,-0.3632,0.0,-0.3553,-0.3597,-0.3575,-0.3429,-0.3101,-0.282,-0.2471,-0.2086,-0.2625,-0.3074,-0.3074,-0.3924,-0.4595,-0.481,-0.5187,-0.548,-0.5653,-0.5554,-0.4886,-0.3503,-0.2946,-0.2093,-0.0761,-0.0762,-0.0943,-0.1154,-0.1179,-0.2026,-0.3728,-0.3643,-0.4608,-0.652,-0.6292,-0.6117,-0.6046,-0.6142,-0.6184,-0.6237,-0.6237,-0.6337,-0.6387,-0.6387,-0.6239,-0.6042,-0.5992,-0.5839,-0.567,-0.5752,-0.6147,-0.6659,-0.7051,-0.7431,-0.7842,-0.8056,-0.8021,-0.7889,-0.7889,-0.8084,-0.8283,-0.8382,-0.8382,-0.8333,-0.7988,-0.7285,-0.6692,-0.655,-0.581,-0.515,-0.5234,-0.6089,-0.6816,-0.693,-0.7875,-0.7873,-0.5695,-0.3525,-0.213,-0.213,-0.213,-0.2131,-0.2135,-0.3142,-0.3836,-0.3952,-0.4992,-0.5625,-0.5796,-0.6826,-0.7412,-0.7318,-0.8517,-0.8788,-0.7992,-0.7487,-0.7154,-0.7099,-0.5935,-0.5663,-0.6221,-0.5669,-0.5394,-0.7543,-0.6313,-0.5045,-0.3749,-0.297,-0.2513,-0.2085,-0.2133,-0.2187,-0.2253,-0.2642,-0.3008,-0.3106,-0.3386,-0.3588,-0.3639,-0.3,-0.2497,-0.2426,-0.214,-0.1969,-0.1969,-0.2322,-0.262,-0.266,-0.3803,-0.4369,-0.3956,-0.4703,-0.4481,-0.279,-0.2691,-0.2176,-0.1072,-0.1419,-0.1641,-0.1672,-0.1686,-0.22,-0.3112,-0.3435,-0.4171,-0.5188,-0.5225,-0.4817,-0.4157,-0.4173,-0.4582,-0.5135,-0.5135,-0.5634,-0.6387,-0.6387,-0.6387,-0.6287,-0.5837,-0.5789,-0.5812,-0.5278,-0.5786,-0.667,-0.6771,-0.7283,-0.7804,-0.7388,-0.7177,-0.7083,-0.7083,-0.708,-0.7329,-0.818,-0.8382,-0.818,-0.7282,-0.6878,-0.6434,-0.5497,-0.4575,-0.389,-0.3958,-0.4195,-0.4639,-0.5586,-0.5975,-0.5975,-0.5472,-0.4972,-0.4639,-0.4639,-0.4639,-0.4662,-0.4781,-0.49,-0.5078,-0.5211,-0.5448,-0.6069,-0.7116,-0.7409,-0.8026,-0.9046,-0.8984,-0.8634,-0.7989,-0.7487,-0.6988,-0.6485,-0.5768,-0.547,-0.5648,-0.5536,-0.548,-0.6842,-0.5946,-0.5147,-0.3811,-0.2442,-0.1427,-0.1768,-0.1403,-0.0931,-0.0931,-0.1996,-0.2901,-0.3013,-0.3388,-0.3688,-0.3593,-0.2975,-0.2431,-0.2308,-0.188,-0.1617,-0.1617,-0.1718,-0.1907,-0.207,-0.2627,-0.2962,-0.2971,-0.3422,-0.3266,-0.2233,-0.2325,-0.2098,-0.1459,-0.1688,-0.1907,-0.1974,-0.188,-0.2382,-0.3403,-0.3841,-0.4265,-0.4583,-0.4728,-0.4362,-0.3575,-0.3444,-0.3628,-0.407,-0.4575,-0.5123,-0.5659,-0.6158,-0.6388,-0.6337,-0.5939,-0.5889,-0.5919,-0.5504,-0.5878,-0.6527,-0.6823,-0.7198,-0.7423,-0.7257,-0.7134,-0.7051,-0.7015,-0.7335,-0.7792,-0.8411,-0.868,-0.8535,-0.7431,-0.6578,-0.5637,-0.4389,-0.3353,-0.2656,-0.2702,-0.3228,-0.3804,-0.4416,-0.4528,-0.4763,-0.542,-0.4976,-0.4878,-0.5486,-0.5606,-0.5625,-0.5675,-0.6098,-0.6429,-0.6541,-0.701,-0.7673,-0.8439,-0.8442,-0.8739,-0.9391,-0.9235,-0.8864,-0.8237,-0.7892,-0.7413,-0.6845,-0.6179,-0.587,-0.5906,-0.5622,-0.5531,-0.6307,-0.575,-0.5509,-0.3932,-0.2293,-0.1202,-0.1621,-0.0949,-0.0117,0.0,-0.1409,-0.2673,-0.2829,-0.3216,-0.3531,-0.3368,-0.2884,-0.2405,-0.2125,-0.1809,-0.1603,-0.1659,-0.166,-0.1786,-0.2107,-0.1812,-0.1785,-0.2308,-0.2114,-0.1926,-0.1696,-0.1799,-0.1794,-0.1686,-0.1658,-0.1835,-0.2141,-0.1874,-0.2456,-0.3849,-0.4421,-0.4596,-0.4434,-0.4374,-0.3876,-0.3056,-0.2801,-0.2874,-0.3212,-0.4081,-0.4678,-0.5141,-0.5994,-0.6405,-0.6437,-0.6092,-0.6042,-0.6126,-0.5961,-0.6063,-0.6381,-0.6878,-0.7022,-0.7036,-0.7185,-0.7301,-0.7293,-0.7208,-0.7799,-0.8466,-0.8742,-0.8981,-0.8935,-0.7879,-0.6429,-0.5004,-0.3713,-0.2628,-0.1874,-0.1907,-0.2879,-0.3695,-0.3706,-0.4042,-0.4741,-0.5851,-0.535,-0.5261,-0.6268,-0.6336,-0.6278,-0.6394,-0.7109,-0.7652,-0.7872,-0.8708,-0.9275,-0.9371,-0.9381,-0.9347,-0.9326,-0.919,-0.8958,-0.8747,-0.8456,-0.8034,-0.7424,-0.6794,-0.6468,-0.6477,-0.5959,-0.571,-0.6543,-0.4885,-0.3302,-0.2914,-0.2273,-0.1596,0.0,0.0,-0.0632,-0.0113,-0.061,-0.136,-0.2036,-0.2424,-0.2846,-0.3456,-0.2898,-0.2383,-0.2366,-0.1865,-0.1596,-0.182,-0.1923,-0.1955,-0.196,-0.1861,-0.1795,-0.1662,-0.1405,-0.1245,-0.1178,-0.1002,-0.0994,-0.119,-0.1186,-0.141,-0.1833,-0.157,-0.2201,-0.3631,-0.4518,-0.493,-0.4853,-0.3436,-0.2092,-0.0837,-0.0772,-0.1624,-0.3057,-0.3296,-0.4442,-0.613,-0.6325,-0.6526,-0.6692,-0.6192,-0.6292,-0.6625,-0.6108,-0.6163,-0.6529,-0.6498,-0.6739,-0.6949,-0.6748,-0.6778,-0.6921,-0.7132,-0.7471,-0.7905,-0.8619,-0.8981,-0.8931,-0.7869,-0.6725,-0.5557,-0.4275,-0.3205,-0.2464,-0.2508,-0.3267,-0.3991,-0.4159,-0.593,-0.745,-0.7748,-0.8524,-0.9061,-0.8907,-0.8384,-0.8267,-0.8852,-0.8441,-0.8309,-0.895,-0.9107,-0.9275,-0.9371,-0.9381,-0.9486,-0.9724,-0.8489,-0.8432,-0.9576,-0.8726,-0.8076,-0.7599,-0.7369,-0.7083,-0.6758,-0.6639,-0.6348,-0.6401,-0.4697,-0.3291,-0.3245,-0.2254,-0.1282,-0.147,-0.0931,-0.0344,-0.0057,-0.0221,-0.0697,-0.1738,-0.2307,-0.2809,-0.3434,-0.3009,-0.2517,-0.2415,-0.2022,-0.18,-0.1913,-0.1946,-0.1958,-0.2082,-0.1798,-0.1554,-0.1432,-0.1196,-0.1009,-0.087,-0.086,-0.0936,-0.1096,-0.1082,-0.1218,-0.1563,-0.1738,-0.2719,-0.4383,-0.505,-0.5195,-0.4785,-0.4322,-0.292,-0.082,-0.0898,-0.1404,-0.2199,-0.3444,-0.4528,-0.5446,-0.6026,-0.6568,-0.6933,-0.6369,-0.6534,-0.6933,-0.6377,-0.6212,-0.6306,-0.6545,-0.6415,-0.6202,-0.6233,-0.62,-0.6243,-0.6243,-0.6732,-0.7334,-0.7608,-0.8326,-0.8676,-0.7425,-0.6675,-0.5889,-0.4729,-0.3496,-0.2793,-0.3526,-0.3561,-0.393,-0.5305,-0.6401,-0.7434,-0.8339,-0.8787,-0.9114,-0.9318,-0.8913,-0.8703,-0.8921,-0.8555,-0.8587,-0.9283,-0.9258,-0.9313,-0.9493,-0.951,-0.9568,-0.9696,-0.9112,-0.9074,-0.9574,-0.8463,-0.8149,-0.8735,-0.825,-0.7933,-0.7812,-0.71,-0.6651,-0.6295,-0.5151,-0.4266,-0.4015,-0.2828,-0.1711,-0.1855,-0.1153,-0.0343,-0.0057,0.0055,-0.0212,-0.1301,-0.1963,-0.2554,-0.3112,-0.2941,-0.265,-0.2514,-0.2217,-0.1992,-0.201,-0.1882,-0.1879,-0.2073,-0.1577,-0.1252,-0.1219,-0.0913,-0.0696,-0.0522,-0.0682,-0.0756,-0.0835,-0.0776,-0.0907,-0.1206,-0.2003,-0.3262,-0.4999,-0.5156,-0.5065,-0.4699,-0.4781,-0.3617,-0.1595,-0.1844,-0.2014,-0.2244,-0.3864,-0.4712,-0.5135,-0.5879,-0.6354,-0.6675,-0.644,-0.6462,-0.6686,-0.6487,-0.6287,-0.6192,-0.6592,-0.6239,-0.5717,-0.576,-0.5745,-0.5615,-0.5545,-0.6041,-0.6663,-0.6755,-0.7577,-0.8177,-0.7229,-0.6778,-0.6245,-0.4841,-0.3708,-0.3228,-0.4169,-0.4246,-0.4662,-0.6474,-0.7184,-0.7901,-0.9123,-0.9048,-0.8909,-0.914,-0.8942,-0.8687,-0.8551,-0.8414,-0.8612,-0.9215,-0.9164,-0.9211,-0.9476,-0.953,-0.9568,-0.9608,-0.9442,-0.9276,-0.9208,-0.7999,-0.809,-0.9551,-0.9023,-0.8691,-0.8587,-0.7728,-0.7243,-0.6603,-0.6334,-0.6036,-0.4835,-0.4329,-0.369,-0.2185,-0.1742,-0.1404,-0.0225,0.0219,0.0212,-0.0313,-0.1007,-0.1777,-0.2361,-0.259,-0.2707,-0.276,-0.2262,-0.1977,-0.2246,-0.1832,-0.1596,-0.1802,-0.1233,-0.0818,-0.0742,-0.0305,-0.0044,-0.0044,-0.0043,-0.0042,-0.0041,-0.004,-0.0282,-0.0717,-0.215,-0.3575,-0.4996,-0.4299,-0.4349,-0.4956,-0.3769,-0.308,-0.2831,-0.3267,-0.3758,-0.4178,-0.4391,-0.5088,-0.605,-0.6214,-0.5886,-0.5379,-0.6129,-0.5929,-0.5429,-0.6134,-0.6387,-0.6387,-0.6437,-0.6239,-0.5922,-0.5618,-0.5407,-0.5263,-0.5466,-0.5605,-0.5827,-0.6628,-0.7033,-0.7335,-0.7531,-0.7332,-0.655,-0.4425,-0.3881,-0.3874,-0.401,-0.5594,-0.7054,-0.7561,-0.9003,-1.0222,-1.0665,-1.0415,-0.9872,-0.897,-0.8678,-0.8545,-0.8408,-0.8278,-0.8379,-0.8863,-0.8898,-0.9015,-0.9224,-0.9313,-0.9459,-0.9605,-0.8588,-0.8228,-0.87,-0.7505,-0.7689,-0.9395,-0.9384,-0.9104,-0.859,-0.866,-0.8416,-0.6583,-0.6326,-0.6009,-0.5352,-0.4419,-0.34,-0.2526,-0.204,-0.1485,-0.0707,-0.032,-0.0314,-0.0987,-0.1209,-0.1377,-0.1781,-0.2301,-0.2645,-0.2563,-0.2355,-0.2221,-0.23,-0.2122,-0.1868,-0.1591,-0.1344,-0.0981,-0.047,-0.0302,-0.0131,0.0,0.0,0.0,0.0,-0.0121,-0.0567,-0.1316,-0.1918,-0.2803,-0.4033,-0.3488,-0.3467,-0.3846,-0.4347,-0.4219,-0.3626,-0.4868,-0.4959,-0.435,-0.5077,-0.5694,-0.6089,-0.6132,-0.6171,-0.6229,-0.6306,-0.6275,-0.6237,-0.6337,-0.6387,-0.6387,-0.6387,-0.6239,-0.5819,-0.4971,-0.4565,-0.4268,-0.3646,-0.3623,-0.3875,-0.4178,-0.5179,-0.6379,-0.7132,-0.6947,-0.6287,-0.5396,-0.4148,-0.3708,-0.517,-0.5924,-0.6799,-0.8388,-0.9594,-1.0379,-1.0606,-1.0485,-0.9966,-0.909,-0.8737,-0.8505,-0.8284,-0.822,-0.8458,-0.9026,-0.9076,-0.9181,-0.9432,-0.9082,-0.8935,-0.9077,-0.8334,-0.7898,-0.7937,-0.753,-0.7627,-0.8267,-0.8295,-0.842,-0.865,-0.7933,-0.7933,-0.6639,0.0,0.0,-0.5896,-0.4972,-0.3912,-0.3103,-0.2588,-0.1944,-0.0907,-0.0473,-0.0415,-0.0985,-0.1011,-0.1189,-0.1732,-0.2314,-0.2665,-0.2566,-0.2284,-0.2115,-0.2079,-0.1901,-0.1651,-0.1205,-0.1124,-0.0846,-0.0342,-0.0259,-0.0131,0.0,0.0,-0.0042,-0.0081,-0.0365,-0.0895,-0.1706,-0.1841,-0.2319,-0.3171,-0.2778,-0.2624,-0.2794,-0.413,-0.4378,-0.3814,-0.5466,-0.5657,-0.489,-0.5595,-0.5999,-0.6149,-0.6149,-0.6171,-0.6132,-0.6306,-0.6226,-0.6139,-0.6337,-0.6387,-0.6387,-0.6387,-0.6239,-0.577,-0.4624,-0.4217,-0.3867,-0.2662,-0.2534,-0.2772,-0.2674,-0.3925,-0.5536,-0.6938,-0.6862,-0.6554,-0.6661,-0.5038,-0.4111,-0.6063,-0.6451,-0.7057,-0.8904,-0.9781,-1.0252,-1.0421,-1.0229,-0.9791,-0.908,-0.8935,-0.8707,-0.8396,-0.8476,-0.8704,-0.9154,-0.9166,-0.9167,-0.9371,-0.8827,-0.856,-0.8651,-0.8193,-0.7719,-0.7289,-0.7295,-0.7334,-0.7277,-0.7512,-0.7988,-0.865,-0.7691,-0.7747,0.0,0.0,0.0,-0.6484,-0.6068,-0.5328,-0.3982,-0.3463,-0.2817,-0.0903,-0.0262,-0.0052,-0.0052,-0.0459,-0.1159,-0.2219,-0.2583,-0.2717,-0.2768,-0.2088,-0.1633,-0.1613,-0.1143,-0.0774,-0.0697,-0.0509,-0.0364,-0.0306,-0.0131,0.0,0.0,0.0,-0.0082,-0.0315,-0.0764,-0.122,-0.1704,-0.1953,-0.2209,-0.2472,-0.2159,-0.1914,-0.1821,-0.2969,-0.3444,-0.3456,-0.5012,-0.5748,-0.5904,-0.5904,-0.6048,-0.6317,-0.6317,-0.5696,-0.4985,-0.6037,-0.5734,-0.4985,-0.6034,-0.6437,-0.6387,-0.6387,-0.6239,-0.5819,-0.4628,-0.432,-0.4069,-0.2663,-0.2487,-0.2725,-0.2523,-0.3429,-0.4962,-0.6952,-0.7244,-0.7312,-0.8044,-0.6431,-0.5215,-0.647,-0.7308,-0.813,-0.9041,-0.9637,-1.0021,-1.0083,-0.9787,-0.942,-0.8824,-0.9146,-0.914,-0.8619,-0.8926,-0.9157,-0.9154,-0.8969,-0.8888,-0.8892,-0.8581,-0.8381,-0.8387,-0.8039,-0.7509,-0.6803,-0.6808,-0.6755,-0.6586,-0.7277,-0.7926,-0.859,-0.8179,-0.8113,-0.6942,0.0,0.0,0.0,0.0,0.0,-0.4798,-0.4382,-0.3844,-0.2666,-0.1886,-0.1423,-0.1423,-0.1568,-0.1765,-0.2068,-0.2462,-0.2708,-0.252,-0.2159,-0.1907,-0.1869,-0.1408,-0.0988,-0.0807,-0.0567,-0.0326,-0.0089,-0.0045,0.0,0.0,0.0,-0.0163,-0.0524,-0.0689,-0.0969,-0.1388,-0.1321,-0.159,-0.2154,-0.1704,-0.1508,-0.1527,-0.2527,-0.3006,-0.3099,-0.4355,-0.527,-0.5904,-0.5904,-0.6048,-0.6317,-0.6317,-0.6139,-0.6034,-0.6736,-0.6537,-0.6034,-0.6736,-0.6736,-0.6387,-0.6387,-0.6337,-0.5979,-0.4303,-0.3814,-0.3473,-0.1705,-0.1708,-0.2529,-0.3941,-0.4769,-0.5661,-0.7162,-0.7296,-0.722,-0.8034,-0.731,-0.6672,-0.7257,-0.7815,-0.8249,-0.8477,-0.9175,-0.9727,-0.9727,-0.9668,-0.9285,-0.8331,-0.8491,-0.8302,-0.7374,-0.7682,-0.8066,-0.8426,-0.8442,-0.8589,-0.9093,-0.8145,-0.769,-0.7808,-0.6865,-0.6286,-0.6082,-0.6705,-0.6938,-0.6758,-0.6906,-0.7576,-0.8712,-0.9087,-0.8845,0.0,0.0,0.0,0.0,0.0,0.0,-0.5264,-0.4806,-0.4144,-0.2822,-0.1916,-0.1412,-0.1765,-0.1664,-0.1714,-0.2371,-0.2674,-0.2724,-0.2422,-0.1968,-0.1666,-0.1667,-0.1212,-0.0799,-0.0629,-0.0479,-0.0282,0.0,0.0,0.0,0.0,-0.0083,-0.0243,-0.0481,-0.0596,-0.0789,-0.1021,-0.096,-0.1138,-0.1443,-0.123,-0.1115,-0.1135,-0.1955,-0.2543,-0.3,-0.4044,-0.4995,-0.5836,-0.5882,-0.6015,-0.6246,-0.6298,-0.6276,-0.635,-0.6947,-0.6904,-0.6619,-0.7167,-0.7036,-0.6589,-0.6589,-0.6439,-0.5987,-0.468,-0.4331,-0.4128,-0.2719,-0.2583,-0.3266,-0.4895,-0.5396,-0.5801,-0.7183,-0.763,-0.7861,-0.8397,-0.8368,-0.8263,-0.8146,-0.8254,-0.8485,-0.877,-0.928,-0.9656,-0.9534,-0.9568,-0.9255,-0.8347,-0.8377,-0.8143,-0.7253,-0.7602,-0.8031,-0.8366,-0.8543,-0.8757,-0.915,-0.8295,-0.7702,-0.7552,-0.6693,-0.6137,-0.5837,-0.6657,-0.7324,-0.7857,-0.7503,-0.7696,-0.8371,-0.9357,-0.9271,0.0,0.0,0.0,0.0,-0.6784,0.0,-0.5575,-0.5049,-0.4237,-0.2397,-0.1408,-0.1059,-0.1709,-0.151,-0.1663,-0.3026,-0.3033,-0.2784,-0.2479,-0.1719,-0.1264,-0.1266,-0.0759,-0.0452,-0.0493,-0.0484,-0.0332,-0.0046,0.0,0.0,-0.0042,-0.0206,-0.0282,-0.0355,-0.0501,-0.0615,-0.0589,-0.0845,-0.0864,-0.071,-0.0842,-0.0843,-0.071,-0.1308,-0.2105,-0.3008,-0.381,-0.4715,-0.5675,-0.5777,-0.5953,-0.61,-0.627,-0.6251,-0.6227,-0.6947,-0.7014,-0.6835,-0.739,-0.7285,-0.6892,-0.6845,-0.6542,-0.6039,-0.5482,-0.5432,-0.5482,-0.4822,-0.4538,-0.4662,-0.5749,-0.5734,-0.5739,-0.708,-0.803,-0.8662,-0.8841,-0.9313,-0.9537,-0.9034,-0.8757,-0.8791,-0.9479,-0.9697,-0.9707,-0.9445,-0.952,-0.9314,-0.846,-0.8443,-0.8227,-0.7508,-0.7999,-0.8423,-0.8468,-0.8891,-0.9138,-0.9234,-0.8721,-0.816,-0.7535,-0.7195,-0.6696,-0.6162,-0.6933,-0.7983,-0.9379,-0.8692,-0.8259,-0.8136,-0.9313,-0.9493,0.0,0.0,0.0,0.0,-0.7249,0.0,-0.6444,-0.6021,-0.5565,-0.4929,-0.4337,-0.376,-0.3159,-0.3589,-0.3927,-0.3572,-0.3519,-0.3298,-0.2579,-0.1937,-0.1524,-0.1599,-0.1071,-0.0807,-0.1005,-0.084,-0.0629,-0.0332,-0.0136,-0.0087,-0.0303,-0.0166,-0.0244,-0.0606,-0.0592,-0.0586,-0.0589,-0.1016,-0.1021,-0.0637,-0.0829,-0.079,-0.0637,-0.0753,-0.1516,-0.2759,-0.3112,-0.4036,-0.5323,-0.5521,-0.5803,-0.61,-0.627,-0.6303,-0.6346,-0.6982,-0.717,-0.7152,-0.7471,-0.7531,-0.7385,-0.7188,-0.7039,-0.6836,-0.6079,-0.5879,-0.5932,-0.5982,-0.5972,-0.6178,-0.7025,-0.7031,-0.6924,-0.745,-0.7843,-0.8287,-0.8806,-0.8985,-0.9103,-0.9265,-0.9188,-0.9168,-0.9378,-0.9569,-0.9632,-0.9574,-0.9591,-0.9078,-0.7585,-0.7614,-0.7269,-0.5893,-0.6626,-0.7369,-0.7755,-0.8358,-0.8873,-0.9344,-0.8778,-0.8435,-0.8367,-0.7817,-0.753,-0.7503,-0.8296,-0.9177,-1.0086,-0.9932,-0.9777,-0.9572,-1.0005,-0.9936,0.0,0.0,0.0,-0.8387,0.0,0.0,0.0,-0.58,-0.5451,-0.5019,-0.4409,-0.3922,-0.3922,-0.4052,-0.4176,-0.4176,-0.3756,-0.3436,-0.3313,-0.2367,-0.1643,-0.1712,-0.1175,-0.0859,-0.101,-0.0745,-0.0534,-0.0424,-0.0269,-0.0305,-0.0522,-0.0334,-0.0326,-0.0529,-0.0472,-0.0388,-0.0314,-0.0815,-0.0937,-0.0639,-0.0829,-0.087,-0.0799,-0.0553,-0.1311,-0.2838,-0.2838,-0.3786,-0.5376,-0.5464,-0.5648,-0.5928,-0.6108,-0.6179,-0.6294,-0.7263,-0.7394,-0.7245,-0.7806,-0.7733,-0.7335,-0.7089,-0.6889,-0.6786,-0.6634,-0.688,-0.7229,-0.7531,-0.7479,-0.7372,-0.7217,-0.6972,-0.6652,-0.6318,-0.6927,-0.7648,-0.7925,-0.8598,-0.9182,-0.9255,-0.9272,-0.9258,-0.9354,-0.9568,-0.9663,-0.9517,-0.9622,-0.907,-0.7398,-0.7512,-0.7213,-0.5722,-0.6647,-0.7479,-0.7722,-0.8567,-0.9216,-0.95,-0.9199,-0.8934,-0.8584,-0.8351,-0.8355,-0.8608,-0.9055,-0.9704,-1.05,-1.05,-1.0344,-0.999,-1.0209,-1.0109,0.0,0.0,0.0,0.0,0.0,-0.6685,0.0,0.0,0.0,-0.4747,-0.4069,-0.3814,-0.4567,-0.4379,-0.4285,-0.4955,-0.4221,-0.3748,-0.4219,-0.305,-0.2125,-0.2024,-0.143,-0.101,-0.101,-0.0794,-0.0629,-0.056,-0.0585,-0.066,-0.0788,-0.059,-0.0495,-0.0536,-0.0433,-0.0271,-0.0079,-0.0618,-0.0778,-0.0566,-0.0793,-0.0873,-0.0848,-0.0476,-0.1271,-0.2919,-0.2757,-0.3745,-0.5464,-0.5464,-0.5591,-0.5742,-0.6002,-0.6086,-0.6256,-0.734,-0.7566,-0.7384,-0.8043,-0.7885,-0.7335,-0.6939,-0.6589,-0.6387,-0.6836,-0.7587,-0.828,-0.8524,-0.85,-0.8164,-0.7211,-0.6645,-0.6156,-0.5613,-0.6267,-0.7099,-0.7379,-0.8434,-0.93,-0.9167,-0.9222,-0.9337,-0.9405,-0.9622,-0.97,-0.9459,-0.9649,-0.92,-0.7558,-0.7676,-0.7347,-0.5995,-0.6962,-0.7747,-0.7872,-0.8871,-0.9473,-0.9649,-0.9649,-0.941,-0.8866,-0.8939,-0.919,-0.9503,-0.9619,-0.9993,-1.0636,-1.0636,-1.0463,-1.0075,-1.0293,-1.0216,0.0,0.0,0.0,0.0,-0.872,0.0,-0.6571,0.0,-0.6194,-0.5961,0.0,-0.5776,-0.5884,0.0,0.0,-0.6074,-0.5431,-0.4891,-0.4954,-0.4303,-0.3675,-0.316,-0.2399,-0.1869,-0.1866,-0.1636,-0.1361,-0.1142,-0.135,-0.1322,-0.1074,-0.0788,-0.0778,-0.0994,-0.0786,-0.0566,-0.0365,-0.0712,-0.0628,-0.0079,-0.0629,-0.0708,-0.0394,-0.0315,-0.1192,-0.2717,-0.2717,-0.366,-0.5244,-0.5419,-0.5637,-0.5896,-0.6032,-0.6086,-0.6161,-0.675,-0.7332,-0.7865,-0.7739,-0.7939,-0.8081,-0.7132,-0.6437,-0.6042,-0.6142,-0.6886,-0.768,-0.773,-0.8041,-0.8321,-0.7957,-0.708,-0.651,-0.7285,-0.7113,-0.7094,-0.8408,-0.8997,-0.9174,-0.898,-0.929,-0.9564,-0.9581,-0.9612,-0.9622,-0.9588,-0.972,-0.9268,-0.7784,-0.7777,-0.7378,-0.6025,-0.6578,-0.7255,-0.7872,-0.8532,-0.9134,-0.9738,-0.9795,-0.9738,-0.9674,-0.9818,-0.9978,-1.0213,-1.0169,-1.025,-1.0331,-1.0331,-1.0368,-1.0446,-1.0599,-1.0595,0.0,0.0,0.0,0.0,0.0,0.0,-0.7665,0.0,-0.6593,0.0,0.0,0.0,0.0,0.0,0.0,0.0,-0.5526,-0.507,-0.5414,-0.4759,-0.4095,-0.3819,-0.3263,-0.2674,-0.2068,-0.1637,-0.1321,-0.1213,-0.1286,-0.1353,-0.1326,-0.1075,-0.0925,-0.0871,-0.075,-0.0529,-0.0163,-0.0557,-0.055,-0.0196,-0.0432,-0.0471,-0.0314,-0.0196,-0.0789,-0.1909,-0.2458,-0.3428,-0.4598,-0.5261,-0.5645,-0.5915,-0.6037,-0.613,-0.6308,-0.702,-0.7188,-0.7086,-0.7288,-0.7188,-0.6836,-0.5929,-0.5379,-0.5133,-0.5434,-0.6184,-0.6983,-0.7285,-0.7891,-0.8269,-0.7478,-0.6639,-0.6021,-0.5722,-0.5925,-0.6448,-0.7124,-0.8278,-0.9168,-0.9049,-0.9324,-0.9576,-0.9419,-1.0212,-1.0774,-1.0736,-1.0801,-1.0361,-0.8944,-0.8274,-0.7383,-0.6039,-0.6526,-0.7194,-0.7872,-0.8424,-0.9095,-0.9761,-0.9903,-0.9889,-0.9889,-1.0181,-1.0297,-1.028,-1.0449,-1.049,-1.0405,-1.049,-1.0477,-1.0371,-1.0521,-1.0602,-1.4786,0.0,0.0,0.0,0.0,0.0,0.0,0.0,0.0,0.0,0.0,0.0,0.0,0.0,0.0,0.0,0.0,-0.5195,-0.5621,-0.5193,-0.4751,-0.4523,-0.41,-0.3476,-0.2622,-0.2042,-0.1727,-0.162,-0.155,-0.1568,-0.1669,-0.1368,-0.1165,-0.101,-0.0799,-0.0493,-0.0123,-0.0399,-0.0432,-0.0236,-0.0314,-0.0315,-0.0198,-0.0118,-0.0553,-0.1399,-0.2357,-0.3275,-0.424,-0.516,-0.5675,-0.5912,-0.6142,-0.632,-0.6477,-0.7236,-0.7135,-0.6686,-0.7089,-0.6487,-0.5432,-0.4551,-0.4109,-0.4024,-0.4351,-0.5209,-0.6189,-0.6676,-0.7612,-0.8174,-0.7364,-0.6618,-0.5932,-0.5297,-0.5671,-0.6246,-0.6698,-0.8101,-0.9232,-0.9134,-0.9397,-0.958,-0.9319,-1.0604,-1.1527,-1.1098,-1.1247,-1.0914,-0.9357,-0.8234,-0.7199,-0.6039,-0.6342,-0.6891,-0.7564,-0.8208,-0.8983,-0.9883,-1.0053,-1.0051,-1.0051,-1.0358,-1.0443,-1.0341,-1.0548,-1.0602,-1.049,-1.0521,-1.047,-1.0341,-1.0487,-1.0592,0.0,0.0,0.0,-1.2132,0.0,0.0,0.0,0.0,-0.7661,0.0,0.0,0.0,0.0,0.0,0.0,0.0,0.0,0.0,0.0,-0.6001,-0.6027,-0.5498,-0.4833,-0.428,-0.3982,-0.3475,-0.3048,-0.275,-0.2499,-0.2313,-0.218,-0.1757,-0.1557,-0.1749,-0.1076,-0.0589,-0.0379,-0.0322,-0.0196,0.0,-0.0393,-0.0398,0.0,-0.0198,-0.0684,-0.1467,-0.2473,-0.3438,-0.4383,-0.5323,-0.5798,-0.595,-0.6411,-0.6617,-0.6714,-0.709,-0.7188,-0.7188,-0.7188,-0.5982,-0.4266,-0.3207,-0.2882,-0.2816,-0.2566,-0.377,-0.5349,-0.5804,-0.7009,-0.815,-0.8239,-0.7448,-0.6875,-0.7682,-0.7269,-0.7024,-0.8257,-0.9007,-0.936,-0.9153,-0.9473,-0.9694,-0.9335,-1.0604,-1.1269,-1.0054,-1.0411,-1.0105,-0.823,-0.7375,-0.6646,-0.5978,-0.5916,-0.6221,-0.6888,-0.7668,-0.8726,-1.0193,-1.027,-1.0273,-1.0273,-1.0415,-1.049,-1.0483,-1.0493,-1.0497,-1.049,-1.0209,-1.0149,-1.0487,-1.0639,-1.0636,0.0,0.0,-1.1841,-1.2481,0.0,0.0,0.0,0.0,0.0,0.0,0.0,0.0,0.0,0.0,0.0,0.0,0.0,0.0,0.0,-0.5599,-0.5792,-0.6046,-0.5565,-0.5085,-0.4839,-0.3838,-0.3077,-0.2797,-0.2224,-0.1855,-0.1783,-0.1637,-0.1517,-0.1329,-0.098,-0.0654,-0.0388,-0.0206,-0.008,0.0,-0.0119,-0.0118,0.0,-0.0079,-0.0436,-0.1127,-0.2363,-0.3357,-0.4173,-0.5357,-0.5964,-0.6185,-0.6573,-0.698,-0.726,-0.7119,-0.6662,-0.6037,-0.5131,-0.4028,-0.2971,-0.2252,-0.2108,-0.232,-0.2601,-0.3788,-0.528,-0.6395,-0.7442,-0.8274,-0.8484,-0.7853,-0.724,-0.7555,-0.7393,-0.7351,-0.799,-0.8782,-0.9394,-0.928,-0.9542,-0.97,-0.9335,-1.0604,-1.1531,-1.0994,-1.1191,-1.0978,-0.9786,-0.8418,-0.7503,-0.7261,-0.6893,-0.712,-0.8234,-0.9108,-0.9818,-1.0412,-1.0419,-1.0419,-1.0419,-1.0565,-1.0595,-1.0493,-1.0592,-1.0595,-1.049,-1.0392,-1.0293,-1.0142,-0.9478,-0.9673,-1.2879,-1.2135,0.0,-1.2564,-1.1679,0.0,-1.2015,0.0,-1.0338,0.0,0.0,0.0,0.0,0.0,0.0,0.0,0.0,0.0,0.0,-0.5789,-0.589,-0.6336,-0.608,-0.5663,-0.5282,-0.4455,-0.3595,-0.2901,-0.2355,-0.1977,-0.1866,-0.1669,-0.1549,-0.1405,-0.1093,-0.0758,-0.0396,-0.0211,-0.0082,0.0,0.0,0.0,0.0,-0.0359,-0.0722,-0.1184,-0.2727,-0.3696,-0.4262,-0.541,-0.6048,-0.6349,-0.6794,-0.7244,-0.7564,-0.7375,-0.6576,-0.5334,-0.3524,-0.2418,-0.1713,-0.1,-0.0903,-0.126,-0.18,-0.3195,-0.4807,-0.5786,-0.7137,-0.8291,-0.851,-0.8221,-0.7858,-0.7858,-0.78,-0.7741,-0.8005,-0.8725,-0.9278,-0.9223,-0.9542,-0.9761,-0.9518,-1.0365,-1.0989,-1.0938,-1.1191,-1.1042,-1.0032,-0.8727,-0.7808,-0.7564,-0.7482,-0.7958,-0.9121,-0.9723,-1.0161,-1.0565,-1.0571,-1.0571,-1.0571,-1.0666,-1.07,-1.0656,-1.0697,-1.07,-1.0653,-1.0544,-1.0422,-1.0226,-0.8804,-0.8793]},{"header":{"parameterUnit":"m.s-1","parameterCategory":1,"la1":30.6,"la2":29.2853,"lo1":-89.7004,"lo2":-87.6739,"dy":0.0162,"dx":0.0183,"nx":112,"ny":82,"refTime":"2023-10-27T06:00:00:Z","depth":0,"parameterNumber":3,"parameterNumberName":"V-component_of_WINDS"},"data":[0.0,0.0,0.0,0.0,0.0,0.0,0.0,0.0,0.0,0.0,0.0,0.0,0.0,0.0,0.0,0.0,0.0,0.0,0.0,0.0,0.0,0.0,0.0,0.0,0.0,0.0,0.0,0.0,0.0,0.0,0.0,0.0,0.0,0.0,0.0,0.0,0.0,0.0,0.0,0.0,0.0,0.0,0.0,0.0,0.0,0.0,0.0,0.0,0.0,0.0,0.0,0.0,0.0,0.0,0.0,0.0,0.0,0.0,0.0,0.0,0.0,0.0,0.0,0.0,0.0,0.0,0.0,0.0,0.0,0.0,0.0,0.0,0.0,0.0,0.0,0.0,0.0,0.0,0.0,0.0,0.0,0.0,0.0,0.0,0.0,0.0,0.0,0.0,0.0,0.0,1.2091,0.875,0.3135,-0.1631,-0.4692,-0.5333,-0.4214,-0.0923,0.0,0.0,0.0,0.0,0.0,0.0,0.0,0.0,0.0,0.0,0.0,0.0,0.0,0.0,0.0,0.0,0.0,0.0,0.0,0.0,0.0,0.0,0.0,0.0,0.0,0.0,0.0,0.0,0.0,0.0,0.0,0.0,0.0,0.0,0.0,0.0,0.0,0.0,0.0,0.0,0.0,0.0,0.0,0.0,0.0,0.0,0.0,0.0,0.0,0.0,0.0,0.0,0.0,0.0,0.0,0.0,0.0,0.0,0.0,0.0,0.0,0.0,0.0,0.0,0.0,0.0,0.0,0.0,0.0,0.0,0.0,0.0,0.0,0.0,0.0,0.0,0.0,0.0,0.0,0.0,0.0,0.0,0.0,0.0,0.0,0.0,0.0,0.0,0.0,0.0,0.0,0.0,0.0,0.0,0.0,0.0,0.0,0.0,0.0,0.0,0.0,0.0,0.0,0.0,0.878,0.4291,0.1042,-0.175,-0.4049,-0.4206,-0.3108,-0.0556,0.0,0.0,0.0,0.0,0.0,0.0,0.0,0.0,0.0,0.0,0.0,0.0,0.0,0.0,0.0,0.0,0.0,0.0,0.0,0.0,0.0,0.0,0.0,0.0,0.0,0.0,0.0,0.0,0.0,0.0,0.0,0.0,0.0,0.0,0.0,0.0,0.0,0.0,0.0,0.0,0.0,0.0,0.0,0.0,0.0,0.0,0.0,0.0,0.0,0.0,0.0,0.0,0.0,0.0,0.0,0.0,0.0,0.0,0.0,0.0,0.0,0.0,0.0,0.0,0.0,0.0,0.0,0.0,0.0,0.0,0.0,0.0,0.0,0.0,0.0,0.0,0.0,0.0,0.0,0.0,0.0,0.0,0.0,0.0,0.0,0.0,0.0,0.0,0.0,0.0,0.0,0.0,0.0,0.0,0.0,0.0,0.0,0.0,0.0,0.0,0.0,0.0,0.0,1.1043,0.7926,0.4036,0.1579,-0.038,-0.197,-0.2088,-0.0894,0.1976,0.2582,0.0,0.0,0.0,0.0,0.0,0.0,0.0,0.0,0.0,0.0,0.0,0.0,0.0,0.0,0.0,0.0,0.0,0.0,0.0,0.0,0.0,0.0,0.0,0.0,0.0,0.0,0.0,0.0,0.0,0.0,0.0,0.0,0.0,0.0,0.0,0.0,0.0,0.0,0.0,0.0,0.0,0.0,0.0,0.0,0.0,0.0,0.0,0.0,0.0,0.0,0.0,0.0,0.0,0.0,0.0,0.0,0.0,0.0,0.0,0.0,0.0,0.0,0.0,0.0,0.0,0.0,0.0,0.0,0.0,0.0,0.0,0.0,0.0,0.0,0.0,0.0,0.0,0.0,0.0,0.0,0.0,0.0,0.0,0.0,0.0,0.0,0.0,0.0,0.0,0.0,0.0,0.0,0.0,0.0,0.0,0.0,0.0,0.0,0.0,0.0,0.0,0.0,1.0705,0.8236,0.5061,0.2902,0.1298,0.019,0.0096,0.1301,0.4169,0.5723,0.0,0.0,0.0,0.0,0.0,0.0,0.0,0.0,0.0,0.0,0.0,0.0,0.0,0.0,0.0,0.0,0.0,0.0,0.0,0.0,0.0,0.0,0.0,0.0,0.0,0.0,0.0,0.0,0.0,0.0,0.0,0.0,0.0,0.0,0.0,0.0,0.0,0.0,0.0,0.0,0.0,0.0,0.0,0.0,0.0,0.0,0.0,0.0,0.0,0.0,0.0,0.0,0.0,0.0,0.0,0.0,0.0,0.0,0.0,0.0,0.0,0.0,0.0,0.0,0.0,0.0,0.0,0.0,0.0,0.0,0.0,0.0,0.0,0.0,0.0,0.0,0.0,0.0,0.0,0.0,0.0,0.0,0.0,0.0,0.0,0.0,0.0,0.0,0.0,0.0,0.0,0.0,0.0,0.0,0.0,0.0,0.0,0.0,0.0,0.0,0.0,0.0,1.1142,0.9597,0.634,0.4338,0.2812,0.175,0.1858,0.283,0.4749,0.719,0.0,0.0,0.0,0.0,0.0,0.0,0.0,0.0,0.0,0.0,0.0,0.0,0.0,0.0,0.0,0.0,0.0,0.0,0.0,0.0,0.0,0.0,0.0,0.0,0.0,0.0,0.0,0.0,0.0,0.0,0.0,0.0,0.0,0.0,0.0,0.0,0.0,0.0,0.0,0.0,0.0,0.0,0.0,0.0,0.0,0.0,0.0,0.0,0.0,0.0,0.0,0.0,0.0,0.0,0.0,0.0,0.0,0.0,0.0,0.0,0.0,0.0,0.0,0.0,0.0,0.0,0.0,0.0,0.0,0.0,0.0,0.0,0.0,0.0,0.0,0.0,0.0,0.0,0.0,0.0,0.0,0.0,0.0,0.0,0.0,0.0,0.0,0.0,0.0,0.0,0.0,0.0,0.0,0.0,0.0,0.0,0.0,0.0,0.0,0.0,0.0,0.0,1.2666,1.1324,0.8761,0.7257,0.6163,0.5469,0.6258,0.7074,0.775,0.0,0.0,0.0,0.0,0.0,0.0,0.0,0.0,0.0,0.0,0.0,0.0,0.0,0.0,0.0,0.0,0.0,0.0,0.0,0.0,0.0,0.0,0.0,0.0,0.0,0.0,0.0,0.0,0.0,0.0,0.0,0.0,0.0,0.0,0.0,0.0,0.0,0.0,0.0,0.0,0.0,0.0,0.0,0.0,0.0,0.0,0.0,0.0,0.0,0.0,0.0,0.0,0.0,0.0,0.0,0.0,0.0,0.0,0.0,0.0,0.0,0.0,0.0,0.0,0.0,0.0,0.0,0.0,0.0,0.0,0.0,0.0,0.0,0.0,0.0,0.0,0.0,0.0,0.0,0.0,0.0,0.0,0.0,0.0,0.0,0.0,0.0,0.0,0.0,0.0,0.0,0.0,0.0,0.0,0.0,0.0,0.0,0.0,0.0,0.0,0.0,0.0,1.477,1.4019,1.2914,0.0,0.987,0.8942,0.8453,0.9414,1.0072,1.021,0.0,0.0,0.0,0.0,0.0,0.0,0.0,0.0,0.0,0.0,0.0,0.0,0.0,0.0,0.0,0.0,0.0,0.0,0.0,0.0,0.0,0.0,0.0,0.0,0.0,0.0,0.0,0.0,0.0,0.0,0.0,0.0,0.0,0.0,0.0,0.0,0.0,0.0,0.0,0.0,0.0,0.0,0.0,0.0,0.0,0.0,0.0,0.0,0.0,0.0,0.0,0.0,0.0,0.0,0.0,0.0,0.0,0.0,0.0,0.0,0.0,0.0,0.0,0.0,0.0,0.0,0.0,0.0,0.0,0.0,0.0,0.0,0.0,0.0,0.0,0.0,0.0,0.0,0.0,0.0,0.0,0.0,0.0,0.0,0.0,0.0,0.0,0.0,0.0,0.0,0.0,0.0,0.0,0.0,0.0,0.0,0.0,0.0,0.0,0.0,0.0,0.0,1.5808,1.5156,1.4292,1.3157,1.1841,1.0834,1.0306,1.0733,1.1219,0.0,0.0,0.0,0.0,0.0,0.0,0.0,0.0,0.0,0.0,0.0,0.0,0.0,0.0,0.0,0.0,0.0,0.0,0.0,0.0,0.0,0.0,0.0,0.0,0.0,0.0,0.0,0.0,0.0,0.0,0.0,0.0,0.0,0.0,0.0,0.0,0.0,0.0,0.0,0.0,0.0,0.0,0.0,0.0,0.0,0.0,0.0,0.0,0.0,0.0,0.0,0.0,0.0,0.0,0.0,0.0,0.0,0.0,0.0,0.0,0.0,0.0,0.0,0.0,0.0,0.0,0.0,0.0,0.0,0.0,0.0,0.0,0.0,0.0,0.0,0.0,0.0,0.0,0.0,0.0,0.0,0.0,0.0,0.0,0.0,0.0,0.0,0.0,0.0,0.0,0.0,0.0,0.0,0.0,0.0,0.0,0.0,0.0,0.0,0.0,0.0,0.0,0.0,1.7317,1.7579,1.7333,1.5989,1.5404,1.5122,1.4923,1.5525,1.5696,1.5143,0.0,0.0,0.0,0.0,0.0,0.0,0.0,0.0,0.0,0.0,0.0,0.0,0.0,0.0,0.0,0.0,0.0,0.0,0.0,0.0,0.0,0.0,0.0,0.0,0.0,0.0,0.0,0.0,0.0,0.0,0.0,0.0,0.0,0.0,0.0,0.0,0.0,0.0,0.0,0.0,0.0,0.0,0.0,0.0,0.0,0.0,0.0,0.0,0.0,0.0,0.0,0.0,0.0,0.0,0.0,0.0,0.0,0.0,0.0,0.0,0.0,0.0,0.0,0.0,0.0,0.0,0.0,0.0,0.0,0.0,0.0,0.0,0.0,0.0,0.0,0.0,0.0,0.0,0.0,0.0,0.0,0.0,0.0,0.0,0.0,0.0,0.0,0.0,0.0,0.0,0.0,0.0,0.0,0.0,0.0,0.0,0.0,0.0,0.0,0.0,0.0,0.0,1.8911,1.9353,1.9332,1.8316,1.7683,1.7443,1.7631,1.8189,1.8127,1.7209,0.0,0.0,0.0,0.0,0.0,0.0,0.0,0.0,0.0,0.0,0.0,0.0,0.0,0.0,0.0,0.0,0.0,0.0,0.0,0.0,0.0,0.0,0.0,0.0,0.0,0.0,0.0,0.0,0.0,0.0,0.0,0.0,0.0,0.0,0.0,0.0,0.0,0.0,0.0,0.0,0.0,0.0,0.0,0.0,0.0,0.0,0.0,0.0,0.0,0.0,0.0,0.0,0.0,0.0,0.0,0.0,0.0,0.0,0.0,0.0,0.0,0.0,0.0,0.0,0.0,0.0,0.0,0.0,0.0,0.0,0.0,0.0,0.0,0.0,0.0,0.0,0.0,0.0,0.0,0.0,0.0,0.0,0.0,0.0,0.0,0.0,0.0,0.0,0.0,0.0,0.0,0.0,0.0,0.0,0.0,0.0,0.0,0.0,0.0,0.0,0.0,0.0,2.0786,2.0852,2.082,2.049,1.9291,1.8717,1.9261,1.9557,1.9427,1.855,0.0,0.0,0.0,0.0,0.0,0.0,0.0,0.0,0.0,0.0,0.0,0.0,0.0,0.0,0.0,0.0,0.0,0.0,0.0,0.0,0.0,0.0,0.0,0.0,0.0,0.0,0.0,0.0,0.0,0.0,0.0,0.0,0.0,0.0,0.0,0.0,0.0,0.0,0.0,0.0,0.0,0.0,0.0,0.0,0.0,0.0,0.0,0.0,0.0,0.0,0.0,0.0,0.0,0.0,0.0,0.0,0.0,0.0,0.0,0.0,3.4075,3.2136,0.0,0.0,0.0,0.0,0.0,0.0,0.0,0.0,0.0,0.0,0.0,0.0,0.0,0.0,0.0,0.0,0.0,0.0,0.0,0.0,0.0,0.0,0.0,0.0,0.0,0.0,0.0,0.0,0.0,0.0,0.0,0.0,0.0,0.0,0.0,0.0,0.0,0.0,0.0,0.0,2.3589,2.4013,2.4161,2.3891,2.2942,2.2486,2.2909,2.3134,2.2766,2.1717,2.1699,0.0,0.0,0.0,0.0,0.0,0.0,0.0,0.0,0.0,0.0,0.0,0.0,0.0,0.0,0.0,0.0,0.0,0.0,0.0,0.0,0.0,0.0,0.0,0.0,0.0,0.0,0.0,0.0,0.0,0.0,0.0,0.0,0.0,0.0,0.0,0.0,0.0,0.0,0.0,0.0,0.0,0.0,0.0,0.0,0.0,0.0,0.0,0.0,0.0,0.0,0.0,0.0,0.0,0.0,0.0,0.0,0.0,0.0,0.0,3.8682,3.6749,0.0,0.0,0.0,0.0,0.0,0.0,0.0,0.0,0.0,0.0,0.0,0.0,0.0,0.0,0.0,0.0,0.0,0.0,0.0,0.0,0.0,0.0,0.0,0.0,0.0,0.0,0.0,0.0,0.0,0.0,0.0,0.0,0.0,0.0,0.0,0.0,0.0,0.0,0.0,0.0,2.4755,2.5469,2.5621,2.4883,2.4699,2.4693,2.4808,2.5469,2.5383,2.4352,2.3793,0.0,0.0,0.0,0.0,0.0,0.0,0.0,0.0,0.0,0.0,0.0,0.0,0.0,0.0,0.0,0.0,0.0,0.0,0.0,0.0,0.0,0.0,0.0,0.0,0.0,0.0,0.0,0.0,0.0,0.0,0.0,0.0,0.0,0.0,0.0,0.0,0.0,0.0,0.0,0.0,0.0,0.0,0.0,0.0,0.0,0.0,0.0,0.0,0.0,0.0,0.0,0.0,0.0,4.7426,4.7839,4.7019,4.6349,4.7034,4.8497,4.4739,4.2882,4.2376,4.0531,0.0,0.0,0.0,0.0,0.0,0.0,0.0,0.0,0.0,0.0,0.0,0.0,0.0,0.0,0.0,0.0,0.0,0.0,0.0,0.0,0.0,0.0,0.0,0.0,3.6746,3.5518,3.4668,0.0,0.0,0.0,0.0,0.0,0.0,0.0,0.0,0.0,0.0,0.0,2.6039,2.6719,2.6744,2.5576,2.5947,2.6246,2.6144,2.7153,2.7469,2.6651,2.5669,2.4764,0.0,0.0,0.0,0.0,0.0,0.0,0.0,0.0,0.0,0.0,0.0,0.0,0.0,0.0,0.0,0.0,0.0,0.0,0.0,0.0,0.0,0.0,0.0,0.0,0.0,0.0,0.0,0.0,0.0,0.0,0.0,0.0,4.0038,4.0864,0.0,0.0,0.0,0.0,0.0,0.0,0.0,0.0,0.0,0.0,0.0,0.0,0.0,4.8155,4.884,5.0454,5.1123,5.0815,5.3453,5.3984,5.2725,5.3036,5.3448,5.387,5.305,0.0,4.3412,4.3275,0.0,0.0,0.0,0.0,0.0,0.0,0.0,0.0,0.0,0.0,0.0,0.0,0.0,0.0,0.0,0.0,0.0,0.0,0.0,0.0,0.0,0.0,4.0959,4.0655,4.046,4.0609,0.0,3.6567,3.1958,3.2594,3.1454,0.0,0.0,0.0,0.0,0.0,0.0,0.0,2.9753,2.9606,2.9202,2.8578,2.8057,2.7875,2.825,2.8756,2.8944,2.8649,2.8066,2.7544,2.7176,2.5851,0.0,0.0,0.0,0.0,0.0,0.0,0.0,0.0,0.0,0.0,0.0,0.0,0.0,0.0,0.0,0.0,0.0,0.0,0.0,0.0,0.0,0.0,0.0,0.0,0.0,0.0,0.0,0.0,0.0,3.9868,4.1322,4.0269,4.1045,4.104,0.0,0.0,0.0,0.0,0.0,0.0,0.0,0.0,0.0,4.9375,4.994,5.0474,5.0925,5.3105,5.3937,5.345,5.5558,5.626,5.57,5.5639,5.5765,5.6062,5.6312,5.394,4.9828,4.8224,4.6094,4.3702,0.0,0.0,0.0,0.0,4.214,4.2783,4.3832,4.4075,4.3829,4.3418,0.0,0.0,0.0,0.0,0.0,0.0,0.0,3.9064,0.0,0.0,4.1253,4.2133,4.172,4.1357,4.223,3.9244,3.6377,0.0,3.5306,3.3696,3.1116,0.0,0.0,0.0,0.0,2.9984,3.0544,3.0278,2.9809,2.912,2.8901,2.8869,2.9069,2.9515,2.999,3.048,2.9883,2.9388,2.9164,2.8057,2.7459,0.0,0.0,0.0,0.0,0.0,0.0,0.0,0.0,0.0,0.0,0.0,0.0,0.0,0.0,0.0,0.0,0.0,0.0,0.0,0.0,0.0,0.0,0.0,0.0,0.0,0.0,0.0,0.0,4.1812,4.2971,4.0814,4.3096,4.3696,0.0,0.0,0.0,0.0,0.0,0.0,4.915,5.0375,5.1111,5.1272,5.2319,5.3044,5.336,5.5174,5.5911,5.5529,5.6701,5.7262,5.7258,5.6937,5.6956,5.7243,5.7702,5.6978,5.5322,5.2636,5.0665,4.9135,4.6832,4.5539,4.4992,4.5693,4.5607,4.5307,4.6893,4.6993,4.6254,4.5345,4.4716,4.3771,4.1201,0.0,0.0,0.0,0.0,4.0093,4.2206,4.1791,4.1261,4.2903,4.2538,4.1913,4.2312,4.1345,4.0182,0.0,3.8531,3.6948,3.3752,0.0,0.0,0.0,0.0,3.0805,3.1398,3.0909,3.0265,2.9624,2.9706,2.9884,3.0043,3.0554,3.119,3.1886,3.1379,3.0941,3.0654,2.9918,2.9378,2.9008,0.0,0.0,0.0,0.0,0.0,0.0,0.0,0.0,0.0,0.0,0.0,0.0,0.0,0.0,0.0,0.0,0.0,0.0,0.0,0.0,0.0,0.0,0.0,0.0,0.0,0.0,0.0,0.0,0.0,4.5466,4.7779,0.0,0.0,0.0,0.0,4.8311,4.8271,4.9759,5.3383,5.4081,5.5247,5.7188,5.7217,5.7314,5.7605,5.6917,5.6939,5.775,5.7683,5.7611,5.7485,5.7611,5.7794,5.8028,5.793,5.7622,5.704,5.5383,5.3476,5.1608,5.1116,5.0392,4.9656,5.0446,5.0523,5.028,5.0484,5.0055,4.9486,5.0116,4.902,4.7137,4.5341,4.4299,0.0,0.0,4.321,4.263,4.2836,4.2723,4.2687,4.319,4.3548,4.3845,4.4174,4.2964,4.1503,0.0,3.9614,3.8641,3.7725,0.0,3.612,3.5424,3.4161,3.3367,3.3528,3.2259,3.1294,3.1101,3.0982,3.1144,3.1734,3.2376,3.2713,3.2538,3.2575,3.2345,3.1833,3.1298,3.0973,3.0968,2.9863,0.0,0.0,0.0,0.0,0.0,0.0,0.0,0.0,0.0,0.0,0.0,0.0,0.0,0.0,0.0,0.0,0.0,0.0,0.0,0.0,0.0,0.0,0.0,0.0,0.0,0.0,0.0,0.0,4.8131,5.022,0.0,5.0264,5.0452,5.1335,5.2998,5.3912,5.495,5.6271,5.7501,5.8028,5.7782,5.8256,5.8359,5.7969,5.771,5.7738,5.8034,5.8369,5.8506,5.846,5.7929,5.7772,5.7803,5.7285,5.6974,5.6806,5.6297,5.5196,5.3801,5.3206,5.2562,5.1926,5.1705,5.1548,5.1426,5.1494,5.0969,5.0185,4.9429,4.8007,4.6471,4.5771,4.4664,4.3775,4.4264,4.35,4.2777,4.3835,4.3414,4.2889,4.3687,4.3594,4.339,4.3582,4.3014,4.2317,4.1708,4.0839,3.9845,3.8694,3.8187,3.7559,3.6424,3.5385,3.4525,3.3954,3.3265,3.2595,3.1967,3.174,3.1937,3.2679,3.258,3.283,3.3702,3.341,3.3552,3.4301,3.4279,3.4001,3.3421,3.2707,3.2068,0.0,0.0,0.0,0.0,0.0,0.0,0.0,0.0,0.0,0.0,0.0,0.0,0.0,0.0,0.0,0.0,0.0,0.0,0.0,0.0,0.0,0.0,0.0,0.0,0.0,4.8941,5.1407,5.0594,5.3117,5.4591,5.3733,5.4369,5.5483,5.7039,5.7742,5.8099,5.8065,5.924,5.9267,5.7792,5.8505,5.8601,5.7956,5.7981,5.8006,5.8012,5.8116,5.8115,5.7975,5.7183,5.6891,5.6964,5.6439,5.6164,5.6073,5.6309,5.5819,5.4905,5.4832,5.4507,5.4007,5.3478,5.2869,5.2226,5.1683,5.1135,5.0429,4.8815,4.765,4.6753,4.6148,4.5263,4.4613,4.4963,4.4205,4.3484,4.44,4.3733,4.2995,4.3816,4.347,4.3032,4.325,4.3105,4.2774,4.2217,4.1617,4.0834,3.9575,3.9146,3.8568,3.7249,3.6283,3.5404,3.4611,3.4405,3.4011,3.3172,3.309,3.3272,3.3645,3.3306,3.3469,3.4333,3.4145,3.4513,3.5646,3.5588,3.5497,3.5448,3.4551,3.3818,3.3256,0.0,0.0,0.0,0.0,0.0,0.0,0.0,0.0,0.0,0.0,0.0,0.0,0.0,0.0,0.0,0.0,0.0,0.0,0.0,0.0,0.0,0.0,0.0,5.0294,5.2698,5.4029,5.311,5.6598,5.8354,5.6455,5.7556,5.8892,6.0115,5.9323,5.8811,5.8805,5.9338,5.904,5.7722,5.8257,5.8373,5.7983,5.7812,5.7812,5.7928,5.7006,5.6395,5.6122,5.5416,5.5267,5.5579,5.5471,5.5225,5.4982,5.55,5.5334,5.4855,5.6073,5.6313,5.597,5.5916,5.4684,5.2821,5.1224,5.0655,5.038,4.88,4.8383,4.8236,4.6666,4.6355,4.6487,4.6097,4.5507,4.4861,4.4419,4.367,4.3142,4.3511,4.3267,4.305,4.3444,4.3357,4.2959,4.2102,4.1923,4.1612,4.0598,3.9953,3.9237,3.812,3.7039,0.0,3.5608,3.57,3.5494,3.4704,3.503,3.5128,3.4723,3.4755,3.4725,3.4537,3.4821,3.5247,3.5811,3.5133,3.5414,3.6903,3.5207,3.4426,3.4609,0.0,0.0,0.0,0.0,0.0,0.0,0.0,0.0,0.0,0.0,0.0,0.0,0.0,0.0,0.0,0.0,0.0,0.0,0.0,0.0,0.0,5.0177,5.1982,5.204,5.4435,5.6429,5.7023,5.8446,5.9527,5.9837,6.0333,6.0549,6.0348,6.058,6.0264,5.9219,5.9824,5.9982,5.9513,5.9741,5.978,5.9578,5.9043,5.8805,5.8826,5.7906,5.7396,5.7277,5.5827,5.5238,5.5321,5.4187,5.3646,5.3567,5.3701,5.3663,5.3608,5.4824,5.5306,5.512,5.3957,5.2837,5.1713,5.0639,4.988,4.9232,4.8196,4.7507,4.6986,4.6557,4.6069,4.5637,4.5521,4.5008,4.4436,4.4161,4.401,4.3958,4.3952,4.3855,4.3823,4.4042,4.3912,4.3542,4.2702,4.2429,4.1987,4.089,4.0164,3.96,3.919,3.8258,0.0,3.6415,3.6143,3.5815,3.5311,3.5462,3.5857,3.6491,3.5661,3.5596,3.6713,3.5878,3.6307,3.8438,3.7853,3.7509,3.7547,3.7256,3.642,0.0,0.0,0.0,0.0,0.0,0.0,0.0,0.0,0.0,0.0,0.0,0.0,0.0,0.0,0.0,0.0,0.0,0.0,0.0,0.0,0.0,0.0,5.3471,5.4805,5.5166,5.699,5.8639,5.9628,6.0045,6.0549,6.1307,6.1147,6.0967,6.0899,6.099,6.0673,5.9797,6.0228,6.0225,5.9634,5.9674,5.9693,5.9572,5.9185,5.9022,5.9101,5.7826,5.7208,5.7152,5.5416,5.4727,5.4868,5.3982,5.3703,5.388,5.388,5.3849,0.0,0.0,0.0,0.0,0.0,5.176,5.1103,5.015,4.926,4.8439,4.7618,4.6754,4.5918,4.5565,4.5138,4.4748,4.4748,4.4473,4.4147,4.4036,4.407,4.4131,4.4155,4.4091,4.4013,4.3844,4.3751,4.3367,4.2238,4.1962,0.0,4.055,4.0077,3.9659,3.9132,3.862,3.7969,3.7158,3.7255,3.729,3.7012,3.7295,3.7821,3.8462,3.7351,0.0,0.0,0.0,3.7044,3.8732,3.9041,0.0,0.0,0.0,3.8329,3.7006,0.0,0.0,0.0,4.0363,4.1335,0.0,0.0,0.0,0.0,0.0,0.0,0.0,0.0,0.0,0.0,0.0,0.0,0.0,0.0,0.0,0.0,5.6682,5.7568,5.8661,5.96,6.0329,6.0832,6.0983,6.1083,6.1226,6.0667,6.0615,6.1313,6.0788,6.0396,6.0302,6.0416,0.0,0.0,0.0,5.8784,5.8739,5.876,5.8843,5.9005,5.7322,5.65,5.6425,5.4708,5.4106,5.446,5.4363,5.4564,5.4941,5.496,5.4924,5.4832,5.4189,5.3903,5.3694,5.2036,5.1209,5.0714,4.9646,0.0,0.0,4.707,4.6091,4.51,4.4318,4.4064,4.4048,4.4048,4.4017,4.402,4.3989,4.3958,4.3989,4.4166,4.4121,4.3897,4.3305,4.3262,4.2869,4.1283,4.1048,4.087,4.0011,3.9861,3.9542,3.8588,3.8496,3.8378,3.7891,3.8576,3.9046,3.8905,0.0,0.0,4.0022,3.9084,3.894,4.0004,3.8564,3.772,3.784,3.941,3.9788,3.8814,3.9734,3.993,3.9325,4.0178,4.0113,3.9197,4.0737,4.2341,0.0,0.0,0.0,0.0,0.0,0.0,0.0,0.0,0.0,0.0,0.0,0.0,0.0,0.0,0.0,5.5705,5.7403,5.8711,5.9473,5.974,5.9662,5.9086,5.9268,5.945,5.947,6.0132,6.0379,5.9928,6.036,6.0378,5.9791,5.979,5.9606,5.9234,5.9043,5.8964,5.8925,5.9045,5.9159,5.9215,5.7808,0.0,5.6995,5.5346,5.4704,5.4855,5.4192,5.3959,5.4047,5.3992,5.4321,5.4731,5.3929,5.3203,5.2515,5.1483,5.0634,4.9903,4.8983,4.8137,4.7305,4.6441,4.5602,4.4864,4.4694,4.4479,0.0,4.4318,4.4244,4.4119,4.3961,4.4079,4.4221,4.4192,4.4303,4.424,4.3698,4.3587,4.3172,4.1681,4.1397,4.1159,4.0348,3.9894,3.9577,3.9313,3.9008,3.8788,3.8676,3.8606,3.8487,3.8285,3.8394,3.8616,3.8958,3.8259,3.8223,3.9246,3.9322,3.9129,3.868,4.0718,4.0675,3.8139,4.0047,4.0133,3.822,3.903,3.9666,4.0183,4.1773,4.1681,0.0,0.0,0.0,0.0,0.0,0.0,0.0,0.0,0.0,0.0,0.0,5.2364,5.4335,0.0,5.6292,5.8406,5.9316,5.9789,5.9931,5.995,5.9694,5.8985,5.8965,5.9101,5.9327,5.9758,5.9978,5.9803,6.021,6.0297,5.9975,5.9969,5.9884,5.9649,5.9152,5.8859,5.8755,5.8323,5.8171,5.8278,5.7113,5.656,5.6512,5.5287,5.4884,5.5088,5.4699,5.4397,5.4106,5.363,5.367,5.3957,5.3518,5.3003,5.2454,5.1896,5.0818,4.9515,4.8964,4.7933,4.678,4.6385,4.5556,4.477,4.4788,4.4612,4.4397,4.4397,4.4254,4.4104,4.4104,4.4188,4.4219,4.3927,4.3928,4.3737,4.2769,4.2525,4.2167,4.1055,4.0845,4.0721,4.0358,4.0007,3.977,3.9658,3.9298,3.9064,3.9064,3.8873,3.8872,3.9218,3.9255,3.9504,4.009,3.9814,3.9461,3.9119,3.9728,3.9767,3.9026,4.0085,4.0004,3.8525,4.0055,4.0073,3.8488,3.9437,3.9914,3.997,4.1319,4.1384,0.0,0.0,0.0,0.0,0.0,0.0,0.0,5.0434,5.0989,5.301,5.4135,5.5452,5.7644,5.8181,5.8961,6.1006,6.1017,6.063,6.0212,6.0156,5.9908,5.9245,5.9159,5.9326,5.9746,5.9677,5.976,6.0099,6.0184,6.0237,6.0274,6.0362,6.0278,6.0056,5.9378,5.8963,5.8806,5.7878,5.7503,5.7643,5.6558,5.6057,5.6052,5.5234,5.5009,5.5275,5.5167,5.489,5.4434,5.3568,5.3203,5.3203,5.3203,5.2837,5.2287,5.2107,5.0922,4.9298,4.8747,4.7627,4.6451,4.6332,4.5657,4.4879,4.4938,4.4776,4.4546,4.4493,4.4289,4.414,4.4285,4.4383,4.4344,4.3919,4.3739,4.3327,4.2008,4.157,4.1197,4.0434,4.0253,4.0234,4.0291,4.0118,3.9933,3.9804,3.9464,3.9224,3.9183,3.9129,3.9361,4.0067,4.0155,4.0401,4.1051,4.1107,4.0531,3.9194,3.9751,3.9854,3.9202,3.9277,3.9323,3.924,4.0044,3.9974,3.9003,4.0027,4.0026,3.9105,4.0307,4.099,4.8009,4.7159,4.7835,5.0779,5.0615,5.1133,0.0,5.6553,5.628,5.9031,5.9113,5.9112,6.051,6.0181,6.0007,6.0973,6.109,6.0892,6.0418,6.0373,5.9939,5.8808,5.9349,5.9871,6.0038,6.0038,6.0084,6.0184,6.0237,6.0274,6.0217,6.0324,6.0324,6.0184,5.996,5.9884,5.9927,5.9281,5.8955,5.8876,5.7578,5.6848,5.6671,5.5864,5.5508,5.5524,5.4869,5.4566,5.4434,5.3568,5.3203,5.3203,5.3203,5.2259,5.0912,5.0832,5.016,4.9086,4.749,4.6827,4.655,4.5841,4.5515,4.5419,4.5495,4.5322,4.5063,4.4812,4.4656,4.4503,4.434,4.4655,4.5,4.4938,4.4595,4.4031,4.3119,4.2341,4.1582,4.0718,4.0411,4.0283,4.0311,4.0031,3.9804,3.9717,3.9526,3.9311,3.9142,3.9101,3.9138,3.9231,3.925,3.9287,3.9361,3.938,3.9305,3.9101,3.9194,3.9317,3.9452,3.9964,4.009,3.9739,4.0346,4.0002,3.8658,3.9496,3.908,3.7602,3.9256,4.0024,5.1211,5.1319,5.1965,5.3054,5.3967,5.5277,5.78,5.7781,5.7906,6.0291,6.056,6.0518,6.1077,6.0875,6.0712,6.106,6.1099,6.1022,6.0779,6.0757,6.0362,5.9357,6.0003,6.0284,5.9635,5.9998,6.0368,6.0585,6.0676,6.0696,6.0677,6.0773,6.0586,6.0108,5.9537,5.9027,5.8596,5.7757,5.7253,5.7109,5.6562,5.619,5.5981,5.5688,5.5313,5.4866,5.4035,5.3411,5.2901,5.2536,5.2103,5.1687,5.2186,5.1352,4.9892,5.0451,4.9481,4.7798,4.7068,4.6491,4.6019,4.5706,4.559,4.5573,4.5635,4.5438,4.5191,4.5107,4.4872,4.4669,4.4701,4.4927,4.5046,4.4622,4.4036,4.3346,4.2468,4.162,4.0927,4.061,4.0462,4.0596,4.1147,4.0591,4.0253,4.0731,4.0031,3.9401,3.9232,3.9219,3.9197,3.9115,3.9101,3.9101,3.9101,3.8674,3.8599,3.9064,3.8798,3.8677,3.8745,3.9151,3.8973,3.8188,3.852,3.8369,3.7668,3.8238,3.8156,3.7509,3.8418,3.8842,5.2948,5.4032,5.4927,5.4993,5.6774,5.8541,5.8537,5.8712,5.9248,6.0702,6.107,6.1108,6.1164,6.1127,6.108,6.108,6.0896,6.0828,6.0973,6.0596,6.0044,5.9393,5.9864,5.9903,5.9037,5.9939,6.0671,6.0905,6.0981,6.1012,6.1022,6.0876,6.0543,5.9993,5.9188,5.8462,5.7862,5.6915,5.6341,5.6146,5.5904,5.5684,5.548,5.5539,5.5146,5.4406,5.3507,5.2621,5.1834,5.1823,5.1427,5.0924,5.1527,5.0722,4.9255,4.9778,4.8644,4.6806,4.6576,4.6075,4.5554,4.5632,4.5624,4.5571,4.566,4.5521,4.5332,4.5312,4.5118,4.4954,4.5041,4.5182,4.517,4.4668,4.3992,4.3235,4.2377,4.153,4.0874,4.0681,4.061,4.079,4.146,4.1081,4.0905,4.1536,4.0948,4.02,3.9551,3.9452,3.9383,3.9232,3.9205,3.9178,3.9115,3.8562,3.8469,3.9064,3.8583,3.838,3.8628,3.8372,3.805,3.765,3.7714,3.7476,3.6911,3.7698,3.7715,3.7045,3.7749,3.7989,5.2118,5.3403,5.4683,5.6549,5.8442,5.9869,5.9927,6.0583,6.1212,6.127,6.1182,6.1099,6.1099,6.1041,6.1002,6.1002,6.0394,6.0191,6.0892,5.9551,5.8449,5.8349,5.8377,5.836,5.8319,5.9933,6.0989,6.0992,6.1002,6.1022,6.1089,6.0425,5.9993,5.9913,5.9255,5.8843,5.8751,5.7961,5.7444,5.724,5.6397,5.5885,5.5703,5.5684,5.5296,5.4541,5.36,5.2692,5.1885,5.1834,5.1774,5.1764,5.1719,5.0681,4.912,4.8363,4.75,4.6589,4.5736,4.5429,4.5429,4.5568,4.5568,4.5513,4.5586,4.564,4.5631,4.5362,4.5429,4.5513,4.5253,4.539,4.5594,4.5642,4.5143,4.4438,4.3621,4.2801,4.1999,4.1143,4.0872,4.0786,4.0735,4.1254,4.1663,4.169,4.233,4.2096,4.0127,3.9832,3.9717,3.9508,3.9502,3.9389,3.9129,3.9082,3.9064,3.9101,3.8539,3.8665,3.9711,3.8193,3.7938,3.9215,3.8976,3.8144,3.6709,3.8423,3.7981,3.5589,3.7308,3.7715,5.2384,5.4844,5.7187,5.8616,5.9895,6.0801,6.0747,6.0997,6.1072,6.05,5.9765,5.9079,5.8539,5.8433,5.8597,5.9126,5.9639,6.0233,6.0964,6.0644,6.0092,5.9447,5.9833,5.9929,5.9349,5.9271,5.9532,6.0152,5.9708,5.9444,5.9495,5.9232,5.8855,5.8381,5.8156,5.7754,5.7139,5.6828,5.6567,5.6372,5.5933,5.5449,5.4891,5.4362,5.3705,5.3022,5.3299,5.2586,5.1313,5.2366,5.2088,5.0932,5.024,4.9283,4.816,4.7361,4.6559,4.5812,4.56,4.5566,4.5607,4.5651,4.5651,4.5643,4.566,4.5654,4.5631,4.5577,4.5559,4.5522,4.5485,4.5632,4.5793,4.584,4.4882,4.3909,4.3616,4.2443,4.1346,4.1054,4.0964,4.1289,4.2364,4.2156,4.2012,4.2549,4.2213,4.1638,4.0919,4.0224,3.9772,3.9705,3.9693,3.9663,3.9559,3.907,3.9006,3.9541,3.9039,3.887,3.9185,3.8229,3.7625,3.7452,3.6876,3.6282,3.5705,3.6428,3.6355,3.5579,3.6218,3.6391,5.3742,5.6524,5.8969,6.0092,6.1025,6.1518,6.0872,6.0745,6.0511,5.9647,5.8365,5.7254,5.6725,5.6638,5.6791,5.7249,5.8027,5.9052,6.0442,5.9936,5.9527,5.9823,6.0017,6.0056,0.0,0.0,5.8442,5.9659,5.9312,5.8913,5.8637,5.8316,5.7947,5.754,5.7256,5.6822,5.6272,5.6161,5.5862,5.5355,5.5252,5.482,5.4063,5.356,5.2934,5.2279,5.2821,5.2225,5.0972,5.2284,5.2117,5.0951,5.0278,4.9321,4.8209,4.7399,4.6416,4.5485,4.5568,4.5629,4.566,4.5695,4.5676,4.566,4.566,4.5654,4.564,4.5693,4.5629,4.5584,4.5618,4.5746,4.579,4.5499,4.4708,4.3912,4.3657,4.272,4.1933,4.1933,4.1944,4.2291,4.3357,4.3178,4.3169,4.3987,4.3165,4.2333,4.1981,4.1083,4.0439,4.035,4.0084,3.9876,3.9813,3.9323,3.925,3.977,3.9281,3.9087,3.9355,3.843,3.7805,3.7536,3.6726,3.6111,3.5775,3.5878,3.581,3.5604,3.5674,3.5907,5.5948,5.8252,5.9927,6.0952,6.1735,6.1881,6.0351,5.996,5.9661,5.8692,5.6979,5.5625,0.0,0.0,5.5633,5.5555,5.5914,5.7056,5.9543,5.7795,5.7177,0.0,0.0,0.0,0.0,0.0,0.0,5.9512,5.9601,5.9254,5.8433,5.7654,5.7279,5.7345,5.6606,5.6201,5.6206,5.6021,5.5418,5.4395,5.4414,5.4014,5.3261,5.3316,5.2945,5.2232,5.229,5.1741,5.0869,5.1726,5.1924,5.167,5.1595,5.0585,4.9043,4.819,4.6935,4.5652,4.5614,4.5614,4.5622,4.5693,4.5657,4.5614,4.5622,4.5648,4.5701,4.5701,4.5706,4.57,4.57,4.5742,4.5608,4.484,4.4691,4.4516,4.3813,4.3635,4.3601,4.3608,4.3688,4.3735,4.3669,4.4277,4.501,4.5776,4.5083,4.4141,4.3273,4.2349,4.1647,4.1357,4.0634,4.0089,3.9859,3.9835,3.984,3.984,3.93,3.9354,4.0185,3.8826,3.8486,3.9379,3.8419,3.7546,3.6813,3.6773,3.6394,3.5662,3.5741,3.6278,5.653,5.8767,6.0722,6.1041,6.0872,6.048,6.0031,5.9465,5.8369,5.6047,5.4612,5.3163,5.1108,5.241,5.3965,5.4528,5.7081,0.0,6.0732,6.0364,0.0,6.084,0.0,6.049,6.0684,6.0276,0.0,5.8721,5.7602,5.6912,5.6792,5.6548,5.6463,5.6576,5.6375,5.6278,5.6259,5.5444,5.4822,5.4395,5.3818,5.3157,5.247,5.25,5.21,5.1431,5.2158,5.1907,5.1127,5.2477,5.1878,5.0065,4.9891,4.9215,4.8133,4.6733,4.6337,4.6422,4.5883,4.5671,4.5673,4.5695,4.5679,4.5673,4.566,4.5698,4.5701,4.5701,4.5665,4.5629,4.5629,4.568,4.5689,4.5596,4.5154,4.4744,4.4592,4.4065,4.3601,4.3601,4.4097,4.4507,4.4499,4.5143,4.5706,4.5809,4.5556,4.504,4.4108,4.3171,4.2315,4.159,4.1351,4.0968,4.0384,4.0316,4.0323,4.0319,4.0178,4.0202,4.0414,3.9442,3.9053,3.9385,3.8411,3.756,3.6883,3.7456,3.7334,3.6576,3.6648,3.7164,5.682,5.8249,5.9582,6.0363,5.9717,5.8734,5.8247,5.7519,5.6156,5.334,5.1968,5.0708,4.877,5.1005,5.3147,5.3168,0.0,0.0,6.0472,6.0336,6.0411,0.0,6.1219,0.0,6.0519,6.0162,5.9349,5.7918,5.7361,5.6798,5.6106,5.6062,5.613,5.6252,5.6219,5.6163,5.6046,5.5098,5.4314,5.372,5.2967,5.2203,5.1488,5.1621,5.1448,5.1102,5.2083,5.1956,5.1147,5.2345,5.1694,4.9971,4.9854,4.9094,4.7934,4.7057,4.659,4.6296,4.5889,4.5735,4.5738,4.5708,4.5711,4.5695,4.57,4.5711,4.5706,4.5706,4.5671,4.5646,4.5648,4.568,4.5657,4.5402,4.5062,4.4816,4.488,4.452,4.4279,4.4581,4.5068,4.5386,4.5303,4.568,4.5947,4.5827,4.5696,4.5428,4.4895,4.3991,4.3053,4.2221,4.2126,4.1674,4.0556,4.0811,4.0883,4.0508,4.0496,4.0496,4.0496,4.0031,3.9819,3.9925,3.8991,3.8332,3.7996,3.8067,3.7887,3.7464,3.7573,3.8097,5.6901,5.7345,5.7665,5.9179,5.8388,5.6974,5.595,5.5023,5.3558,5.0699,4.945,4.8528,4.751,5.0352,5.2637,5.2005,0.0,5.8153,5.9819,5.9423,5.9517,6.0961,6.1095,6.0676,5.9724,5.9019,5.816,5.7109,5.7844,5.7602,5.5863,5.5801,5.5841,5.585,5.5909,5.5764,5.5378,5.4679,5.3808,5.2728,5.199,5.1275,5.0604,5.0852,5.0975,5.1017,5.1915,5.18,5.1041,5.1884,5.1536,5.0459,5.068,4.9663,4.8077,4.8055,4.7141,4.592,4.5812,4.5781,4.5781,4.5731,4.5715,4.5715,4.5704,4.5715,4.5715,4.5715,4.5708,4.57,4.5698,4.5731,4.5613,4.4931,4.4863,4.4977,4.5021,4.5051,4.5231,4.5872,4.6083,4.6122,4.5947,4.5955,4.5937,4.5807,4.564,4.5522,4.5485,4.4719,4.3854,4.3061,4.2967,4.2307,4.0705,4.1257,4.1338,4.0531,4.05,4.0508,4.0508,4.0516,4.0534,4.06,3.9849,3.9446,3.9406,3.8762,3.8376,3.8216,3.8441,3.898,5.6974,5.7282,5.7394,5.7746,5.7118,5.6122,5.5081,5.3642,0.0,4.8796,4.8089,4.7471,4.5706,4.8436,5.1395,5.2727,5.6054,5.9133,6.1026,6.1125,6.0827,0.0,6.0294,5.9908,5.8895,5.8679,0.0,5.625,5.6982,5.6803,5.5165,5.5033,5.4719,5.4074,5.4745,5.4636,5.3639,5.3618,5.3022,5.1897,5.1156,5.0739,5.0596,5.071,5.0773,5.0844,5.1076,0.0,5.0943,5.2405,5.1665,4.974,5.1065,5.0171,4.802,4.7372,4.6908,4.6534,4.5923,4.5758,4.5788,4.5798,4.5783,4.5781,4.5778,4.5783,4.5773,4.5773,4.5731,4.5708,4.57,4.5708,4.5715,4.5686,4.5729,4.5806,4.5808,4.5813,4.5847,4.5973,4.6021,4.6025,4.5991,4.5949,4.5874,4.5734,4.57,4.561,4.5438,4.5214,4.4743,4.3873,4.3787,4.3148,4.1532,4.1522,4.1262,4.0471,4.0474,4.0499,4.0499,4.0543,4.0588,4.0595,4.0444,4.0054,3.9406,3.9979,3.9572,3.8302,3.9047,3.9501,5.63,5.6146,5.6078,5.7013,5.5967,5.4448,5.334,0.0,0.0,4.6835,4.6629,4.6565,4.5242,4.808,5.0894,5.1758,5.4599,5.7511,5.9825,6.0151,6.0151,6.0147,6.0119,5.9536,5.8105,5.7978,5.742,5.6057,5.5984,5.5454,5.4231,5.4165,5.42,5.4219,5.4154,5.4027,5.384,5.2954,5.2228,5.1645,5.0859,5.0502,5.0565,5.1116,5.1403,5.1515,5.2026,5.1959,5.1583,5.2724,5.2165,5.0727,5.1954,5.0888,4.8624,4.8279,4.7307,4.6129,4.5775,4.568,4.5758,4.5761,4.5776,4.5798,4.58,4.5821,4.5847,4.5812,4.5793,4.5793,4.5754,4.5758,4.5781,4.588,4.5943,4.6005,4.5997,4.6002,4.585,4.5373,4.5667,4.583,4.5259,4.5557,4.5807,4.5668,4.5618,4.5558,4.5429,4.536,4.5003,4.4102,4.4418,4.4018,4.2365,4.2632,4.2383,4.1142,4.1119,4.0932,4.0523,4.0558,4.0607,4.0607,4.0626,4.0482,4.0124,4.055,4.0369,3.9669,4.012,4.0357,5.5354,5.4958,5.4833,5.6231,5.4969,5.305,5.1713,5.0033,0.0,4.5454,4.5468,4.5832,4.5468,4.8,5.0322,5.0904,5.3048,5.5578,5.8213,5.8787,5.9112,5.9615,5.9776,0.0,5.7314,5.6968,0.0,5.5803,5.481,5.3944,5.3282,5.3119,5.3328,5.3941,5.3415,5.3262,5.3587,5.2329,5.1576,5.1345,5.0704,5.0522,5.0809,5.1596,5.1982,5.2106,5.2844,5.2642,5.1856,5.2618,5.2346,5.1568,5.2401,5.1182,4.8947,4.8998,4.754,4.5565,4.5599,4.5632,4.5684,4.5711,4.5746,4.5793,4.58,4.5861,4.5911,4.5854,4.5893,4.5929,4.5833,4.5831,4.5852,4.59,4.5937,4.5964,4.598,4.5969,4.5689,4.477,4.5324,4.5628,4.46,4.5171,4.5746,4.5648,4.5568,4.5495,4.5429,4.5419,4.5111,4.4381,4.4906,4.4687,4.3178,4.3675,4.3475,4.2035,4.1792,4.1423,4.0781,4.0669,4.0603,4.061,4.0699,4.0745,4.0798,4.0793,4.0742,4.0657,4.0894,4.0901,5.4353,5.441,5.4554,5.4776,5.41,5.2885,5.0956,0.0,4.7346,4.538,4.5048,4.5373,4.6219,4.7443,4.9144,5.1573,5.3007,5.4771,5.7518,5.8577,5.8806,5.8022,0.0,0.0,5.6489,5.5539,5.4994,5.4928,5.3367,5.2419,5.2399,5.1671,5.1242,5.1254,5.1876,5.1817,5.0952,5.1446,5.1291,5.0516,5.0439,5.0851,5.1668,5.1785,5.1854,5.1924,5.2011,5.1587,0.0,5.1693,5.1529,5.0865,5.1612,5.0361,4.8114,4.8125,4.6964,4.5438,4.555,4.5603,4.5612,4.5673,4.5746,4.5795,4.5793,4.5899,4.5991,4.5986,4.6026,4.6042,4.5929,4.5937,4.5974,4.5911,4.5867,4.5841,4.5905,4.5854,4.5588,4.4762,4.5264,4.5532,4.4645,4.5179,4.5709,4.5693,4.564,4.5568,4.5504,4.5448,4.5381,4.5283,4.529,4.4914,4.3978,4.3959,4.3634,4.2756,4.2076,4.1669,4.1588,4.0946,4.064,4.0687,4.0771,4.0794,4.08,4.0798,4.0456,3.9835,4.0622,4.0616,5.4701,5.5358,5.5772,5.5275,5.3695,5.1889,5.0524,0.0,4.648,4.5202,4.503,4.5423,4.6379,4.6608,4.751,5.0172,5.0602,5.1755,5.4947,5.5725,5.6213,5.6909,5.7222,5.6898,0.0,0.0,5.4367,5.3317,5.2585,5.178,5.0792,5.0405,5.0456,5.0944,5.0679,5.0833,5.1433,5.1132,5.0796,5.0468,5.0468,5.0683,5.1083,5.1582,5.1844,5.1865,5.1395,5.1279,0.0,5.1769,5.1702,5.1498,5.2841,5.1495,4.8777,4.8748,4.7367,4.5533,4.5577,4.5631,4.5665,4.5687,4.5727,4.5731,4.5727,4.58,4.5899,4.5937,4.598,4.6017,4.5916,4.5861,4.58,4.5786,4.539,4.5162,4.5682,4.4964,4.4293,4.4501,4.4365,4.4126,4.3784,4.482,4.5525,4.4999,4.58,4.6208,4.558,4.5574,4.5603,4.553,4.539,4.5163,4.4819,4.4781,4.4428,4.3636,4.3339,4.2989,4.2494,4.2282,4.2181,4.2194,4.2267,4.2083,4.1649,4.2175,4.1784,4.0552,4.1398,4.1351,5.4287,5.5465,5.633,5.5716,5.3541,5.1314,0.0,0.0,4.5956,4.5109,4.5076,4.5509,4.6502,4.6564,4.7171,4.9311,4.9504,5.0324,5.302,5.3676,5.4331,5.5571,0.0,5.5704,5.5081,5.4671,5.363,5.161,5.1463,5.0724,4.9042,4.8986,4.938,5.0225,4.9501,4.9783,5.1218,5.0458,5.0219,5.05,5.0232,5.0282,5.0603,5.095,5.1114,5.1095,5.0548,5.0644,0.0,5.0885,5.0903,5.118,5.216,5.0911,4.8558,4.8538,4.728,4.5594,4.5631,4.5657,4.5662,4.5695,4.5695,4.5668,4.5668,4.5749,4.5848,4.5935,4.5975,4.5991,4.5916,4.5808,4.5719,4.5688,4.5264,4.5013,4.5573,4.4589,4.3689,4.4059,4.3822,4.3508,4.325,4.4611,4.553,4.4928,4.5863,4.6404,4.5719,4.5511,4.5499,4.5634,4.5288,4.5132,4.5341,4.533,4.5101,4.4518,4.4344,4.4019,4.3445,4.3284,4.3214,4.3252,4.3305,4.3089,4.2613,4.3216,4.2922,4.1853,4.2157,4.1874,5.2587,5.4137,5.5703,5.5703,5.3678,5.142,5.0428,4.8119,4.5972,4.5162,4.5114,4.5547,4.6691,4.7637,4.8616,4.9633,5.0577,5.1489,5.2396,5.3268,5.3825,0.0,5.4513,5.4971,5.5094,5.4193,5.2538,4.9915,4.9737,4.8984,4.7326,4.7294,4.7681,4.8496,4.8268,4.8535,4.9421,4.9214,4.9586,5.0481,4.9637,4.9707,5.0556,4.9779,4.9385,4.9326,4.9394,4.9413,0.0,4.8509,4.8644,4.9336,4.8509,4.7615,4.6836,4.69,4.6352,4.5622,4.5684,4.5662,4.5605,4.5682,4.5648,4.5594,4.5594,4.5745,4.5931,4.6061,4.6042,4.5972,4.5925,4.5848,4.5786,4.5723,4.5688,4.5688,4.5708,4.5052,4.4222,4.3373,4.3904,4.4204,4.3354,4.4648,4.5819,4.5877,4.5852,4.5832,4.5889,4.5135,4.4921,4.5706,4.5021,4.4781,4.5449,4.5438,4.54,4.5381,4.475,4.438,4.4392,4.3615,4.3258,4.3393,4.3393,4.3456,4.3595,4.3539,4.3536,4.354,4.2692,4.1869,5.0486,5.1662,5.2538,5.1897,5.012,4.8523,4.8321,4.6708,4.5211,4.5083,4.5203,4.5648,4.6645,4.6648,4.7236,4.9439,5.0092,5.0606,5.1433,0.0,0.0,5.3829,5.4017,5.3911,5.3302,5.1852,5.0347,4.8921,4.8856,4.8412,4.7339,4.7297,4.7402,4.7598,4.7395,4.7703,4.8572,4.8422,4.8494,4.8804,4.8566,4.8576,4.8815,4.8616,4.851,4.8462,4.7933,4.8009,4.849,4.8221,4.8259,4.8548,4.8912,4.8188,4.6943,4.6959,4.6455,4.5727,4.5762,4.575,4.575,4.577,4.5719,4.5668,4.5668,4.5632,4.5583,4.572,4.5749,4.5599,4.5012,4.521,4.5385,4.4811,4.4713,4.4893,4.5432,4.4545,4.3709,4.404,4.3911,4.3656,4.3389,4.4735,4.5687,4.5153,4.6102,4.664,4.5987,4.5825,4.5823,4.5998,4.5726,4.5511,4.5505,4.5563,4.5547,4.541,4.5323,4.5314,4.535,4.5201,4.5123,4.5183,4.5183,4.493,4.4426,4.4995,4.501,4.4468,4.3587,4.2721,4.8367,4.9813,5.0742,5.0133,4.8558,0.0,4.7372,4.6064,4.4846,4.5033,4.5213,4.5572,4.6231,4.6235,4.6854,4.9007,4.9658,5.0306,5.1461,5.2635,0.0,5.3306,5.3306,5.2801,5.1533,5.0106,4.8882,4.8007,4.7681,4.7301,4.6826,4.6815,4.6785,4.6752,4.6549,4.6901,4.7805,4.7642,4.776,4.815,4.7865,4.7692,4.7649,4.736,4.7216,4.716,4.6651,4.7094,0.0,4.7459,4.7547,4.8095,4.8046,4.7388,4.6466,4.6502,4.6198,4.5765,4.5765,4.5743,4.5719,4.575,4.5727,4.5651,4.5599,4.5556,4.5519,4.5618,4.565,4.5526,4.4993,4.5197,4.5428,4.4886,4.4847,4.5036,4.5534,4.4885,4.4257,4.4499,4.4699,4.4739,4.4426,4.5514,4.6273,4.5796,4.6417,4.6726,4.6134,4.5904,4.5893,4.6111,4.5802,4.5614,4.5677,4.57,4.5668,4.5547,4.5632,4.5752,4.5863,4.595,4.6024,4.6062,4.6043,4.5794,4.5331,4.5879,4.5719,4.4898,4.4331,4.3613,0.0,4.83,4.9768,4.9707,4.8378,4.7111,4.7201,4.595,0.0,4.4979,4.517,4.5389,4.564,4.6312,4.7218,4.847,4.9359,5.0494,5.2255,5.2609,0.0,0.0,5.2584,5.1782,4.9985,4.896,4.8042,4.7184,4.6352,4.5938,4.5991,4.6011,4.5991,4.6003,4.5807,4.6153,4.7099,4.6843,4.7225,4.8212,4.7397,4.7009,4.6978,4.6177,4.5773,0.0,4.5769,4.6673,4.7994,4.6433,4.6696,4.7922,4.6249,4.5631,4.5693,4.5684,4.57,4.57,4.57,4.5643,4.5603,4.5668,4.5635,4.5559,4.5448,4.553,4.5676,4.5676,4.5676,4.564,4.5518,4.5633,4.5743,4.5635,4.5761,4.589,4.5896,4.5908,4.568,4.4851,4.6117,4.7049,4.6236,4.6825,4.7426,4.7496,4.6813,4.6323,4.638,4.5639,4.5381,4.6103,4.5472,4.5264,4.5945,4.5835,4.5746,4.5807,4.5754,4.5801,4.5993,4.6002,4.6084,4.6209,4.6147,4.6141,4.6192,4.6206,4.5771,4.499,4.4986,4.4528,4.4424,0.0,4.5693,4.5735,4.5369,4.5087,0.0,4.5092,4.4808,4.5159,4.5275,4.5561,4.6429,4.623,4.6704,4.9123,4.9691,5.0453,5.2251,5.3682,0.0,5.4501,5.3314,5.1783,4.9978,4.8411,4.7159,4.6337,4.6094,4.5983,4.5997,4.6047,4.6061,4.5991,4.5896,4.5932,4.6132,4.6021,4.6111,4.641,4.6257,4.6164,4.6096,4.5953,4.5802,4.5735,4.6457,4.694,4.7165,4.678,4.7188,4.7932,4.6249,4.5981,4.6454,4.5834,4.5629,4.5629,4.5629,4.5612,4.5594,4.5558,4.5505,4.5438,4.5409,4.539,4.54,4.54,4.54,4.5236,4.4556,4.4967,4.5417,4.4787,4.5245,4.5813,4.5818,4.6415,4.6691,4.5832,4.7112,4.8084,4.721,4.7847,4.8457,4.8466,4.774,4.7221,4.7284,4.6522,4.6027,4.6117,4.598,4.5916,4.5997,4.5953,4.5899,4.5819,4.5877,4.5978,4.6073,4.6138,4.6198,4.6267,4.6209,4.6181,4.6201,4.6199,4.6089,4.5891,4.5884,4.5431,4.3913,4.4656,4.5402,4.5417,4.551,4.5641,4.5897,4.5376,4.4907,4.5192,0.0,4.5513,4.6191,4.6282,4.6885,4.8871,4.9932,5.1102,5.2859,5.3864,5.427,5.3865,5.2589,5.1019,4.9238,4.7819,4.6673,4.5872,4.5821,4.5861,4.5949,4.598,4.6022,4.6095,4.6061,4.6027,4.5988,4.5883,4.5885,4.5983,4.6041,4.6059,4.6029,4.599,4.5935,4.5863,4.6306,4.6902,4.748,4.6673,4.7026,4.7885,4.6166,4.5773,4.61,4.5667,4.5504,4.5513,4.5584,4.5618,4.5627,4.5577,4.5514,4.5496,4.5496,4.5419,4.5338,4.5307,4.5307,4.5182,4.4723,4.5064,4.5457,4.5073,4.5434,4.5983,4.6472,4.7262,4.7775,4.7361,4.87,4.9623,4.8748,4.9004,4.9355,4.94,4.8308,4.7516,4.7595,4.6788,4.6191,4.6186,4.6108,4.6053,4.6042,4.5991,4.5935,4.588,4.5896,4.5973,4.6086,4.6133,4.6206,4.6308,4.6262,4.6248,4.6251,4.6228,4.6192,4.6203,4.6197,4.5923,4.4274,4.5716,4.7027,4.6452,4.663,4.6939,4.689,0.0,0.0,0.0,0.0,0.0,4.5922,4.665,4.7606,4.8863,5.0651,5.2324,5.3641,5.3775,5.3377,5.2407,5.1417,5.0109,4.835,4.7356,4.6481,4.5671,4.5618,4.568,4.5873,4.5892,4.598,4.6154,4.6193,4.6208,4.6203,4.6096,4.6086,4.6212,4.6267,4.6294,4.6294,4.6312,4.6203,4.6016,4.6161,0.0,4.8161,4.6546,4.6796,4.801,4.6129,4.5467,4.5553,4.5438,4.539,4.5429,4.5554,4.564,4.5668,4.5612,4.5586,4.5568,4.5577,4.5515,4.5399,4.5369,4.5328,4.5307,4.5307,4.547,4.5641,4.5756,4.5857,4.6204,4.7247,4.8067,4.8666,4.8916,5.0229,5.1064,5.0332,5.0215,5.0195,5.0113,4.8729,4.7675,4.7609,4.6749,4.6171,4.6252,4.6075,4.5945,4.5905,4.591,4.5877,4.5797,4.579,4.5897,4.6059,4.6072,4.6144,4.628,4.6288,4.6297,4.6294,4.6227,4.6193,4.6206,4.6206,4.6155,4.5213,4.7307,4.8546,4.5632,4.5598,4.6114,4.5554,0.0,0.0,0.0,0.0,0.0,0.0,4.7918,4.8828,5.1321,5.3247,5.4297,5.3942,5.4408,5.4122,5.2424,5.138,5.0089,4.8283,4.7362,4.6549,4.5739,4.5669,4.5727,4.5803,4.5859,4.5942,4.6032,4.6141,4.6192,4.62,4.6189,4.6216,4.629,4.6291,4.6296,4.632,4.7041,4.6865,4.6078,0.0,4.8192,4.8148,4.7127,4.7625,4.8776,4.6338,4.579,4.6254,4.5576,4.5351,4.5429,4.5554,4.5573,4.554,4.5586,4.5522,4.5438,4.5504,4.5495,4.5485,4.5541,4.5429,4.5307,4.5307,4.5482,4.5684,4.5712,4.5851,4.6231,4.7148,4.8,4.8818,4.9508,5.0537,5.127,5.1123,5.1146,5.0937,5.0215,4.9238,4.8359,4.7684,4.6824,4.6225,4.6131,4.6206,4.59,4.5071,4.5595,4.5652,4.486,4.55,4.59,4.593,4.5988,4.6082,4.6216,4.6267,4.6308,4.6301,4.623,4.6193,4.6206,4.6206,4.6155,4.5079,4.6858,4.8207,4.667,4.8047,4.9575,4.8843,0.0,0.0,0.0,0.0,0.0,0.0,0.0,5.0623,5.3419,5.4071,5.4143,5.388,5.3549,5.2848,5.1532,5.087,4.9846,4.8123,4.7605,4.6858,4.559,4.5554,4.5642,4.5743,4.5881,4.6002,4.6111,4.6167,4.6212,4.6257,4.6211,4.624,4.6293,4.63,4.6305,4.6307,4.6689,4.6787,4.6726,0.0,4.7799,4.8708,4.6919,4.7117,4.8292,4.6203,4.5619,4.5867,4.5573,4.5504,4.5573,4.5588,4.5624,4.5671,4.5657,4.5603,4.5568,4.5594,4.5577,4.5568,4.5601,4.5531,4.5448,4.5419,4.5554,4.5708,4.5749,4.6175,4.6863,4.7885,4.8704,4.9512,5.043,5.0986,5.1308,5.1347,5.1379,5.1098,5.0231,4.976,4.9207,4.8358,4.7873,4.7428,4.6952,4.684,4.659,4.6144,4.6394,4.6181,4.5247,4.5592,4.5852,4.5891,4.5997,4.6092,4.6193,4.6231,4.6498,4.6992,4.6504,4.6481,4.6881,4.6451,4.6172,4.506,4.6364,4.7728,4.8009,4.9942,5.1754,0.0,0.0,0.0,0.0,0.0,0.0,0.0,5.0442,5.23,5.4449,5.4304,5.3751,5.3229,5.245,5.1555,5.0496,5.0157,4.9442,4.7963,4.7638,4.6904,4.5434,4.5456,4.5587,4.5718,4.589,4.6068,4.6194,4.6218,4.6252,4.63,4.6228,4.6221,4.627,4.6252,4.6256,4.6261,4.6415,4.668,4.6971,4.644,4.7203,4.8668,4.6504,4.6425,4.7508,4.6224,4.5736,4.5726,4.5652,4.5671,4.5708,4.568,4.5723,4.5765,4.575,4.569,4.5684,4.5701,4.5665,4.5637,4.564,4.5651,4.562,4.5522,4.5621,4.5807,4.6042,4.6642,4.7492,4.8752,4.9413,5.0043,5.1023,5.1241,5.1291,5.1347,5.1372,5.1093,5.0239,5.0094,4.9792,4.8915,4.8736,4.8487,4.7934,4.765,4.7495,4.7454,4.7204,4.6832,4.6294,4.6281,4.6337,4.6415,4.6353,4.6349,4.641,4.622,4.6481,4.7198,4.6566,4.6576,4.7167,4.6756,4.6372,4.5962,4.6976,4.8018,4.9038,4.8807,4.8999,5.141,5.0109,0.0,5.1502,0.0,0.0,0.0,5.2246,5.3463,5.3598,5.4343,5.4061,5.162,5.176,5.1429,4.9605,4.9271,4.8853,4.7979,4.7167,4.6327,4.5467,4.5516,4.5648,4.578,4.592,4.6053,4.6199,4.6255,4.6299,4.6294,4.6225,4.62,4.6202,4.6151,4.6111,4.615,4.6945,4.6876,4.613,4.6812,4.7133,4.7092,4.6097,4.6155,4.6876,4.675,4.6701,4.6614,4.5938,4.57,4.5723,4.5845,4.5798,4.5715,4.5765,4.5722,4.5622,4.5684,4.5706,4.5708,4.5765,4.5792,4.5735,4.5549,4.5692,4.608,4.6834,4.7146,4.7728,4.9373,4.9666,4.988,5.0751,5.1075,5.1215,5.1215,5.1327,5.11,5.0227,5.0106,4.9792,4.8915,4.873,4.8695,4.8716,4.8541,4.836,4.8232,4.7418,4.7207,4.7876,4.7827,4.7798,4.7931,4.7295,4.6965,4.7023,4.629,4.5955,4.6017,4.6077,4.6131,4.6217,4.6969,4.6884,4.6057,4.7531,4.8885,4.9298,4.9593,0.0,0.0,5.2719,5.2698,5.3766,5.3818,0.0,0.0,5.2847,5.2941,5.2835,5.3655,5.3395,5.0787,5.0927,5.0654,4.8937,4.851,4.8048,4.7238,4.6855,4.632,4.5458,4.5549,4.5689,4.5801,4.6013,4.617,4.6269,4.6284,4.6307,4.6306,4.6193,4.6137,4.6137,4.6118,4.6103,4.6107,4.6405,4.661,4.6732,4.6441,4.6878,4.764,4.6259,4.6133,4.6759,4.6309,4.645,4.6824,4.6043,4.5764,4.5771,4.5814,4.5805,4.5765,4.5731,4.57,4.5671,4.5682,4.5695,4.5708,4.5723,4.6129,4.6402,4.5786,4.6132,4.6711,4.6989,4.7951,4.8961,4.9594,5.008,5.0515,5.0889,5.1024,5.1106,5.1185,5.1248,5.1018,5.0219,5.0553,5.0594,4.9714,5.005,5.0184,4.9655,4.9468,4.9338,4.9303,4.9394,4.9563,4.9815,4.8702,4.8068,4.8161,4.7923,4.7838,4.7902,4.7653,4.7775,4.8316,4.728,4.7338,4.839,4.7676,4.7451,4.5909,4.7399,4.8855,4.8687,4.9561,0.0,5.2911,5.3733,5.435,5.5283,5.4862,5.421,5.3791,0.0,5.2047,5.1664,5.2441,5.2154,4.9521,4.9665,4.9531,4.8101,4.7702,4.7315,4.6781,4.6464,4.6062,4.5467,4.5629,4.5769,4.583,4.6072,4.6234,4.6301,4.6307,4.6172,4.5898,4.6056,4.5979,4.5689,4.5679,4.565,4.5628,4.5845,4.6096,4.6362,4.5964,4.6428,4.7352,4.6202,4.619,4.6808,4.6051,4.6268,4.6932,4.6095,4.5807,4.5807,4.5807,4.5798,4.5781,4.5723,4.57,4.5695,4.5673,4.5671,4.5703,4.5703,4.6127,4.6447,4.5857,4.6403,4.7074,4.7021,4.8164,4.9352,4.9609,5.0306,5.0882,5.0937,5.0947,5.0998,5.1092,5.1118,5.0977,5.0522,5.094,5.1143,5.0573,5.0991,5.1091,5.0443,5.0341,5.0295,5.0246,5.0706,5.0985,5.093,4.9708,4.8979,4.8979,4.878,4.8673,4.8705,4.8539,4.8702,4.9264,4.8145,4.8205,4.9343,4.8481,4.8283,4.5635,4.6487,4.7679,4.7144,4.8261,0.0,5.2119,5.2451,5.3108,5.5918,5.4363,5.2758,5.3536,5.2324,5.0922,5.0042,5.0672,5.0365,4.767,4.7924,4.8016,4.7008,4.677,4.6724,4.6781,4.5956,4.5429,4.5485,4.5677,4.5822,4.5896,4.6083,4.6228,4.6289,4.6308,4.5879,4.5,4.5781,4.5718,4.4786,4.4735,4.4678,4.4632,4.5432,4.5355,4.4652,4.5452,4.5807,4.5807,4.5807,4.631,4.6999,4.6136,4.6329,4.698,4.6116,4.5807,4.5807,4.5787,4.5778,4.5781,4.5723,4.5695,4.5673,4.5631,4.5648,4.5701,4.5701,4.5701,4.5701,4.5701,4.6407,4.7086,4.7016,4.7724,4.8629,4.9432,5.0232,5.0801,5.0801,5.0858,5.0894,5.0894,5.0959,5.1042,5.1187,5.1203,5.1248,5.1388,5.1288,5.115,5.102,5.1128,5.1165,5.102,5.1008,5.1027,5.1002,5.0956,5.0861,5.0702,4.9865,4.9413,4.9413,4.8705,4.8262,4.8125,4.8373,4.848,4.8444,4.9373,4.9411,4.6275,4.7069,4.816,4.7905,4.9324,0.0,0.0,5.2509,0.0,0.0,5.4437,5.3292,5.2928,5.2485,5.1677,5.0084,5.0172,4.9756,4.7735,4.7548,4.7305,4.644,4.6209,4.615,4.6163,4.5823,4.5383,4.4835,4.5322,4.5485,4.5088,4.5729,4.5902,4.5409,4.5974,4.5584,4.4101,4.55,4.5445,4.3966,4.4462,4.4949,4.5432,4.5104,4.5123,4.5452,4.571,4.5807,4.5807,4.5807,4.631,4.6999,4.6136,4.6329,4.7006,4.6163,4.586,4.579,4.5228,4.4936,4.4816,4.4793,4.4746,4.4831,4.5478,4.5715,4.5769,4.5719,4.6171,4.6511,4.5819,4.6298,4.694,4.6928,4.8043,4.9191,4.9537,5.0279,5.0874,5.0874,5.0898,5.0894,5.0894,5.0913,5.0985,5.1178,5.1203,5.1248,5.1388,5.1362,5.1327,5.1288,5.1871,5.1991,5.1346,5.1834,5.2119,5.1927,5.1897,5.1564,5.0861,5.0506,5.0317,5.0308,5.0186,5.0085,5.0005,4.9513,4.9593,5.022,4.9938,5.0007,4.7265,4.815,4.9234,4.8948,5.032,5.1838,5.22,0.0,0.0,0.0,5.3673,5.2757,5.2567,5.2005,5.1089,4.9644,4.9504,4.8977,4.7262,4.6913,4.6633,4.6158,4.5983,4.5756,4.5409,4.5306,4.4917,4.4046,4.4423,4.4537,4.4195,4.4771,4.4916,4.4508,4.4995,4.4603,4.3198,4.4527,4.4475,4.3046,4.3489,4.4267,4.5276,4.4806,4.4871,4.5336,4.5671,4.5807,4.5807,4.5807,4.6116,4.6542,4.602,4.6143,4.6563,4.6087,4.5906,4.5783,4.495,4.4556,4.4372,4.4006,4.4066,4.4402,4.4963,4.5406,4.5704,4.5661,4.6039,4.6312,4.5729,4.5942,4.6345,4.6374,4.7447,4.8555,4.8995,4.9817,5.0556,5.0886,5.0913,5.0894,5.0894,5.0858,5.0883,5.1093,5.1207,5.13,5.139,5.1394,5.1394,5.1394,5.1828,5.2027,5.1849,5.2276,5.2468,5.2309,5.2246,5.1816,5.0933,5.1083,5.1039,5.075,5.0846,5.0869,5.0852,5.0429,5.0498,5.0988,5.0565,5.0636,4.821,4.9217,5.0336,5.0072,5.1288,5.2757,5.3602,5.3189,5.2832,5.3627,0.0,5.1616,5.2259,5.1125,4.9823,4.8945,4.8727,4.8159,4.6613,4.6234,4.6128,4.6128,4.6005,4.5629,4.4821,4.4661,4.4232,4.3304,4.3278,4.3299,4.3296,4.3494,4.3582,4.3587,4.3665,4.3232,4.2289,4.3226,4.3156,4.2081,4.2167,4.2937,4.4288,4.442,4.4582,4.4789,4.5505,4.5815,4.5827,4.5827,4.5814,4.5807,4.5807,4.5847,4.5893,4.59,4.5899,4.5763,4.4828,4.444,4.4228,4.3297,4.353,4.4192,4.4273,4.4914,4.5612,4.5612,4.5558,4.5522,4.5504,4.5504,4.5513,4.5594,4.6325,4.7243,4.813,4.9091,5.0048,5.0864,5.0966,5.0913,5.0917,5.0799,5.078,5.0972,5.1207,5.1362,5.1362,5.1362,5.1381,5.1479,5.1369,5.1615,5.241,5.2439,5.2414,5.2395,5.2291,5.1915,5.1257,5.1587,5.1482,5.0821,5.0858,5.0906,5.0914,5.1102,5.1192,5.1127,5.125,5.1319,4.7293,4.7551,4.8508,5.0447,5.2298,5.3535,5.3064,5.2808,5.2728,5.2921,5.2609,5.1964,5.0784,5.0805,5.0517,4.8966,4.8188,4.7649,4.7281,4.667,4.6267,4.6267,4.6231,4.6137,4.5958,4.5172,4.4356,4.3571,4.3379,4.3088,4.2565,4.3217,4.3324,4.2701,4.3336,4.2957,4.1392,4.2916,4.2873,4.1269,4.1891,4.2354,4.2635,4.3338,4.4427,4.5788,4.5963,4.6003,4.5964,4.5964,4.5886,4.5807,4.5807,4.5807,4.5821,4.588,4.5906,4.5686,4.4178,4.3582,4.3337,4.2452,4.2664,4.3425,4.4152,4.4998,4.5685,4.5685,4.5665,4.5626,4.5521,4.5504,4.5521,4.5653,4.6368,4.7279,4.8242,4.9202,5.0123,5.0999,5.1156,5.1098,5.1004,5.0959,5.0959,5.0996,5.1047,5.1098,5.1098,5.1098,5.1351,5.2027,5.2075,5.2136,5.2319,5.2943,5.3269,5.3158,5.3138,5.3305,5.3696,5.1944,5.0914,5.0801,5.0858,5.0929,5.0976,5.1121,5.1507,5.2097,5.2129,5.2135,4.7557,4.7992,4.8968,5.1284,5.3264,5.4493,5.4014,5.3595,5.3312,5.3312,5.2266,5.1089,5.0163,5.0022,4.9629,4.8343,4.7778,4.7379,4.6974,4.6564,4.63,4.63,4.6296,4.5976,4.5148,4.4551,4.3728,4.2494,4.2303,4.208,4.1737,4.1752,4.1783,4.1771,4.1802,4.1597,4.1105,4.2009,4.1944,4.0953,4.1306,4.1893,4.2704,4.3612,4.4788,4.6072,4.5671,4.5461,4.5384,4.4943,4.4963,4.5273,4.5247,4.5452,4.5814,4.5887,4.5893,4.5732,4.4426,4.3905,4.3675,4.2779,4.3015,4.3769,4.4253,4.4727,4.5156,4.5576,4.5348,4.5054,4.5379,4.5448,4.5495,4.5629,4.6076,4.6751,4.7767,4.8713,4.9636,5.0494,5.0952,5.1187,5.1118,5.1108,5.1224,5.1571,5.1675,5.1841,5.2193,5.2239,5.2414,5.288,5.2499,5.2361,5.2799,5.2798,5.2923,5.3281,5.33,5.3292,5.326,5.2375,5.1925,5.2008,5.1647,5.152,5.1559,5.125,5.1522,5.2344,5.2394,5.262,4.7907,4.9039,5.0305,5.2137,5.3857,5.5065,5.5015,5.4367,5.373,5.3574,5.166,4.9967,4.9822,4.9074,4.823,4.742,4.7158,4.6872,4.6357,4.6039,4.5909,4.6064,4.6083,4.5453,4.3856,4.3693,4.3049,4.144,4.1196,4.1029,4.0883,4.0194,4.0077,4.0649,3.9966,4.0016,4.0862,4.0875,4.0883,4.0913,4.0777,4.1543,4.3093,4.3923,4.4872,4.5855,4.4991,4.4595,4.4533,4.3893,4.4049,4.4686,4.4776,4.5213,4.58,4.5886,4.5893,4.5764,4.4899,4.455,4.4348,4.3423,4.3717,4.4427,4.4423,4.4522,4.4781,4.5507,4.5092,4.4594,4.5237,4.5409,4.5438,4.5554,4.5742,4.6155,4.7178,4.8131,4.9066,4.9924,5.0699,5.1234,5.139,5.1364,5.1599,5.2369,5.256,5.2824,5.3462,5.3532,5.3539,5.3526,5.2667,5.2374,5.3072,5.2387,5.2269,5.3145,5.3203,5.301,5.2558,5.3137,5.3533,5.3706,5.2645,5.2198,5.2406,5.1605,5.1746,5.2748,5.2809,5.321,4.6929,4.9054,5.1241,5.2321,5.3389,5.4176,0.0,0.0,5.2652,5.1894,5.0856,4.9864,4.9098,4.8259,4.7375,4.6512,4.5748,4.5465,4.6111,4.4961,4.4327,4.508,4.5174,4.4781,4.3804,4.371,4.3283,4.2291,4.1539,4.0762,4.0002,3.9929,3.9597,3.8947,3.8829,3.9154,3.9977,3.9969,4.0311,4.0992,4.0845,4.1269,4.2183,4.2478,4.3543,4.5109,4.4231,4.3778,4.3721,4.435,4.4603,4.4679,4.5362,4.5708,4.5803,4.5873,4.5859,4.5694,4.4879,4.4556,4.4346,4.3482,4.3781,4.45,4.4491,4.502,4.563,4.5677,4.5563,4.5411,4.54,4.5409,4.5419,4.5496,4.5679,4.6092,4.7091,4.8096,4.9059,4.9937,5.0695,5.1427,5.2119,5.2046,5.2186,5.3031,5.307,5.308,5.3225,5.331,5.3328,5.3254,5.2549,5.2095,5.2088,5.1982,5.2269,5.3145,5.3203,5.3799,5.5145,5.4756,5.4784,5.5369,5.3215,5.2468,5.323,5.2434,5.2907,5.4544,5.4558,5.4652,4.7421,4.8778,5.0205,5.2126,5.294,5.3402,5.3886,5.3332,5.2596,5.2207,5.0683,4.9155,4.825,4.6955,4.593,4.5535,4.5154,4.5203,4.6089,4.5189,4.4573,4.494,4.4567,4.3745,4.2371,4.2247,4.1885,4.101,4.0588,4.0222,3.9873,3.9424,3.8993,3.8617,3.8129,3.8496,3.9793,3.9806,4.0142,4.084,4.0762,4.1197,4.1994,4.1553,4.2419,4.4211,4.3311,4.2887,4.2854,4.3163,4.3535,4.3961,4.4279,4.4952,4.5708,4.5316,4.5411,4.5708,4.5374,4.5279,4.5226,4.4798,4.4935,4.5201,4.4704,4.4827,4.5137,4.5137,4.5046,4.5032,4.5461,4.5475,4.5429,4.5591,4.5687,4.5893,4.6459,4.7743,4.9178,5.0424,5.093,5.1373,5.2113,5.2128,5.2484,5.3791,5.3957,5.4101,5.4581,5.4728,5.4564,5.4034,5.3262,5.2723,5.2645,5.2173,5.2481,5.3837,5.3933,5.426,5.4991,5.519,5.4959,5.4299,5.3811,5.3721,5.4005,5.3212,5.3477,5.4718,5.4855,5.5167,4.7416,4.8006,4.8759,5.1014,5.1798,5.2257,5.3132,5.2839,5.2362,5.2363,5.0527,4.8613,4.7697,4.611,4.4986,4.5205,4.4865,4.4941,4.6045,4.5121,4.4506,4.4916,4.4218,4.3025,4.1276,4.1298,4.0977,3.9903,3.9833,3.9857,3.9899,3.9076,3.8508,3.8272,3.7414,3.7782,3.9474,3.9891,4.0317,4.071,4.0533,4.0879,4.165,4.0775,4.1346,4.2978,4.2245,4.1924,4.1952,4.2049,4.2592,4.3388,4.355,4.451,4.5687,4.5109,4.5264,4.5764,4.5793,4.5821,4.5873,4.5817,4.5847,4.5738,4.4886,4.477,4.4924,4.4755,4.475,4.4919,4.5537,4.5585,4.5502,4.5642,4.5691,4.5886,4.6546,4.7786,4.925,5.0845,5.1093,5.1351,5.2257,5.2361,5.287,5.4515,5.4805,5.5085,5.574,5.5673,5.5239,5.4371,5.3502,5.2877,5.2597,5.1972,5.2241,5.3741,5.4049,5.426,5.4491,5.5313,5.5064,5.3589,5.4336,5.454,5.4164,5.3562,5.3735,5.4602,5.4987,5.5486,4.5894,4.6543,4.745,4.8549,4.9479,5.0392,5.1321,5.1494,5.1465,5.1464,5.0097,4.8632,4.7753,4.6161,4.5238,4.6014,4.4749,4.4253,4.5952,4.4083,4.3119,4.4729,4.4181,4.3017,4.1269,4.1857,4.1652,4.0013,3.9882,3.9902,3.9902,3.9062,3.8223,3.7383,3.6523,3.6893,3.8646,4.0177,4.0859,4.069,4.0063,4.0116,4.0735,4.0057,4.0253,4.1133,4.0944,4.0902,4.1038,4.1781,4.2588,4.3389,4.4214,4.5086,4.5877,4.5783,4.5809,4.5871,4.5822,4.5807,4.5807,4.58,4.5847,4.5751,4.4943,4.5264,4.5753,4.4922,4.524,4.5803,4.5713,4.5692,4.5665,4.5613,4.5645,4.6238,4.8156,4.8634,4.9223,5.0956,5.1081,5.1413,5.2959,5.309,5.3525,5.519,5.5516,5.5635,5.5847,5.5181,5.4332,5.3464,5.2634,5.1807,5.0914,5.0789,5.1125,5.1981,5.2818,5.3645,5.4472,5.5393,5.5467,5.4545,5.4702,5.4282,5.328,5.3222,5.3686,5.4621,5.5461,5.5893,4.647,4.6485,4.6823,4.8868,4.9275,4.9395,5.0308,5.0525,5.0408,4.9858,4.8846,4.7968,4.7607,4.6156,4.5077,4.5336,4.4843,4.4844,4.6022,4.4938,4.4222,4.4824,4.4187,4.2791,4.0496,4.1052,4.0867,3.9196,3.9589,3.9902,3.9902,3.9609,3.8789,3.7344,3.6992,3.7105,3.7692,3.9934,4.0724,4.0051,4.0377,4.0653,4.0874,4.051,4.0562,4.0933,4.0745,4.0754,4.0961,4.1723,4.2531,4.3324,4.3634,4.4614,4.5769,4.5226,4.5369,4.5827,4.5814,4.5807,4.5807,4.5807,4.5847,4.5744,4.4941,4.5337,4.5896,4.5068,4.5402,4.6028,4.6022,4.59,4.5749,4.5677,4.614,4.6964,4.8293,4.8632,4.9177,5.0792,5.1005,5.1211,5.2221,5.2728,5.3395,5.4565,5.5224,5.5459,5.5055,5.4776,5.4081,5.2673,5.2268,5.1933,5.152,5.1471,5.2068,5.3491,5.3908,5.4487,5.5354,5.5767,5.5318,5.3911,5.4442,5.4271,5.3328,5.3896,5.4312,5.4612,5.5569,5.6003,4.6501,0.0,0.0,4.8018,4.8319,4.8358,4.8984,4.9385,4.9473,4.8917,4.8142,4.7557,4.7509,4.6356,4.5394,4.5338,4.5097,4.5195,4.6081,4.547,4.5048,4.5343,4.4647,4.3211,4.09,4.1196,4.0831,3.9159,3.9569,4.0039,4.0312,3.9785,3.8652,3.6914,3.7147,3.7274,3.7207,3.9215,4.007,3.9737,3.9727,4.0031,4.0587,4.014,3.9976,4.0073,4.0492,4.09,4.1313,4.1795,4.2686,4.375,4.375,4.4614,4.5802,4.5226,4.5376,4.586,4.5814,4.5807,4.5807,4.5807,4.5847,4.5751,4.4938,4.5351,4.5931,4.5136,4.5496,4.6147,4.6192,4.6024,4.5917,4.6082,4.6607,4.7381,4.8549,4.896,4.9478,5.0752,5.1157,5.1432,5.1819,5.2773,5.3678,5.4242,5.4855,5.5173,5.4998,5.4487,5.3832,5.3011,5.2405,5.2011,5.1914,5.1654,5.1991,5.3145,5.3832,5.4429,5.5007,5.565,5.5363,5.4002,5.4494,5.4331,5.3472,5.4307,5.4673,5.4612,5.5603,5.601,0.0,0.0,0.0,4.5773,4.6481,4.722,4.7294,4.802,4.8668,4.8702,4.8046,4.7461,4.7461,4.6775,4.6196,4.6197,4.5493,4.5231,4.6089,4.5538,4.5342,4.6202,4.5552,4.4349,4.2611,4.2438,4.1737,4.0057,3.9941,4.0293,4.1113,3.9512,3.7793,3.6092,3.6867,3.7265,3.7168,3.8055,3.8902,3.9708,3.8025,3.8116,3.9724,3.8812,3.84,3.8537,4.0098,4.1222,4.2009,4.2009,4.3034,4.4594,4.4594,4.5169,4.598,4.5854,4.5873,4.598,4.5835,4.58,4.5807,4.5807,4.5847,4.5744,4.4977,4.5381,4.5933,4.5156,4.5557,4.6209,4.622,4.6142,4.6238,4.687,4.7063,4.7507,4.9052,4.9683,5.014,5.086,5.1594,5.2064,5.1934,5.3296,5.4397,5.4405,5.446,5.4821,5.5712,5.4293,5.3542,5.4419,5.2984,5.1933,5.1914,5.1193,5.0731,5.075,5.2328,5.329,5.3329,5.5021,5.5628,5.4912,5.4951,5.4524,5.364,5.4359,5.4663,5.4621,5.5553,5.5958,4.5765,0.0,0.0,0.0,0.0,0.0,4.5647,4.6572,4.752,4.6955,4.67,4.656,4.656,4.636,4.6197,4.6204,4.6008,4.5916,4.6162,4.6004,4.5976,4.6271,4.6092,4.5263,4.3508,4.3336,4.2655,4.0976,4.084,4.0664,4.0273,3.8613,3.7441,3.6969,3.7161,3.6999,3.6341,3.7828,3.8346,3.7927,3.8067,3.8388,3.8857,3.855,3.8731,3.937,3.9762,4.0715,4.2009,4.2009,4.3034,4.4594,4.4594,4.5111,4.5835,4.5757,4.5786,4.5835,4.5757,4.5757,4.5807,4.5807,4.5814,4.5803,4.5735,4.5896,4.6061,4.5945,4.6042,4.6318,4.6807,4.7358,4.783,4.7925,4.8458,4.9042,4.933,5.0035,5.0676,5.0832,5.152,5.2085,5.2049,5.3397,5.447,5.447,5.4481,5.4389,5.4128,5.3609,5.3164,5.2887,5.2981,5.2786,5.2096,5.1836,5.1674,5.1568,5.2161,5.3039,5.4265,5.4924,5.517,5.4977,5.6124,5.5998,5.4544,5.4761,5.4771,5.4622,5.5412,5.5847,0.0,0.0,0.0,0.0,0.0,0.0,4.532,4.5725,4.6201,4.6144,4.6191,4.6228,4.6216,4.62,4.6199,4.6209,4.6192,4.6189,4.6206,4.6228,4.6259,4.6298,4.6293,4.5755,4.437,4.3904,4.3144,4.1797,4.1387,4.0664,3.9414,3.8047,3.7128,3.6774,3.6401,3.6144,3.6001,3.6648,3.7248,3.7785,3.7558,3.7835,3.8538,3.8094,3.8157,3.8653,3.9304,4.0317,4.1525,4.1854,4.2802,4.4091,4.4458,4.4659,4.4826,4.5468,4.5514,4.53,4.5573,4.5712,4.5798,4.5798,4.5819,4.5861,4.5973,4.6027,4.6026,4.6111,4.6373,4.6702,4.707,4.7821,4.8561,4.879,4.9217,4.9635,4.9844,5.0344,5.0738,5.0717,5.1748,5.2463,5.2059,5.3656,5.4761,5.4068,5.426,5.4216,5.3454,5.3647,5.3683,5.3298,5.3663,5.3739,5.3194,5.2453,5.1982,5.1895,5.2374,5.3116,5.4163,5.5004,5.5482,5.5534,5.6779,5.7071,5.6349,5.6043,5.5642,5.5189,5.5545,5.5778,0.0,0.0,0.0,0.0,4.5058,0.0,4.5401,4.5187,4.5035,4.5738,4.6092,4.6218,4.6062,4.6128,4.6181,4.617,4.6268,4.6342,4.634,4.6316,4.633,4.6428,4.6361,4.5994,4.5212,4.4353,4.3475,4.2617,4.1621,4.0371,3.8828,3.7831,3.6932,3.617,3.5309,3.5229,3.5991,3.5224,3.6005,3.8294,3.6748,3.6807,3.8275,3.7458,3.7069,3.7183,3.868,3.9839,4.07,4.1435,4.2357,4.3401,4.4265,4.413,4.362,4.5132,4.5241,4.4735,4.5379,4.5673,4.5773,4.58,4.5824,4.5874,4.5885,4.5891,4.5885,4.588,4.6596,4.7329,4.7249,4.7998,4.8942,4.9595,4.9648,4.9759,5.0462,5.0556,5.0534,5.0586,5.1982,5.2888,5.2094,5.396,5.5049,5.3568,5.3991,5.4205,5.3416,5.4071,5.4638,5.4722,5.4751,5.4727,5.4621,5.3128,5.2155,5.2038,5.282,5.3403,5.3614,5.5118,5.6047,5.6265,5.6982,5.7712,5.8392,5.7728,5.6963,5.6112,5.6028,5.5978,0.0,0.0,0.0,0.0,4.4511,0.0,4.3115,4.4241,4.5324,4.412,4.5045,4.5862,4.5183,4.5601,4.6044,4.6033,4.6664,4.717,4.7234,4.6698,4.6557,4.7258,4.6726,4.6223,4.6063,4.5266,4.437,4.3514,4.1406,4.0019,3.9667,3.8144,3.7226,3.7046,3.6206,3.5835,3.5991,3.5825,3.6001,3.6498,3.6162,3.6183,3.6498,3.632,3.6551,3.7124,3.7449,3.8402,3.9762,3.9913,4.1293,4.3401,4.4265,4.4497,4.4452,4.5364,4.5592,4.5476,4.5563,4.5613,4.5657,4.5708,4.5731,4.5742,4.579,4.5816,4.5829,4.5822,4.6946,4.814,4.8083,4.9247,5.0465,5.0607,5.0587,5.0536,5.0587,5.0635,5.0653,5.0604,5.1452,5.2328,5.2846,5.3923,5.4626,5.4299,5.4395,5.4246,5.3547,5.4175,5.4754,5.4919,5.5465,5.5509,5.4746,5.4302,5.3745,5.2991,5.3167,5.3637,5.436,5.4757,5.533,5.6043,5.678,5.7534,5.8314,5.8182,5.7653,5.6816,5.7475,5.7448,0.0,0.0,0.0,4.3655,0.0,0.0,0.0,4.3324,4.3999,4.4051,4.4764,4.5397,4.5397,4.5739,4.6002,4.6002,4.643,4.6925,4.7384,4.7128,4.7061,4.7547,4.6821,4.6301,4.6297,4.5502,4.4469,4.3142,4.1093,3.9901,3.9899,3.8241,3.7303,3.7301,3.6032,3.5564,3.5995,3.5577,3.5788,3.6635,3.6201,3.6239,3.6632,3.6207,3.6402,3.7099,3.7099,3.8015,3.9499,3.9507,4.0507,4.2183,4.346,4.3962,4.4084,4.5221,4.5398,4.5105,4.5428,4.5599,4.5665,4.5723,4.5754,4.5749,4.5752,4.5696,4.5642,4.5613,4.6888,4.8248,4.8292,4.961,5.0954,5.0997,5.0898,5.0795,5.0752,5.0702,5.0778,5.1182,5.1595,5.2173,5.3049,5.426,5.4799,5.3972,5.4568,5.4564,5.3061,5.4307,5.5254,5.5016,5.5639,5.5869,5.5382,5.4862,5.4341,5.3876,5.3888,5.4111,5.4583,5.5054,5.5902,5.7168,5.7989,5.8775,5.955,5.955,5.8665,5.7022,5.7896,5.8072,0.0,0.0,0.0,0.0,0.0,4.2208,0.0,0.0,0.0,4.3786,4.4286,4.472,4.5356,4.5473,4.5541,4.5709,4.5939,4.6333,4.7038,4.7324,4.7491,4.7554,4.6814,4.6297,4.6278,4.5481,4.4331,4.277,4.1246,4.0307,4.0148,3.8648,3.7809,3.7809,3.6111,3.5546,3.623,3.5385,3.5655,3.7046,3.6339,3.6376,3.7021,3.6325,3.6404,3.7092,3.7105,3.8019,3.9507,3.9507,4.01,4.1184,4.2705,4.3305,4.3478,4.507,4.5211,4.4726,4.5327,4.5593,4.5665,4.5746,4.5798,4.5807,4.5742,4.5643,4.5503,4.5438,4.6713,4.8141,4.8253,4.9635,5.1056,5.1256,5.1042,5.0914,5.1288,5.1086,5.1114,5.1991,5.2299,5.2615,5.3337,5.4568,5.5011,5.3645,5.4722,5.4978,5.294,5.4619,5.5807,5.5301,5.5699,5.601,5.6012,5.5229,5.4773,5.4722,5.4722,5.4764,5.4815,5.5654,5.682,5.8352,5.9065,5.9716,6.0319,6.0319,5.9338,5.7503,5.8377,5.8688,0.0,0.0,0.0,0.0,4.2154,0.0,4.1198,0.0,4.2717,4.1429,0.0,4.3505,4.3589,0.0,0.0,4.4628,4.5458,4.6049,4.6161,4.6834,4.7358,4.7414,4.6755,4.6271,4.6212,4.542,4.453,4.3618,4.2654,4.1776,4.1001,4.0109,3.9602,3.9597,3.7902,3.7046,3.7147,3.6282,3.5951,3.6152,3.6049,3.6048,3.6131,3.6053,3.6406,3.7108,3.7108,3.8008,3.9497,3.9493,4.0429,4.1951,4.2918,4.3305,4.3492,4.5162,4.5645,4.5477,4.5637,4.5603,4.5538,4.5677,4.58,4.5893,4.588,4.5734,4.5588,4.558,4.6795,4.8114,4.8195,4.9595,5.117,5.1834,5.1424,5.1289,5.2712,5.2358,5.2029,5.2955,5.3714,5.4241,5.4337,5.4511,5.4568,5.4376,5.5126,5.5382,5.4525,5.5335,5.604,5.6142,5.61,5.6056,5.6012,5.5836,5.5701,5.5579,5.5549,5.5579,5.557,5.6398,5.7321,5.8292,5.8418,5.8503,5.8588,5.8588,5.88,5.9242,6.0108,6.0089,0.0,0.0,0.0,0.0,0.0,0.0,4.0372,0.0,4.1629,0.0,0.0,0.0,0.0,0.0,0.0,0.0,4.4207,4.4497,4.4496,4.5278,4.6225,4.7209,4.6663,4.6192,4.6204,4.5459,4.4824,4.4476,4.3653,4.2771,4.1893,4.1041,4.038,3.9912,3.8215,3.7301,3.7304,3.6441,3.5992,3.5995,3.5993,3.5993,3.5995,3.5995,3.6144,3.6434,3.6891,3.7755,3.885,3.9298,4.0487,4.2086,4.2957,4.3614,4.4181,4.5279,4.5708,4.5704,4.5692,4.5708,4.5742,4.5809,4.5877,4.5944,4.591,4.5815,4.57,4.5673,4.684,4.8123,4.8232,5.001,5.1839,5.2246,5.2007,5.2043,5.3217,5.2634,5.2328,5.3716,5.4263,5.4656,5.5178,5.5097,5.479,5.428,5.4925,5.5228,5.4545,5.5362,5.6078,5.6278,5.6185,5.6064,5.6012,5.5951,5.5846,5.5714,5.6165,5.6445,5.6445,5.7742,5.8396,5.83,5.9261,5.9492,5.9011,5.9492,5.9415,5.8819,5.9665,6.0127,4.1611,0.0,0.0,0.0,0.0,0.0,0.0,0.0,0.0,0.0,0.0,0.0,0.0,0.0,0.0,0.0,0.0,4.2693,4.2698,4.3873,4.52,4.644,4.6283,4.6099,4.6176,4.5638,4.5201,4.499,4.4387,4.3546,4.2467,4.1794,4.1077,4.0241,3.8566,3.7653,3.7656,3.6541,3.5993,3.5995,3.5995,3.6131,3.6347,3.6113,3.6226,3.6633,3.721,3.7906,3.8714,3.9528,4.07,4.2067,4.2685,4.3587,4.467,4.5364,4.5696,4.5764,4.5723,4.5793,4.5891,4.5692,4.5812,4.5996,4.5711,4.572,4.5854,4.6042,4.7064,4.8198,4.8546,5.0269,5.2065,5.2605,5.2311,5.2284,5.3587,5.3017,5.2693,5.4216,5.4687,5.5032,5.569,5.552,5.5116,5.4546,5.4974,5.5181,5.4812,5.5506,5.6102,5.6278,5.6206,5.6121,5.6035,5.6181,5.6319,5.6406,5.7011,5.7368,5.7368,5.8742,5.9223,5.8646,5.9819,6.0127,5.9492,5.9665,5.9377,5.8646,5.9473,6.0069,0.0,0.0,0.0,4.063,0.0,0.0,0.0,0.0,4.0353,0.0,0.0,0.0,0.0,0.0,0.0,0.0,0.0,0.0,0.0,4.3041,4.4654,4.4781,4.5506,4.6032,4.6098,4.608,4.5738,4.4955,4.4872,4.4139,4.2483,4.2366,4.1963,4.1095,3.9438,3.857,3.8553,3.6854,3.5995,3.5996,3.5994,3.6443,3.7226,3.6386,3.6888,3.8409,3.8377,3.8813,3.9621,4.0432,4.1255,4.2002,4.1954,4.299,4.4595,4.5407,4.5708,4.5708,4.5708,4.5822,4.5876,4.516,4.5495,4.6047,4.5181,4.5371,4.6057,4.6849,4.7612,4.8381,4.9237,5.0212,5.1358,5.2981,5.2132,5.1614,5.4041,5.3822,5.3424,5.4332,5.5129,5.5686,5.5787,5.552,5.5389,5.5602,5.5497,5.5533,5.5901,5.602,5.6151,5.6285,5.6291,5.6239,5.6102,5.6809,5.7525,5.8176,5.8242,5.8261,5.8261,5.9069,5.9492,5.9454,5.9511,5.9531,5.9492,5.7896,5.7926,5.9473,6.0339,6.0319,0.0,0.0,3.9188,4.0197,0.0,0.0,0.0,0.0,0.0,0.0,0.0,0.0,0.0,0.0,0.0,0.0,0.0,0.0,0.0,4.0809,4.2912,4.5163,4.5737,4.5969,4.6035,4.5581,4.5423,4.5735,4.5277,4.4727,4.4144,4.413,4.345,4.201,4.0848,3.9995,3.9471,3.7734,3.6855,3.6855,3.6289,3.6152,3.6426,3.6133,3.6306,3.6897,3.7954,3.8859,3.9703,4.1038,4.2434,4.3666,4.3016,4.3763,4.5202,4.4947,4.5254,4.5854,4.5925,4.6035,4.6096,4.5843,4.5987,4.6192,4.5805,4.6193,4.6793,4.6989,4.8001,4.9113,4.9374,5.102,5.2767,5.3335,5.3022,5.3146,5.5107,5.4294,5.3617,5.5083,5.5534,5.5724,5.5787,5.552,5.5135,5.4647,5.5006,5.5188,5.4797,5.5498,5.6043,5.6094,5.6652,5.6959,5.6789,5.7506,5.828,5.905,5.9088,5.9088,5.9088,5.9915,6.0089,5.9511,6.0069,6.0089,5.9492,5.8934,5.8377,5.7888,5.9424,6.0224,3.8076,3.791,0.0,3.9249,3.8502,0.0,3.9298,0.0,3.9267,0.0,0.0,0.0,0.0,0.0,0.0,0.0,0.0,0.0,0.0,4.0546,4.2583,4.5084,4.5415,4.5705,4.636,4.5741,4.5679,4.6589,4.5897,4.5289,4.4981,4.4988,4.4348,4.2907,4.1724,4.0852,4.033,3.8613,3.7617,3.7285,3.6738,3.6621,3.6914,3.658,3.6751,3.7403,3.8399,3.928,4.0126,4.1445,4.3034,4.4471,4.3199,4.3879,4.5508,4.4669,4.501,4.5922,4.6057,4.6147,4.616,4.5848,4.5987,4.6194,4.5824,4.6414,4.7217,4.7126,4.8481,4.9882,4.9528,5.118,5.2975,5.2975,5.2983,5.3387,5.4789,5.4323,5.3994,5.5112,5.5534,5.5714,5.5756,5.5585,5.5246,5.4678,5.5006,5.5195,5.4792,5.549,5.6001,5.6035,5.6834,5.7538,5.7998,5.8494,5.9133,5.9915,5.9954,5.9954,5.9954,6.0492,6.0685,6.0435,6.0666,6.0685,6.0416,5.98,5.9108,5.8369,5.935,6.0181]}]]